[[{"header":{"parameterUnit":"m.s-1","parameterCategory":1,"la1":31.0,"la2":29.5877,"lo1":-88.7671,"lo2":-86.6584,"dy":0.0162,"dx":0.0185,"nx":115,"ny":88,"refTime":"2024-07-14T00:00:00:Z","depth":0,"parameterNumber":2,"parameterNumberName":"U-component_of_WINDS"},"data":[0.0,0.0,0.0,0.0,0.0,0.0,0.0,0.0,0.0,0.0,0.0,0.0,0.0,0.0,0.0,0.0,0.0,0.0,0.0,0.0,0.0,0.0,0.0,0.0,0.0,0.0,0.0,0.0,0.0,0.0,0.0,0.0,0.0,0.0,0.0,0.0,0.0,0.0,0.0,0.0,0.0,0.0,0.0,0.0,0.0,0.0,0.0,0.0,0.0,0.0,0.0,0.0,0.0,0.0,0.0,0.0,0.0,0.0,0.0,0.0,0.0,0.0,0.0,0.0,0.0,0.0,0.0,0.0,0.0,0.0,0.0,0.0,0.0,0.0,0.0,0.0,0.0,0.0,0.0,0.0,0.0,0.0,0.0,0.0,0.0,0.0,0.0,0.0,0.0,0.0,0.0,0.0,0.0,0.0,0.0,0.0,0.0,0.0,0.0,0.0,0.0,0.0,0.0,0.0,0.0,0.0,0.0,0.0,0.0,0.0,0.0,0.0,0.0,0.0,0.0,0.0,0.0,0.0,0.0,0.0,0.0,0.0,0.0,0.0,0.0,0.0,0.0,0.0,0.0,0.0,0.0,0.0,0.0,0.0,0.0,0.0,0.0,0.0,0.0,0.0,0.0,0.0,0.0,0.0,0.0,0.0,0.0,0.0,0.0,0.0,0.0,0.0,0.0,0.0,0.0,0.0,0.0,0.0,0.0,0.0,0.0,0.0,0.0,0.0,0.0,0.0,0.0,0.0,0.0,0.0,0.0,0.0,0.0,0.0,0.0,0.0,0.0,0.0,0.0,0.0,0.0,0.0,0.0,0.0,0.0,0.0,0.0,0.0,0.0,0.0,0.0,0.0,0.0,0.0,0.0,0.0,0.0,0.0,0.0,0.0,0.0,0.0,0.0,0.0,0.0,0.0,0.0,0.0,0.0,0.0,0.0,0.0,0.0,0.0,0.0,0.0,0.0,0.0,0.0,0.0,0.0,0.0,0.0,0.0,0.0,0.0,0.0,0.0,0.0,0.0,0.0,0.0,0.0,0.0,0.0,0.0,0.0,0.0,0.0,0.0,0.0,0.0,0.0,0.0,0.0,0.0,0.0,0.0,0.0,0.0,0.0,0.0,0.0,0.0,0.0,0.0,0.0,0.0,0.0,0.0,0.0,0.0,0.0,0.0,0.0,0.0,0.0,0.0,0.0,0.0,0.0,0.0,0.0,0.0,0.0,0.0,0.0,0.0,0.0,0.0,0.0,0.0,0.0,0.0,0.0,0.0,0.0,0.0,0.0,0.0,0.0,0.0,0.0,0.0,0.0,0.0,0.0,0.0,0.0,0.0,0.0,0.0,0.0,0.0,0.0,0.0,0.0,0.0,0.0,0.0,0.0,0.0,0.0,0.0,0.0,0.0,0.0,0.0,0.0,0.0,0.0,0.0,0.0,0.0,0.0,0.0,0.0,0.0,0.0,0.0,0.0,0.0,0.0,0.0,0.0,0.0,0.0,0.0,0.0,0.0,0.0,0.0,0.0,0.0,0.0,0.0,0.0,0.0,0.0,0.0,0.0,0.0,0.0,0.0,0.0,0.0,0.0,0.0,0.0,0.0,0.0,0.0,0.0,0.0,0.0,0.0,0.0,0.0,0.0,0.0,0.0,0.0,0.0,0.0,0.0,0.0,0.0,0.0,0.0,0.0,0.0,0.0,0.0,0.0,0.0,0.0,0.0,0.0,0.0,0.0,0.0,0.0,0.0,0.0,0.0,0.0,0.0,0.0,0.0,0.0,0.0,0.0,0.0,0.0,0.0,0.0,0.0,0.0,0.0,0.0,0.0,0.0,0.0,0.0,0.0,0.0,0.0,0.0,0.0,0.0,0.0,0.0,0.0,0.0,0.0,0.0,0.0,0.0,0.0,0.0,0.0,0.0,0.0,0.0,0.0,0.0,0.0,0.0,0.0,0.0,0.0,0.0,0.0,0.0,0.0,0.0,0.0,0.0,0.0,0.0,0.0,0.0,0.0,0.0,0.0,0.0,0.0,0.0,0.0,0.0,0.0,0.0,0.0,0.0,0.0,0.0,0.0,0.0,0.0,0.0,0.0,0.0,0.0,0.0,0.0,0.0,0.0,0.0,0.0,0.0,0.0,0.0,0.0,0.0,0.0,0.0,0.0,0.0,0.0,0.0,0.0,0.0,0.0,0.0,0.0,0.0,0.0,0.0,0.0,0.0,0.0,0.0,0.0,0.0,0.0,0.0,0.0,0.0,0.0,0.0,0.0,0.0,0.0,0.0,0.0,0.0,0.0,0.0,0.0,0.0,0.0,0.0,0.0,0.0,0.0,0.0,0.0,0.0,0.0,0.0,0.0,0.0,0.0,0.0,0.0,0.0,0.0,0.0,0.0,0.0,0.0,0.0,0.0,0.0,0.0,0.0,0.0,0.0,0.0,0.0,0.0,0.0,0.0,0.0,0.0,0.0,0.0,0.0,0.0,0.0,0.0,0.0,0.0,0.0,0.0,0.0,0.0,0.0,0.0,0.0,0.0,0.0,0.0,0.0,0.0,0.0,0.0,0.0,0.0,0.0,0.0,0.0,0.0,0.0,0.0,0.0,0.0,0.0,0.0,0.0,0.0,0.0,0.0,0.0,0.0,0.0,0.0,0.0,0.0,0.0,0.0,0.0,0.0,0.0,0.0,0.0,0.0,0.0,0.0,0.0,0.0,0.0,0.0,0.0,0.0,0.0,0.0,0.0,0.0,0.0,0.0,0.0,0.0,0.0,0.0,0.0,0.0,0.0,0.0,0.0,0.0,0.0,0.0,0.0,0.0,0.0,0.0,0.0,0.0,0.0,0.0,0.0,0.0,0.0,0.0,0.0,0.0,0.0,0.0,0.0,0.0,0.0,0.0,0.0,0.0,0.0,0.0,0.0,0.0,0.0,0.0,0.0,0.0,0.0,0.0,0.0,0.0,0.0,0.0,0.0,0.0,0.0,0.0,0.0,0.0,0.0,0.0,0.0,0.0,0.0,0.0,0.0,0.0,0.0,0.0,0.0,0.0,0.0,0.0,0.0,0.0,0.0,0.0,0.0,0.0,0.0,0.0,0.0,0.0,0.0,0.0,0.0,0.0,0.0,0.0,0.0,0.0,0.0,0.0,0.0,0.0,0.0,0.0,0.0,0.0,0.0,0.0,0.0,0.0,0.0,0.0,0.0,0.0,0.0,0.0,0.0,0.0,0.0,0.0,0.0,0.0,0.0,0.0,0.0,0.0,0.0,0.0,0.0,0.0,0.0,0.0,0.0,0.0,0.0,0.0,0.0,0.0,0.0,0.0,0.0,0.0,0.0,0.0,0.0,0.0,0.0,0.0,0.0,0.0,0.0,0.0,0.0,0.0,0.0,0.0,0.0,0.0,0.0,0.0,0.0,0.0,0.0,0.0,0.0,0.0,0.0,0.0,0.0,0.0,0.0,0.0,0.0,0.0,0.0,0.0,0.0,0.0,0.0,0.0,0.0,0.0,0.0,0.0,0.0,0.0,0.0,0.0,0.0,0.0,0.0,0.0,0.0,0.0,0.0,0.0,0.0,0.0,0.0,0.0,0.0,0.0,0.0,0.0,0.0,0.0,0.0,0.0,0.0,0.0,0.0,0.0,0.0,0.0,0.0,0.0,0.0,0.0,0.0,0.0,0.0,0.0,0.0,0.0,0.0,0.0,0.0,0.0,0.0,0.0,0.0,0.0,0.0,0.0,0.0,0.0,0.0,0.0,0.0,0.0,0.0,0.0,0.0,0.0,0.0,0.0,0.0,0.0,0.0,0.0,0.0,0.0,0.0,0.0,0.0,0.0,0.0,0.0,0.0,0.0,0.0,0.0,0.0,0.0,0.0,0.0,0.0,0.0,0.0,0.0,0.0,0.0,0.0,0.0,0.0,0.0,0.0,0.0,0.0,0.0,0.0,0.0,0.0,0.0,0.0,0.0,0.0,0.0,0.0,0.0,0.0,0.0,0.0,0.0,0.0,0.0,0.0,0.0,0.0,0.0,0.0,0.0,0.0,0.0,0.0,0.0,0.0,0.0,0.0,0.0,0.0,0.0,0.0,0.0,0.0,0.0,0.0,0.0,0.0,0.0,0.0,0.0,0.0,0.0,0.0,0.0,0.0,0.0,0.0,0.0,0.0,0.0,0.0,0.0,0.0,0.0,0.0,0.0,0.0,0.0,0.0,0.0,0.0,0.0,0.0,0.0,0.0,0.0,0.0,0.0,0.0,0.0,0.0,0.0,0.0,0.0,0.0,-0.3283,0.0,0.0,0.0,0.0,0.0,0.0,0.0,0.0,0.0,0.0,0.0,0.0,0.0,0.0,0.0,0.0,0.0,0.0,0.0,0.0,0.0,0.0,0.0,0.0,0.0,0.0,0.0,0.0,0.0,0.0,0.0,0.0,0.0,0.0,0.0,0.0,0.0,0.0,0.0,0.0,0.0,0.0,0.0,0.0,0.0,0.0,0.0,0.0,0.0,0.0,0.0,0.0,0.0,0.0,0.0,0.0,0.0,0.0,0.0,0.0,0.0,0.0,0.0,0.0,0.0,0.0,0.0,0.0,0.0,0.0,0.0,0.0,0.0,0.0,0.0,0.0,0.0,0.0,0.0,0.0,0.0,0.0,0.0,0.0,0.0,0.0,0.0,0.0,0.0,0.0,0.0,0.0,0.0,0.0,0.0,0.0,0.0,0.0,0.0,0.0,0.0,0.0,0.0,0.0,0.0,0.0,0.0,0.0,0.0,0.0,-0.172,-0.1981,-0.2385,-0.2818,-0.3251,0.0,0.0,0.0,0.0,0.0,0.0,0.0,0.0,0.0,0.0,0.0,0.0,0.0,0.0,0.0,0.0,0.0,0.0,0.0,0.0,0.0,0.0,0.0,0.0,0.0,0.0,0.0,0.0,0.0,0.0,0.0,0.0,0.0,0.0,0.0,0.0,0.0,0.0,0.0,0.0,0.0,0.0,0.0,0.0,0.0,0.0,0.0,0.0,0.0,0.0,0.0,0.0,0.0,0.0,0.0,0.0,0.0,0.0,0.0,0.0,0.0,0.0,0.0,0.0,0.0,0.0,0.0,0.0,0.0,0.0,0.0,0.0,0.0,0.0,0.0,0.0,0.0,0.0,0.0,0.0,0.0,0.0,0.0,0.0,0.0,0.0,0.0,0.0,0.0,0.0,0.0,0.0,0.0,0.0,0.0,0.0,0.0,0.0,0.0,0.0,0.0,0.0,0.0,0.0,0.0,0.0,0.0,0.0,0.0,0.0,0.0,0.0,-0.2218,-0.2715,-0.3103,0.0,0.0,0.0,0.0,0.0,0.0,0.0,0.0,0.0,0.0,0.0,0.0,0.0,0.0,0.0,0.0,0.0,0.0,0.0,0.0,0.0,0.0,0.0,0.0,0.0,0.0,0.0,0.0,0.0,0.0,0.0,0.0,0.0,0.0,0.0,0.0,0.0,0.0,0.0,0.0,0.0,0.0,0.0,0.0,0.0,0.0,0.0,0.0,0.0,0.0,0.0,0.0,0.0,0.0,0.0,0.0,0.0,0.0,0.0,0.0,0.0,0.0,0.0,0.0,0.0,0.0,0.0,0.0,0.0,0.0,0.0,0.0,0.0,0.0,0.0,0.0,0.0,0.0,0.0,0.0,0.0,0.0,0.0,0.0,0.0,0.0,0.0,0.0,0.0,0.0,0.0,0.0,0.0,0.0,0.0,0.0,0.0,0.0,0.0,0.0,0.0,0.0,0.0,0.0,0.0,0.0,0.0,0.0,0.0,0.0,-0.1325,-0.1353,-0.1934,0.0,-0.2637,0.0,0.0,0.0,0.0,0.0,0.0,0.0,0.0,0.0,0.0,0.0,0.0,0.0,0.0,0.0,0.0,0.0,0.0,0.0,0.0,0.0,0.0,0.0,0.0,0.0,0.0,0.0,0.0,0.0,0.0,0.0,0.0,0.0,0.0,0.0,0.0,0.0,0.0,0.0,0.0,0.0,0.0,0.0,0.0,0.0,0.0,0.0,0.0,0.0,0.0,0.0,0.0,0.0,0.0,0.0,0.0,0.0,0.0,0.0,0.0,0.0,0.0,0.0,0.0,0.0,0.0,0.0,0.0,0.0,0.0,0.0,0.0,0.0,0.0,0.0,0.0,0.0,0.0,0.0,0.0,0.0,0.0,0.0,0.0,0.0,0.0,0.0,0.0,0.0,0.0,0.0,0.0,0.0,0.0,0.0,0.0,0.0,0.0,0.0,0.0,0.0,0.0,0.0,0.0,0.0,0.0,0.0,0.0,0.0,0.0,-0.1608,-0.1594,-0.249,-0.3014,0.0,0.0,0.0,0.0,0.0,0.0,0.0,0.0,0.0,0.0,0.0,0.0,0.0,0.0,0.0,0.0,0.0,0.0,0.0,0.0,0.0,0.0,0.0,0.0,0.0,0.0,0.0,0.0,0.0,0.0,0.0,0.0,0.0,0.0,0.0,0.0,0.0,0.0,0.0,0.0,0.0,0.0,0.0,0.0,0.0,0.0,0.0,0.0,0.0,0.0,0.0,0.0,0.0,0.0,0.0,0.0,0.0,0.0,0.0,0.0,0.0,0.0,0.0,0.0,0.0,0.0,0.0,0.0,0.0,0.0,0.0,0.0,0.0,0.0,0.0,0.0,0.0,0.0,0.0,0.0,0.0,0.0,0.0,0.0,0.0,0.0,0.0,0.0,0.0,0.0,0.0,0.0,0.0,0.0,0.0,0.0,0.0,0.0,0.0,0.0,0.0,0.0,0.0,0.0,0.0,0.0,0.0,0.0,0.0,0.0,-0.1437,0.0,-0.2042,-0.2969,-0.3342,-0.3041,0.0,0.0,0.0,0.0,0.0,0.0,0.0,0.0,0.0,0.0,0.0,0.0,0.0,0.0,0.0,0.0,0.0,0.0,0.0,0.0,0.0,0.0,0.0,0.0,0.0,0.0,0.0,0.0,0.0,0.0,0.0,0.0,0.0,0.0,0.0,0.0,0.0,0.0,0.0,0.0,0.0,0.0,0.0,0.0,0.0,0.0,0.0,0.0,0.0,0.0,0.0,0.0,0.0,0.0,0.0,0.0,0.0,0.0,0.0,0.0,0.0,0.0,0.0,0.0,0.0,0.0,0.0,0.0,0.0,0.0,0.0,0.0,0.0,0.0,0.0,0.0,0.0,0.0,0.0,0.0,0.0,0.0,0.0,0.0,0.0,0.0,0.0,0.0,0.0,0.0,0.0,0.0,0.0,0.0,0.0,0.0,0.0,0.0,0.0,0.0,0.0,0.0,0.0,0.0,0.0,0.0,0.0,0.0,0.0,-0.1264,-0.1716,-0.2534,-0.3153,-0.2984,0.0,0.0,0.0,0.0,0.0,0.0,0.0,0.0,0.0,0.0,0.0,0.0,0.0,0.0,0.0,0.0,0.0,0.0,0.0,0.0,0.0,0.0,0.0,0.0,0.0,0.0,0.0,0.0,0.0,0.0,0.0,0.0,0.0,0.0,0.0,0.0,0.0,0.0,0.0,0.0,0.0,0.0,0.0,0.0,0.0,0.0,0.0,0.0,0.0,0.0,0.0,0.0,0.0,0.0,0.0,0.0,0.0,0.0,0.0,0.0,0.0,0.0,0.0,0.0,0.0,0.0,0.0,0.0,0.0,0.0,0.0,0.0,0.0,0.0,0.0,0.0,0.0,0.0,0.0,0.0,0.0,0.0,0.0,0.0,0.0,0.0,0.0,0.0,0.0,0.0,0.0,0.0,0.0,0.0,0.0,0.0,0.0,0.0,0.0,0.0,0.0,0.0,0.0,0.0,0.0,0.0,0.0,0.0,0.0,-0.1006,-0.1206,-0.1631,-0.2297,-0.201,-0.1819,0.0,0.0,0.0,0.0,0.0,0.0,0.0,0.0,0.0,0.0,0.0,0.0,0.0,0.0,0.0,0.0,0.0,0.0,0.0,0.0,0.0,0.0,0.0,0.0,0.0,0.0,0.0,0.0,0.0,0.0,0.0,0.0,0.0,0.0,0.0,0.0,0.0,0.0,0.0,0.0,0.0,0.0,0.0,0.0,0.0,0.0,0.0,0.0,0.0,0.0,0.0,0.0,0.0,0.0,0.0,0.0,0.0,0.0,0.0,0.0,0.0,0.0,0.0,0.0,0.0,0.0,0.0,0.0,0.0,0.0,0.0,0.0,0.0,0.0,0.0,0.0,0.0,0.0,0.0,0.0,0.0,0.0,0.0,0.0,0.0,0.0,0.0,0.0,0.0,0.0,0.0,0.0,0.0,0.0,0.0,0.0,0.0,0.0,0.0,0.0,0.0,0.0,0.0,0.0,0.0,0.0,0.0,0.0,0.0,-0.1028,0.0,-0.1486,0.0,-0.144,-0.1293,0.0,0.0,0.0,0.0,0.0,0.0,0.0,0.0,0.0,0.0,0.0,0.0,0.0,0.0,0.0,0.0,0.0,0.0,0.0,0.0,0.0,0.0,0.0,0.0,0.0,0.0,0.0,0.0,0.0,0.0,0.0,0.0,0.0,0.0,0.0,0.0,0.0,0.0,0.0,0.0,0.0,0.0,0.0,0.0,0.0,0.0,0.0,0.0,0.0,0.0,0.0,0.0,0.0,0.0,0.0,0.0,0.0,0.0,0.0,0.0,0.0,0.0,0.0,0.0,0.0,0.0,0.0,0.0,0.0,0.0,0.0,0.0,0.0,0.0,0.0,0.0,0.0,0.0,0.0,0.0,0.0,0.0,0.0,0.0,0.0,0.0,0.0,0.0,0.0,0.0,0.0,0.0,0.0,0.0,0.0,0.0,0.0,0.0,0.0,0.0,0.0,0.0,0.0,0.0,0.0,0.0,0.0,0.0,-0.1019,-0.127,-0.1305,-0.1314,-0.132,-0.1583,-0.1494,0.0,0.0,0.0,0.0,0.0,0.0,0.0,0.0,0.0,0.0,0.0,0.0,0.0,0.0,0.0,0.0,0.0,0.0,0.0,0.0,0.0,0.0,0.0,0.0,0.0,0.0,0.0,0.0,0.0,0.0,0.0,0.0,0.0,0.0,0.0,0.0,0.0,0.0,0.0,0.0,0.0,0.0,0.0,0.0,0.0,0.0,0.0,0.0,0.0,0.0,0.0,0.0,0.0,0.0,0.0,0.0,0.0,0.0,0.0,0.0,0.0,0.0,0.0,0.0,0.0,0.0,0.0,0.0,0.0,0.0,0.0,0.0,0.0,0.0,0.0,0.0,0.0,0.0,0.0,0.0,0.0,0.0,0.0,0.0,0.0,0.0,0.0,0.0,0.0,0.0,0.0,0.0,0.0,0.0,0.0,0.0,0.0,0.0,0.0,0.0,0.0,0.0,0.0,0.0,0.0,0.0,0.0,0.0,0.0,-0.1169,-0.1247,-0.1317,-0.1299,-0.1209,-0.1088,0.0,0.0,0.0,0.0,0.0,0.0,0.0,0.0,0.0,0.0,0.0,0.0,0.0,0.0,0.0,0.0,0.0,0.0,0.0,0.0,0.0,0.0,0.0,0.0,0.0,0.0,0.0,0.0,0.0,0.0,0.0,0.0,0.0,0.0,0.0,0.0,0.0,0.0,0.0,0.0,0.0,0.0,0.0,0.0,0.0,0.0,0.0,0.0,0.0,0.0,0.0,0.0,0.0,0.0,0.0,0.0,0.0,0.0,0.0,0.0,0.0,0.0,0.0,0.0,0.0,0.0,0.0,0.0,0.0,0.0,0.0,0.0,0.0,0.0,0.0,0.0,0.0,0.0,0.0,0.0,0.0,0.0,0.0,0.0,0.0,0.0,0.0,0.0,0.0,0.0,0.0,0.0,0.0,0.0,0.0,0.0,0.0,0.0,0.0,0.0,0.0,0.0,0.0,0.0,0.0,0.0,0.0,0.0,0.0,-0.1521,-0.1486,-0.1494,-0.1504,-0.1548,-0.1468,-0.124,0.0,0.0,0.0,0.0,0.0,0.0,0.0,0.0,0.0,0.0,0.0,0.0,0.0,0.0,0.0,0.0,0.0,0.0,0.0,0.0,0.0,0.0,0.0,0.0,0.0,0.0,0.0,0.0,0.0,0.0,0.0,0.0,0.0,0.0,0.0,0.0,0.0,0.0,0.0,0.0,0.0,0.0,0.0,0.0,0.0,0.0,0.0,0.0,0.0,0.0,0.0,0.0,0.0,0.0,0.0,0.0,0.0,0.0,0.0,0.0,0.0,0.0,0.0,0.0,0.0,0.0,0.0,0.0,0.0,0.0,0.0,0.0,0.0,0.0,0.0,0.0,0.0,0.0,0.0,0.0,0.0,0.0,0.0,0.0,0.0,0.0,0.0,0.0,0.0,0.0,0.0,0.0,0.0,0.0,0.0,0.0,0.0,0.0,0.0,0.0,0.0,0.0,0.0,0.0,0.0,0.0,0.0,0.0,-0.2258,-0.2009,-0.1899,-0.1903,-0.2353,-0.2339,0.0,0.0,0.0,0.0,0.0,0.0,0.0,0.0,0.0,0.0,0.0,0.0,0.0,0.0,0.0,0.0,0.0,0.0,0.0,0.0,0.0,0.0,0.0,0.0,0.0,0.0,0.0,0.0,0.0,0.0,0.0,0.0,0.0,0.0,0.0,0.0,0.0,0.0,0.0,0.0,0.0,0.0,0.0,0.0,0.0,0.0,0.0,0.0,0.0,0.0,0.0,0.0,0.0,0.0,0.0,0.0,0.0,0.0,0.0,0.0,0.0,0.0,0.0,0.0,0.0,0.0,0.0,0.0,0.0,0.0,0.0,0.0,0.0,0.0,0.0,0.0,0.0,0.0,0.0,0.0,0.0,0.0,0.0,0.0,0.0,0.0,0.0,0.0,0.0,0.0,0.0,0.0,0.0,0.0,0.0,0.0,0.0,0.0,0.0,0.0,0.0,0.0,0.0,0.0,0.0,0.0,0.0,0.0,0.0,-0.2883,-0.3042,-0.3023,-0.275,-0.2294,-0.153,0.0,0.0,0.0,0.0,0.0,0.0,0.0,0.0,0.0,0.0,0.0,0.0,0.0,0.0,0.0,0.0,0.0,0.0,0.0,0.0,0.0,0.0,0.0,0.0,0.0,0.0,0.0,0.0,0.0,0.0,0.0,0.0,0.0,0.0,0.0,0.0,0.0,0.0,0.0,0.0,0.0,0.0,0.0,0.0,0.0,0.0,0.0,0.0,0.0,0.0,0.0,0.0,0.0,0.0,0.0,0.0,0.0,0.0,0.0,0.0,0.0,0.0,0.0,0.0,0.0,0.0,0.0,0.0,0.0,0.0,0.0,0.0,0.0,0.0,0.0,0.0,0.0,0.0,0.0,0.0,0.0,0.0,0.0,0.0,0.0,0.0,0.0,0.0,0.0,0.0,0.0,0.0,0.0,0.0,0.0,0.0,0.0,0.0,0.0,0.0,0.0,0.0,0.0,0.0,0.0,0.0,0.0,0.0,-0.3243,-0.3124,-0.3652,-0.389,-0.3677,-0.3217,-0.2262,0.0,0.0,0.0,0.0,0.0,0.0,0.0,0.0,0.0,0.0,0.0,0.0,0.0,0.0,0.0,0.0,0.0,0.0,0.0,0.0,0.0,0.0,0.0,0.0,0.0,0.0,0.0,0.0,0.0,0.0,0.0,0.0,0.0,0.0,0.0,0.0,0.0,0.0,0.0,0.0,0.0,0.0,0.0,0.0,0.0,0.0,0.0,0.0,0.0,0.0,0.0,0.0,0.0,0.0,0.0,0.0,0.0,0.0,0.0,0.0,0.0,0.0,0.0,0.0,0.0,0.0,0.0,0.0,0.0,0.0,0.0,0.0,0.0,0.0,0.0,0.0,0.0,0.0,0.0,0.0,0.0,0.0,0.0,0.0,0.0,0.0,0.0,0.0,0.0,0.0,0.0,0.0,0.0,0.0,0.0,0.0,0.0,0.0,0.0,0.0,0.0,0.0,0.0,0.0,0.0,0.0,0.0,0.0,-0.3438,-0.3198,-0.4019,-0.446,-0.4498,-0.4507,-0.3685,0.0,0.0,0.0,0.0,0.0,0.0,0.0,0.0,0.0,0.0,0.0,0.0,0.0,0.0,0.0,0.0,0.0,0.0,0.0,0.0,0.0,0.0,0.0,0.0,0.0,0.0,0.0,0.0,0.0,0.0,0.0,0.0,0.0,0.0,0.0,0.0,0.0,0.0,0.0,0.0,0.0,0.0,0.0,0.0,0.0,0.0,0.0,0.0,0.0,0.0,0.0,0.0,0.0,0.0,0.0,0.0,0.0,0.0,0.0,0.0,0.0,0.0,0.0,0.0,0.0,0.0,0.0,0.0,0.0,0.0,0.0,0.0,0.0,0.0,0.0,0.0,0.0,0.0,0.0,0.0,0.0,0.0,0.0,0.0,0.0,0.0,0.0,0.0,0.0,0.0,0.0,0.0,0.0,0.0,0.0,0.0,0.0,0.0,0.0,0.0,0.0,0.0,0.0,0.0,0.0,0.0,0.0,0.0,-0.3337,-0.3649,-0.4234,-0.4463,-0.4515,-0.4507,-0.3858,0.0,0.0,0.0,0.0,0.0,0.0,0.0,0.0,0.0,0.0,0.0,0.0,0.0,0.0,0.0,0.0,0.0,0.0,0.0,0.0,0.0,0.0,0.0,0.0,0.0,0.0,0.0,0.0,0.0,0.0,0.0,0.0,0.0,0.0,0.0,0.0,0.0,0.0,0.0,0.0,0.0,0.0,0.0,0.0,0.0,0.0,0.0,0.0,0.0112,0.0,0.0,0.0,0.0,0.0,0.0,0.0,0.0,0.0,0.0,0.0,0.0,0.0,0.0,0.0,0.0,0.0,0.0,0.0,0.0,0.0,0.0,0.0,0.0,0.0,0.0,0.0,0.0,0.0,0.0,0.0,0.0,0.0,0.0,0.0,0.0,0.0,0.0,0.0,0.0,0.0,0.0,0.0,0.0,0.0,0.0,0.0,0.0,0.0,0.0,0.0,0.0,0.0,0.0,0.0,0.0,0.0,0.0,0.0,-0.3468,-0.3782,-0.4229,-0.4463,-0.4498,-0.4499,-0.3944,0.0,0.0,0.0,0.0,0.0,0.0,0.0,0.0,0.0,0.0,0.0,0.0,0.0,0.0,0.0,0.0,0.0,0.0,0.0,0.0,0.0,0.0,0.0,0.0,0.0,0.0,0.0,0.0,0.0,0.0,0.0,0.0,0.0,0.0,0.0,0.0,0.0,0.0,0.0,0.0,0.0,0.0,0.0,0.0,0.0,0.0,0.0,0.0,0.0,0.0,0.0,0.0,0.0,0.0,0.0,0.0,0.0,0.0,0.0,0.0,0.0,0.0,0.0,0.0,0.0,0.0,0.0,0.0,0.0,0.0,0.0,0.0,0.0,0.0,0.0,0.0,0.0,0.0,0.0,0.0,0.0,0.0,0.0,0.0,0.0,0.0,0.0,0.0,0.0,0.0,0.0,0.0,0.0,0.0,0.0,0.0,0.0,0.0,0.0,0.0,0.0,0.0,0.0,0.0,0.0,0.0,0.0,-0.3456,-0.3761,-0.3931,-0.4319,-0.4463,-0.4512,-0.4492,-0.4022,-0.3024,0.0,0.0,0.0,0.0,0.0,0.0,0.0,0.0,0.0,0.0,0.0,0.0,0.0,0.0,0.0,0.0,0.0,0.0,0.0,0.0,0.0,0.0,0.0,0.0,0.0,0.0,0.0,0.0,0.0,0.0,0.0,0.0,0.0,0.0,0.0,0.0,0.0,0.0,0.0436,0.0229,0.0,0.0,0.0,0.0,0.0,0.0,0.0,0.0,0.2237,0.0,0.0,0.0,0.0,0.0,0.0,0.0,0.0,0.0,0.0,0.0,0.0,0.0,0.0,0.0,0.0,0.0,0.0,0.0,0.0,0.0,0.0,0.0,0.0,0.0,0.0,0.0,0.0,0.0,0.0,0.0,0.0,0.0,0.0,0.0,0.0,0.0,0.0,0.0,0.0,0.0,0.0,0.0,0.0,0.0,0.0,0.0,0.0,0.0,0.0,0.0,0.0,0.0,0.0,0.0,0.0,-0.2022,-0.3543,-0.4382,-0.4381,-0.4477,-0.4463,-0.4508,-0.4496,-0.4407,-0.416,0.0,0.0,0.0,0.0,0.0,0.0,0.0,0.0,0.0,0.0,0.0,0.0,0.0,0.0,0.0,0.0,0.0,0.0,0.0,0.0,0.0,0.0,0.0,0.0,0.0,0.0,0.0,0.0,0.0,0.0,0.0,0.0,0.0,0.0,0.0,0.0,0.0,0.0,0.0,-0.0382,-0.0,0.0,0.0,0.0,0.0,0.0,0.0,0.0,0.0,0.1579,0.0,0.0,0.0,0.0,0.0,0.0,0.0,0.0,0.0,0.0,0.0,0.0,0.0,0.0,0.0,0.0,0.0,0.0,0.0,0.0,0.0,0.0,0.0,0.0,0.0,0.0,0.0,0.0,0.0,0.0,0.0,0.0,0.0,0.0,0.0,0.0,0.0,0.0,0.0,0.0,0.0,0.0,0.0,0.0,0.0,0.0,0.0,0.0,0.0,0.0,0.0,0.0,0.0,0.0,0.0,-0.2493,-0.3821,-0.4475,-0.4488,-0.4463,-0.4463,-0.4508,-0.4462,-0.4221,0.0,0.0,0.0,0.0,0.0,0.0,0.0,0.0,0.0,0.0,0.0,0.0,0.0,0.0,0.0,0.0,0.0,0.0,0.0,0.0,0.0,0.0,0.0,0.0,0.0,0.0,0.0,0.0,0.0,0.0,0.0,0.0,0.0,0.0,0.0,0.0,0.0,0.0,0.0,0.0,-0.1961,-0.176,-0.0206,0.0,0.0,0.0,0.0,0.0,0.0,0.0979,0.121,0.0,0.0,0.0,0.0,0.0,0.0,0.0,0.0,0.0,0.0,0.0,0.0,0.0,0.0,0.0,0.0,0.0,0.0,0.0,0.0,0.0,0.0,0.0,0.0,0.0,0.0,0.0,0.0,0.0,0.0,0.0,0.0,0.0,0.0,0.0,0.0,0.0,0.0,0.0,0.0,0.0,0.0,0.0,0.0,0.0,0.0,0.0,0.0,0.0,0.0,0.0,0.0,0.0,0.0,0.0,-0.3341,-0.4112,-0.4473,-0.4494,-0.4463,-0.4463,-0.4508,-0.4462,-0.3873,0.0,0.0,0.0,0.0,0.0,0.0,0.0,0.0,0.0,0.0,0.0,0.0,0.0,0.0,0.0,0.0,0.0,0.0,0.0,0.0,0.0,0.0,0.0,0.0,0.0,0.0,0.0,0.0,0.0,0.0,0.0,0.0,0.0,0.0,0.0,0.0,0.0,0.0,0.0,0.0,0.0,-0.3204,-0.1198,-0.0376,0.0,0.0,0.0,0.0,0.1748,0.1188,0.0,0.0,0.0,0.0,0.0,0.0,0.0,0.0,0.0,0.0,0.0,0.0,0.0,0.0,0.0,0.0,0.0,0.0,0.0,0.0,0.0,0.0,0.0,0.0,0.0,0.0,0.0,0.0,0.0,0.0,0.0,0.0,0.0,0.0,0.0,0.0,0.0,0.0,0.0,0.0,0.0,0.0,0.0,0.0,0.0,0.0,0.0,0.0,0.0,0.0,0.0,0.0,0.0,0.0,0.0,0.0,-0.4265,-0.4437,-0.4469,-0.4491,-0.4463,-0.4463,-0.4508,-0.4505,-0.368,0.0,0.0,0.0,0.0,0.0,0.0,0.0,0.0,0.0,0.0,0.0,0.0,0.0,0.0,0.0,0.0,0.0,0.0,0.0,0.0,0.0,0.0,0.0,0.0,0.0,0.0,0.0,0.0,0.0,0.0,0.0,0.0,0.0,0.0,0.0,0.0,0.0,0.0,0.0,0.0,0.0,-0.2582,-0.3788,-0.1686,-0.0,0.0,0.0,0.058,0.1645,0.0849,0.0,0.0,0.0,0.0,0.0,0.0,0.0,0.0,0.0,0.0,0.0,0.0,0.0,0.0,0.0,0.0,0.0,0.0,0.0,0.0,0.0,0.0,0.0,0.0,0.0,0.0,0.0,0.0,0.0,0.0,0.0,0.0,0.0,0.0,0.0,0.0,0.0,0.0,0.0,0.0,0.0,0.0,0.0,0.0,0.0,0.0,0.0,0.0,0.0,0.0,0.0,0.0,0.0,0.0,0.0,-0.2362,-0.4418,-0.4498,-0.4481,-0.4508,-0.4467,-0.4467,-0.446,-0.4494,-0.3791,0.0,0.0,0.0,0.0,0.0,0.0,0.0,0.0,0.0,0.0,0.0,0.0,0.0,0.0,0.0,0.0,0.0,0.0,0.0,0.0,0.0,0.0,0.0,0.0,0.0,0.0,0.0,0.0,0.0,0.0,0.0,0.0,0.0,0.0,0.0,0.0,0.0,0.0,0.0,0.0,0.0,0.0,-0.1824,-0.082,0.0,0.0,0.0,0.0165,0.0699,0.0,0.0,0.0,0.0,0.0,0.0,0.0,0.0,0.0,0.0,0.0,0.0,0.0,0.0,0.0,0.0,0.0,0.0,0.0,0.0,0.0,0.0,0.0,0.0,0.0,0.0,0.0,0.0,0.0,0.0,0.0,0.0,0.0,0.0,0.0,0.0,0.0,0.0,0.0,0.0,0.0,0.0,0.0,0.0,0.0,0.0,0.0,0.0,0.0,0.0,0.0,0.0,0.0,0.0,0.0,0.0,0.0,-0.4427,-0.4469,-0.4467,-0.4467,-0.4477,-0.4477,-0.446,-0.4506,0.0,0.0,0.0,0.0,0.0,0.0,0.0,0.0,0.0,0.0,0.0,0.0,0.0,0.0,0.0,0.0,0.0,0.0,0.0,0.0,0.0,0.0,0.0,0.0,0.0,0.0,0.0,-0.0741,0.0,0.0,0.0,0.0,0.0,0.0,0.0,0.0,0.0,0.0,0.0,0.0,0.0,0.0,-0.0,-0.0,-0.0,-0.0,0.0,0.0,-0.0,-0.0,0.0623,0.1238,0.0,0.0,0.0,0.0,0.0,0.0,0.0,0.0,0.0,0.0,0.0,0.0,0.0,0.0,0.0,0.0,0.0,0.0,0.0,0.0,0.0,0.0,0.0,0.0,0.0,0.0,0.0,0.0,0.0,0.0,0.0,0.0,0.0,0.0,0.0,0.0,0.0,0.0,0.0,0.0,0.0,0.0,0.0,0.0,0.0,0.0,0.0,0.0,0.0,0.0,0.0,0.0,0.0,0.0,0.0,-0.4398,-0.4477,-0.4477,-0.4477,-0.449,-0.4494,-0.449,-0.4488,-0.3919,0.0,0.0,0.0,0.0,0.0,0.0,0.0,0.0,0.0,0.0,0.0,0.0,0.0,0.0,0.0,0.0,0.0,0.0,0.0,0.0,0.0,0.0,0.0,0.0,0.0,0.0,0.0,0.0,0.0,0.0,0.0,0.0,0.0,0.0,0.0,0.0,0.0,0.0,0.0,0.0,0.0,-0.0,-0.0,-0.0,-0.0,0.0,-0.0,-0.0,-0.0,0.2372,0.3473,0.1332,0.0,0.0,0.0,0.0,0.0,0.0,0.0,0.0,0.0,0.0,0.0,0.0,0.0,0.0,0.0,0.0,0.0,0.0,0.0,0.0,0.0,0.0,0.0,0.0,0.0,0.0,0.0,0.0,0.0,0.0,0.0,0.0,0.0,0.0,0.0,0.0,0.0,0.0,0.0,0.0,0.0,0.0,0.0,0.0,0.0,0.0,0.0,0.0,0.0,0.0,0.0,0.0,0.0,-0.2183,-0.4461,-0.4481,-0.4477,-0.4477,-0.4497,-0.4504,-0.4494,-0.4483,-0.4307,0.0,0.0,0.0,0.0,0.0,0.0,0.0,0.0,0.0,0.0,0.0,0.0,0.0,0.0,0.0,0.0,0.0,0.0,0.0,0.0,0.0,0.0,0.0,0.0,0.0,0.0,0.0,0.0,-0.0143,0.0302,0.1033,0.0,0.0,0.0,0.0,0.0,0.0,0.0,0.0,0.0,0.0,-0.0,-0.0,-0.0,0.0,0.0,-0.0,0.0543,0.2003,0.2861,0.3082,0.215,0.2292,0.0,0.0,0.0,0.0,0.0,0.0,0.0,0.0,0.0,0.0,0.0,0.0,0.0,0.0,0.0,0.0,0.0,0.0,0.0,0.0,0.0,0.0,0.0,0.0,0.0,0.0,0.0,0.0,0.0,0.0,0.0,0.0,0.0,0.0,0.0,0.0,0.0,0.0,0.0,0.0,0.0,0.0,0.0,0.0,0.0,0.0,0.0,0.0,0.0,0.0,0.0,0.0,-0.2073,-0.4466,-0.4488,-0.4484,-0.4484,-0.3649,-0.3144,-0.3193,-0.3164,-0.3142,0.0,0.0,0.0,0.0,0.0,0.0,0.0,0.0,0.0,0.0,0.0,0.0,0.0,0.0,0.0,0.0,0.0,0.0,0.0,0.0,0.0,0.0,0.0,0.0,0.0,0.0,0.0,0.0,0.0317,0.086,0.1711,0.0,0.0,0.0,0.0,0.0,0.0,0.0,0.0,0.0,0.0,-0.0,-0.0,0.0625,0.1059,0.1061,0.075,0.1136,0.2776,0.3032,0.2997,0.2891,0.0,0.0,0.0,0.0,0.0,0.0,0.0,0.0,0.0,0.0,0.0,0.0,0.0,0.0,0.0,0.0,0.0,0.0,0.0,0.0,0.0,0.0,0.0,0.0,0.0,0.0,0.0,0.1277,0.0,0.0,0.1716,0.0,0.0,0.0,0.0,0.0,0.0,0.0,0.0,0.0,0.0,0.0,0.0,0.0,0.0,0.0,0.0,0.0,0.0,0.0,0.0,0.0,0.0,-0.2076,-0.4451,-0.45,-0.4497,-0.4438,-0.1623,-0.0,-0.0,-0.0,-0.0,-0.0,0.0,0.0,0.0,0.0,0.0,0.0,0.0,0.0,0.0,0.0,0.0,0.0,0.0,0.0,0.0,0.0,0.0,0.0,0.0,0.0,0.0,0.0,0.0,0.0,0.0,0.0,-0.0,0.1028,0.1746,0.0,0.0,0.0,0.0,0.0,0.0,0.0,0.0,0.0,0.0,-0.0,-0.0,-0.0,0.1978,0.3402,0.3441,0.2494,0.1784,0.1897,0.3013,0.3733,0.0,0.0,0.0,0.0,0.0,0.0,0.0,0.0,0.0,0.0,0.0,0.0,0.0,0.0,0.0,0.0,0.0,0.0,0.0,0.0,0.0,0.0,0.0,0.0,0.0,0.0,0.0,0.1995,0.167,0.0,0.0,0.0,0.0,0.0,0.0,0.0,0.0,0.0,0.0,0.0,-0.0,-0.0,0.0,0.0,0.0,0.0,0.0,0.0,0.0,0.0,0.0,0.0,0.0,0.0,-0.1673,-0.4336,-0.4465,-0.4507,-0.4452,-0.1568,-0.0,-0.0,-0.0,-0.0,-0.0,0.0,0.0,0.0,0.0,0.0,0.0,0.0,0.0,0.0,0.0,0.0,0.0,0.0,0.0,0.0,0.0,0.0,0.0,0.0,0.0,0.0,0.0,0.0,0.0,0.0,0.1045,0.0,0.0,0.0,0.0,0.0,0.0,0.0,0.0,0.0,0.0,0.0,0.2535,0.1366,0.119,0.1212,0.1185,0.205,0.2975,0.0,0.0,0.0,0.0,0.0,0.0,0.0,0.0,0.0,0.0,0.0,0.0,0.0,0.0,0.5277,0.4662,0.4306,0.4091,0.4024,0.0,0.0,0.0,0.0,0.0,0.0,0.0,0.0,0.0,0.0,0.0,0.0,0.0,0.0,0.2486,0.0,0.2395,0.0,0.0,0.0,0.0,0.0,0.0,0.0,0.0,0.3137,0.2115,-0.0,-0.0,-0.0,0.0,-0.0,-0.0,0.0,0.0,0.0,0.0,0.0,0.0,0.0,0.0,-0.0971,-0.2852,-0.2943,-0.2919,-0.286,-0.1008,-0.0,-0.0,-0.0,-0.0,-0.0,-0.0,-0.0,0.0,0.0,0.0,0.0,0.0,0.0,0.0,0.0,0.0,0.0,0.0,0.0,0.0,0.0,0.0,0.0,0.0,0.0,0.0,0.0,0.0,0.0,0.0,0.1637,0.0,0.0,0.0,0.0,0.0,0.0,0.0,0.0,0.0,0.3462,0.3581,0.3324,0.2539,0.2503,0.2538,0.2592,0.0,0.0,0.0,0.0,0.0,0.0,0.0,0.3513,0.384,0.4022,0.4073,0.4062,0.4674,0.5118,0.4907,0.0,0.0,0.4986,0.4724,0.4534,0.4357,0.499,0.5408,0.5099,0.519,0.5181,0.0,0.0,0.0,0.0,0.0,0.0,0.0,0.0,0.3145,0.2997,0.0,0.2786,0.0,0.0,0.0,0.0,0.0,0.1762,0.0,0.0,0.3487,0.2803,-0.0,-0.0,-0.0,-0.0,-0.0,-0.0,-0.0,-0.0,0.0,0.0,0.0,0.0,0.0,0.0,-0.0,-0.0,-0.0,-0.0,-0.0,-0.0,-0.0,-0.0,-0.0,-0.0,-0.0,-0.0,-0.0,-0.0,-0.0,0.0,0.0,0.0,0.0,0.0,0.0,0.0,0.0,0.0,0.0,0.0,0.0,0.0,0.0,0.0,0.0,0.0,0.0,0.0,0.0,0.285,0.0,0.0,0.0,0.0,0.0,0.0,0.0,0.0,0.0,0.0,0.428,0.3983,0.3625,0.3596,0.0,0.0,0.0,0.0,0.4197,0.4185,0.4104,0.3999,0.3999,0.3955,0.4031,0.4494,0.0,0.0,0.4558,0.4755,0.4755,0.418,0.446,0.4965,0.5694,0.5262,0.4886,0.4892,0.5158,0.5542,0.5972,0.5568,0.5112,0.4694,0.0,0.0,0.0,0.0,0.3907,0.402,0.4287,0.4287,0.4168,0.3999,0.427,0.0,0.0,0.0,0.0,0.0,0.0,0.2027,0.2383,0.1666,0.0845,-0.0,-0.0,-0.0,-0.0,-0.0,-0.0,-0.0,-0.0,-0.0,-0.0,0.0,0.0,0.0,0.0,-0.0,-0.0,-0.0,-0.0,-0.0,-0.0,-0.0,-0.0,-0.0,-0.0,-0.0,-0.0,-0.0,-0.0,-0.0,0.0,0.0,0.0,0.0,0.0,0.0,0.0,0.0,0.0,0.0,0.0,0.0,0.0,0.0,0.0,0.0,0.0,0.0,0.0,0.1875,0.2404,0.2542,0.0,0.0,0.0,0.0,0.0,0.0,0.0,0.0,0.0,0.4311,0.4334,0.4175,0.0,0.0,0.3922,0.3932,0.4017,0.4084,0.4066,0.4242,0.0,0.4353,0.3975,0.4065,0.5224,0.5321,0.5329,0.5413,0.5586,0.5644,0.5396,0.4234,0.3802,0.518,0.5062,0.4787,0.5107,0.5009,0.499,0.562,0.5912,0.5839,0.5828,0.5016,0.5339,0.5204,0.4714,0.4579,0.473,0.5024,0.4996,0.4921,0.4857,0.5042,0.5177,0.5206,0.3839,0.0,0.0,0.0,0.1274,0.1605,0.0489,-0.0,-0.0,-0.0,-0.0,-0.0,-0.0,-0.0,-0.0,-0.0,-0.0,-0.0,0.0,0.0,-0.0,-0.0,-0.0,-0.0,-0.0,-0.0,-0.0,-0.0,-0.0,-0.0,-0.0,-0.0,-0.0,-0.0,-0.0,-0.0,-0.0,-0.0,0.0,0.0,0.0,0.0,0.0,0.0,0.0,0.0,0.0,0.0,0.0,0.1939,0.2282,0.0,0.0,0.0,0.1329,0.1769,0.209,0.2621,0.0,0.0,0.0,0.0,0.0,0.0,0.0,0.3197,0.3136,0.3151,0.3404,0.4069,0.444,0.434,0.4123,0.3747,0.3279,0.0,0.3978,0.3416,0.3453,0.3584,0.3615,0.3772,0.4403,0.5765,0.5819,0.5745,0.5962,0.6074,0.5521,0.413,0.3865,0.4363,0.528,0.5057,0.4383,0.3533,0.4359,0.5385,0.5836,0.61,0.5892,0.6261,0.628,0.6283,0.5891,0.522,0.522,0.5304,0.5497,0.55,0.5434,0.5425,0.5251,0.5403,0.5686,0.4627,0.0,-0.0,-0.0,-0.0,-0.0,-0.0,-0.0,-0.0,-0.0,-0.0,-0.0,-0.0,-0.0,-0.0,-0.0,-0.0,-0.0,-0.0,-0.0,-0.0,-0.0,-0.0,-0.0,-0.0,-0.0,-0.0,-0.0,-0.0,-0.0,-0.0,-0.0,-0.0,-0.0,-0.0,-0.0,-0.0,-0.0,-0.0,0.0,0.0,0.0,0.0,0.0,0.0,0.0,0.0,0.0,0.0,0.0,0.0,0.0,0.0,0.0,0.1946,0.0,0.3824,0.3226,0.0,0.0,0.0,0.2258,0.2178,0.2407,0.2693,0.2973,0.0,0.0,0.2159,0.3247,0.416,0.4312,0.4186,0.3615,0.2502,0.3346,0.3621,0.2174,0.2018,0.2039,0.209,0.3049,0.4168,0.5197,0.5632,0.5582,0.5906,0.6268,0.4628,0.1724,0.3459,0.552,0.4975,0.4706,0.3942,0.0702,0.3042,0.5648,0.5801,0.5401,0.4856,0.6261,0.6321,0.63,0.6219,0.5993,0.5993,0.6013,0.6122,0.6047,0.6098,0.6046,0.5898,0.5681,0.5467,0.5166,0.3228,-0.0,-0.0,-0.0,-0.0,-0.0,-0.0,-0.0,-0.0,-0.0,-0.0,-0.0,-0.0,-0.0,-0.0,-0.0,-0.0,-0.0,-0.0,-0.0,-0.0,-0.0,-0.0,-0.0,-0.0,-0.0,-0.0,-0.0,-0.0,-0.0,-0.0,-0.0,-0.0,-0.0,-0.0,-0.0,-0.0,-0.0,-0.0,0.0,0.0,0.0,0.0,0.0,0.0,0.0,0.0,0.0,0.1262,0.1716,0.0,0.2943,0.0,0.1594,0.228,0.2928,0.3233,0.0,0.0,0.1874,0.1432,0.1858,0.1722,0.1747,0.205,0.3409,0.4196,0.3867,0.2216,0.1468,0.2578,0.3642,0.429,0.3986,0.2193,0.0917,-0.0,-0.0,0.0546,-0.0,0.0779,-0.0,0.146,0.271,0.3728,0.3824,0.5263,0.5921,0.4807,0.275,0.1728,-0.0,0.1258,-0.0,0.0236,0.0863,0.2026,0.3493,0.2575,0.1809,0.6261,0.6261,0.6261,0.6224,0.6162,0.623,0.6261,0.6261,0.6261,0.629,0.6291,0.6215,0.4986,0.3161,0.4973,0.3653,-0.0,-0.0,-0.0,-0.0,-0.0,-0.0,-0.0,-0.0,-0.0,-0.0,-0.0,-0.0,-0.0,-0.0,-0.0,-0.0,-0.0,-0.0,-0.0,-0.0,-0.0,-0.0,-0.0,-0.0,-0.0,-0.0,-0.0,-0.0,-0.0,-0.0,-0.0,-0.0,-0.0,-0.0,-0.0,-0.0,-0.0,-0.0,-0.0,0.0,0.0,0.0,0.0,0.0,0.0,0.0,0.0,0.0,0.0,0.0,0.2848,0.1415,0.1102,0.1127,0.1451,0.2113,0.2717,0.308,0.2483,0.1849,0.1094,0.0856,0.0802,0.095,0.187,0.2476,0.245,-0.057,-0.2491,-0.167,-0.0,0.1449,0.22,0.0996,-0.0,-0.0,-0.0,-0.0,-0.0,-0.0,-0.0,-0.0,0.0938,0.1721,0.1721,0.2666,0.3461,0.3304,0.1571,-0.0,-0.0,-0.0,-0.0,-0.0,-0.0,-0.0,0.1487,0.0782,0.0389,0.6261,0.6261,0.6261,0.6179,0.6071,0.6203,0.6318,0.62,0.6203,0.6227,0.6264,0.5736,0.3452,0.0313,0.3834,0.3477,-0.0,-0.0,-0.0,-0.0,-0.0,-0.0,-0.0,-0.0,-0.0,-0.0,-0.0,-0.0,-0.0,-0.0,-0.0,-0.0,-0.0,-0.0,-0.0,-0.0,-0.0,-0.0,-0.0,-0.0,-0.0,-0.0,-0.0,-0.0,-0.0,-0.0,-0.0,-0.0,-0.0,-0.0,-0.0,-0.0,-0.0,-0.0,-0.0,0.0,-0.0,0.0,0.0,0.0,0.0,0.0,0.0,0.0,0.0,0.1963,0.1821,0.1565,0.0117,-0.058,-0.0056,0.0462,0.1162,0.22,0.2551,0.1892,-0.0145,-0.0147,-0.0,-0.0,-0.0,-0.0,-0.0,-0.3675,-0.6243,-0.5805,-0.4418,-0.2738,-0.1185,-0.0709,-0.0,-0.0,-0.0,-0.0,-0.0,-0.0,-0.0,-0.0,-0.0,-0.0,-0.0,-0.0,-0.0,-0.0,-0.0,-0.0,-0.0,-0.0,-0.0,-0.0,-0.0,-0.0,-0.0,-0.0,-0.0,0.6261,0.6261,0.6261,0.6244,0.622,0.6325,0.6118,0.5888,0.5888,0.6034,0.6041,0.2712,0.0797,0.0078,0.0841,0.0745,-0.0,-0.0,-0.0,-0.0,-0.0,-0.0,-0.0,-0.0,-0.0,-0.0,-0.0,-0.0,-0.0,-0.0,-0.0,-0.0,-0.0,-0.0,-0.0,0.0,0.0,0.0,-0.0,-0.0,-0.0,-0.0,-0.0,-0.0,-0.0,0.0,-0.0,-0.0,-0.0,-0.0,-0.0,0.0,0.0,0.0,0.0,0.0,0.0,0.0,0.0,0.0,0.0,0.0,-0.2069,-0.1097,0.0902,0.0706,0.0387,0.0262,-0.2966,-0.3702,-0.0389,-0.1363,-0.2854,-0.4204,-0.2881,-0.2017,-0.239,-0.1068,-0.0,-0.0,-0.0,-0.0,-0.0,-0.3655,-0.6224,-0.628,-0.5976,-0.5558,-0.5106,-0.3483,-0.192,-0.0,-0.0,-0.0,-0.0,-0.0,-0.0,-0.0,-0.0,-0.0,-0.0,-0.0,-0.0,-0.0,-0.0,-0.0,-0.0,-0.0,-0.0,-0.0,-0.0,-0.0,-0.0,-0.0,-0.0,0.6394,0.6468,0.6318,0.6217,0.0,0.6146,0.5989,0.5788,0.5934,0.6169,0.6043,0.1895,-0.0,-0.0,-0.0,-0.0,-0.0,-0.0,-0.0,-0.0,-0.0,-0.0,-0.0,-0.0,-0.0,-0.0,-0.0,-0.0,-0.0,-0.1816,-0.2674,-0.2633,-0.1775,-0.0913,-0.0,-0.0,-0.0,-0.0,-0.0,-0.0,-0.0,-0.0,-0.0,-0.0,-0.0,0.0,0.0,0.0,0.0,0.0,0.0,0.0,0.0,0.0,0.0,-0.0,-0.0,-0.1312,-0.4203,-0.479,-0.4522,-0.3658,-0.4121,-0.3519,-0.1242,-0.0443,-0.043,-0.1484,-0.4448,-0.5439,-0.3369,-0.3169,-0.3942,-0.5956,-0.5336,-0.4712,-0.4614,-0.3732,-0.2268,-0.0,-0.0,-0.0702,-0.2888,-0.4774,-0.62,-0.6285,-0.6281,-0.6278,-0.6183,-0.5378,-0.3665,-0.0,-0.0,-0.0,-0.0,-0.0,-0.0,-0.0,-0.0,-0.0,-0.0,-0.0,-0.0,-0.0,-0.0,-0.0,-0.2515,-0.1492,-0.0,-0.0,-0.0,-0.0,-0.0,-0.0,-0.0,0.6605,0.6756,0.6515,0.6342,0.6227,0.6153,0.6009,0.5805,0.0,0.0,0.0,0.1792,-0.0,-0.0,-0.0,-0.0,-0.0,-0.0,-0.0,-0.0,-0.0,-0.0,-0.0,-0.0,-0.0,-0.0,-0.0,-0.0,-0.0,-0.3632,-0.5403,-0.5259,-0.3894,-0.2476,-0.1069,-0.0935,-0.0927,-0.0976,-0.097,-0.0783,-0.0467,-0.0195,-0.0,-0.0,-0.0,-0.0,-0.0,-0.0,-0.0239,-0.0829,-0.3184,-0.3376,-0.1015,-0.1937,-0.2037,-0.0929,-0.079,-0.1871,-0.4325,-0.5059,-0.5226,-0.4733,-0.5672,-0.5549,-0.3776,-0.2096,-0.1837,-0.3521,-0.5274,-0.63,-0.6284,-0.4722,-0.4377,-0.6132,-0.6291,-0.6285,-0.6285,-0.6291,-0.4781,-0.1796,-0.0,-0.2338,-0.5559,-0.6197,-0.6274,-0.6274,-0.6268,-0.6261,-0.6264,-0.619,-0.5004,-0.0,-0.0,-0.0,-0.0,-0.0,-0.102,-0.0,-0.0,-0.047,-0.0,-0.0,-0.0,-0.0,-0.0,-0.0,-0.4095,-0.2986,-0.0863,-0.0,-0.0,-0.0,-0.0,-0.0,-0.0,0.6991,0.7075,0.7034,0.7004,0.69,0.674,0.6499,0.615,0.5712,0.5488,0.5273,0.1666,-0.0,-0.0,-0.0,-0.0,-0.0,-0.0,-0.0,-0.0,-0.0,-0.0,-0.0,-0.0,-0.0,-0.0,-0.0,-0.0,-0.0,-0.3694,-0.5399,-0.5396,-0.5122,-0.4849,-0.4643,-0.4643,-0.4634,-0.4619,-0.464,-0.3872,-0.2322,-0.0816,-0.0,-0.0,-0.0,-0.0,-0.0,-0.0,-0.1188,-0.3714,-0.4267,-0.4268,-0.3904,-0.4013,-0.4072,-0.386,-0.3869,-0.405,-0.4481,-0.5042,-0.541,-0.5437,-0.5834,-0.595,-0.5859,-0.563,-0.5512,-0.5828,-0.6076,-0.6257,-0.6251,-0.5941,-0.587,-0.62,-0.6271,-0.6268,-0.6264,-0.6274,-0.6038,-0.5243,-0.5401,-0.5321,-0.6038,-0.6271,-0.6264,-0.6264,-0.6264,-0.6261,-0.6261,-0.6278,-0.6132,-0.5023,-0.2273,-0.0,-0.0,-0.3215,-0.4714,-0.5442,-0.3765,-0.2189,-0.0,-0.0,-0.0,-0.0,-0.0,-0.0,-0.0,-0.3614,-0.3141,-0.0,-0.0,-0.0,-0.0,-0.0,-0.0,0.7387,0.7366,0.721,0.7058,0.6894,0.6632,0.6406,0.6324,0.6009,0.4559,0.2363,0.0713,-0.0,-0.0,-0.0,-0.0,-0.0,-0.0,-0.0,-0.0,-0.0,-0.0,-0.0,-0.2323,-0.222,-0.0,-0.0,-0.1039,-0.2944,-0.4672,-0.5382,-0.5376,-0.5379,-0.5376,-0.5376,-0.5376,-0.5376,-0.5376,-0.5387,-0.5022,-0.4213,-0.3385,-0.1989,-0.0,-0.0,-0.0,-0.0,-0.1869,-0.3577,-0.4914,-0.4896,-0.4745,-0.4508,-0.4623,-0.4653,-0.4481,-0.4492,-0.4468,-0.4464,-0.5055,-0.5518,-0.5796,-0.6029,-0.6172,-0.6282,-0.6264,-0.6252,-0.6315,-0.6304,-0.6261,-0.6268,-0.6264,-0.6264,-0.6271,-0.6264,-0.6261,-0.6261,-0.6264,-0.6268,-0.6271,-0.6268,-0.6268,-0.6268,-0.6264,-0.6261,-0.6261,-0.6261,-0.6261,-0.6261,-0.6274,-0.5886,-0.4698,-0.3839,-0.2429,-0.0784,-0.3526,-0.5902,-0.6308,-0.5503,-0.4545,-0.3294,-0.1882,-0.0,-0.0,-0.0,-0.0,-0.0,-0.0,-0.2512,-0.3934,-0.1256,-0.0,-0.0,-0.0,-0.0,0.7699,0.7682,0.7359,0.7177,0.7027,0.678,0.6532,0.6233,0.5265,0.3018,-0.0,-0.0,-0.0,-0.0,-0.0,-0.0,-0.0,-0.0,-0.0,-0.0,-0.0,-0.0,-0.0,-0.4337,-0.4581,-0.1731,-0.1446,-0.2819,-0.5174,-0.5416,-0.542,-0.5476,-0.5446,-0.5393,-0.5389,-0.5426,-0.541,-0.5413,-0.543,-0.5423,-0.5393,-0.5403,-0.3835,-0.0869,-0.0,-0.0,-0.0,-0.3488,-0.5414,-0.5446,-0.5271,-0.4999,-0.4646,-0.483,-0.4892,-0.4709,-0.4665,-0.4684,-0.4885,-0.5358,-0.5766,-0.6057,-0.6235,-0.6291,-0.6318,-0.6261,-0.6261,-0.6261,-0.6257,-0.6261,-0.6261,-0.6261,-0.6261,-0.6261,-0.6261,-0.6261,-0.6261,-0.6261,-0.6261,-0.6261,-0.6261,-0.6261,-0.6261,-0.6261,-0.6261,-0.6261,-0.6261,-0.6261,-0.6261,-0.6271,-0.5485,-0.4538,-0.4545,-0.3368,-0.0782,-0.3519,-0.5889,-0.6288,-0.6207,-0.6048,-0.5422,-0.2979,-0.0,-0.0,-0.0,-0.0,-0.0,-0.0,-0.0,-0.3222,-0.1728,-0.0,-0.0,-0.0,-0.0,0.7908,0.7925,0.7875,0.7908,0.7816,0.7739,0.6973,0.5696,0.2351,-0.0,-0.0,-0.0,-0.0,-0.0,-0.0,-0.0,-0.0,-0.0,-0.0,-0.0,-0.0,-0.0,-0.0,-0.4205,-0.6079,-0.5572,-0.5492,-0.5337,-0.5424,-0.5444,-0.5497,-0.5552,-0.543,-0.543,-0.5419,-0.5414,-0.5424,-0.5424,-0.5428,-0.5436,-0.5376,-0.5386,-0.4439,-0.2544,-0.0802,-0.0,-0.0,-0.3448,-0.5478,-0.5723,-0.5481,-0.5257,-0.4963,-0.5183,-0.5318,-0.5321,-0.5064,-0.5241,-0.5997,-0.6208,-0.6222,-0.6276,-0.6307,-0.6314,-0.6261,-0.6261,-0.6261,-0.6261,-0.6261,-0.6261,-0.6261,-0.6261,-0.6261,-0.6261,-0.6261,-0.6261,-0.6261,-0.6261,-0.6261,-0.6261,-0.6261,-0.6261,-0.6261,-0.6261,-0.6261,-0.6261,-0.6261,-0.6261,-0.6261,-0.6268,-0.6278,-0.5326,-0.3368,-0.1174,-0.0858,-0.3587,-0.5873,-0.6278,-0.6271,-0.6274,-0.5724,-0.4462,-0.2345,-0.0,-0.0,-0.0,-0.0,-0.0,-0.0,-0.0,-0.0,-0.0,-0.0,-0.0,-0.0,0.7965,0.7869,0.6242,0.6559,0.7507,0.4651,0.3019,0.2399,0.0799,-0.0,-0.0,-0.0,-0.0,-0.0,-0.0,-0.0,-0.0,-0.0,-0.0,-0.0,-0.0,-0.0,-0.0,-0.162,-0.3752,-0.611,-0.6311,-0.6141,-0.5947,-0.5766,-0.5671,-0.5676,-0.5603,-0.554,-0.5421,-0.5742,-0.5821,-0.5665,-0.5451,-0.5375,-0.5386,-0.5386,-0.5097,-0.413,-0.1511,-0.1099,-0.3101,-0.484,-0.5648,-0.5557,-0.5641,-0.549,-0.519,-0.5477,-0.5762,-0.5912,-0.5782,-0.5923,-0.6289,-0.6303,-0.6284,-0.6254,-0.6261,-0.6261,-0.6261,-0.6261,-0.6261,-0.6261,-0.6261,-0.6261,-0.6261,-0.6261,-0.6261,-0.6261,-0.6261,-0.6261,-0.6261,-0.6261,-0.6261,-0.6261,-0.6261,-0.6261,-0.6261,-0.6261,-0.6261,-0.6261,-0.6261,-0.6261,-0.6261,-0.6264,-0.6268,-0.6109,-0.4693,-0.3908,-0.3824,-0.4919,-0.6183,-0.6264,-0.6264,-0.6264,-0.6122,-0.5799,-0.4616,-0.3694,-0.1492,-0.0,-0.0,-0.0,-0.0,-0.0,-0.0,-0.0628,-0.3146,-0.3696,-0.2984,0.7982,0.7475,0.4327,0.4031,0.5464,0.1716,-0.0,-0.0,-0.0,-0.0,-0.0,-0.0,-0.0,-0.0,-0.0,-0.0,-0.0,-0.0,-0.0,-0.0,-0.0,-0.0,-0.0,-0.0,-0.2213,-0.5734,-0.6322,-0.6287,-0.6268,-0.5957,-0.5769,-0.5799,-0.5772,-0.5768,-0.5689,-0.612,-0.6187,-0.5941,-0.5637,-0.551,-0.5493,-0.5456,-0.5199,-0.4482,-0.2234,-0.2381,-0.5473,-0.5769,-0.5758,-0.5649,-0.5791,-0.5808,-0.5695,-0.5852,-0.6079,-0.6239,-0.6264,-0.6298,-0.6254,-0.6261,-0.6261,-0.6261,-0.6261,-0.6261,-0.6261,-0.6261,-0.6261,-0.6261,-0.6261,-0.6261,-0.6261,-0.6261,-0.6261,-0.6261,-0.6261,-0.6261,-0.6261,-0.6261,-0.6261,-0.6261,-0.6261,-0.6261,-0.6261,-0.6261,-0.6261,-0.6261,-0.6261,-0.6261,-0.6261,-0.6261,-0.6261,-0.6261,-0.6261,-0.6183,-0.6271,-0.6187,-0.6261,-0.6261,-0.6261,-0.6268,-0.6126,-0.5954,-0.6035,-0.4325,-0.1885,-0.0,-0.0,-0.0,-0.0,-0.0,-0.0,-0.0,-0.4969,-0.5999,-0.5037,0.8002,0.7196,0.2321,-0.0,-0.0,-0.0,-0.0,-0.0,-0.0,-0.0,-0.0,-0.0,-0.0,-0.0,-0.0,-0.0,-0.0,-0.0,-0.0,-0.0,-0.0,-0.0,-0.0,-0.0,-0.2259,-0.604,-0.6025,-0.6136,-0.6268,-0.5967,-0.5874,-0.5989,-0.5888,-0.5959,-0.6159,-0.6238,-0.6247,-0.6212,-0.5979,-0.5761,-0.567,-0.5702,-0.4782,-0.3295,-0.2927,-0.4034,-0.5943,-0.5957,-0.595,-0.6247,-0.6098,-0.6081,-0.6213,-0.6227,-0.6297,-0.6304,-0.6314,-0.6325,-0.6257,-0.6261,-0.6261,-0.6261,-0.6261,-0.6261,-0.6261,-0.6261,-0.6261,-0.6261,-0.6261,-0.6261,-0.6261,-0.6261,-0.6261,-0.6261,-0.6261,-0.6261,-0.6261,-0.6261,-0.6261,-0.6261,-0.6261,-0.6261,-0.6261,-0.6261,-0.6261,-0.6261,-0.6261,-0.6261,-0.6261,-0.6261,-0.6261,-0.6261,-0.6261,-0.6261,-0.6261,-0.6261,-0.6261,-0.6261,-0.6261,-0.6264,-0.5559,-0.5093,-0.5266,-0.4641,-0.1962,-0.0,-0.0,-0.0,-0.0,-0.0,-0.0,-0.0,-0.0,-0.5758,-0.552,0.5967,0.2726,0.0808,-0.0,-0.0,-0.0,-0.0,-0.0,-0.0,-0.0,-0.0,-0.0,-0.0,-0.0,-0.0,-0.0,-0.0,-0.0,-0.0,-0.0,-0.0,-0.0,-0.0,-0.2653,-0.4629,-0.5874,-0.4927,-0.498,-0.6218,-0.6146,-0.6146,-0.62,-0.616,-0.6159,-0.6234,-0.6287,-0.6291,-0.6275,-0.6186,-0.5989,-0.5759,-0.5761,-0.5381,-0.4759,-0.4986,-0.5533,-0.6268,-0.62,-0.6197,-0.6256,-0.6256,-0.6203,-0.6251,-0.6261,-0.6261,-0.6261,-0.6261,-0.6261,-0.6261,-0.6261,-0.6261,-0.6261,-0.6261,-0.6261,-0.6261,-0.6261,-0.6261,-0.6261,-0.6261,-0.6261,-0.6261,-0.6261,-0.6261,-0.6261,-0.6261,-0.6261,-0.6261,-0.6261,-0.6261,-0.6261,-0.6261,-0.6261,-0.6261,-0.6268,-0.6268,-0.6261,-0.6268,-0.6268,-0.6261,-0.6261,-0.6261,-0.6261,-0.6261,-0.6261,-0.6261,-0.6261,-0.6261,-0.6261,-0.6261,-0.6264,-0.5873,-0.4613,-0.4467,-0.3374,-0.1177,-0.0,-0.0,-0.0,-0.0,-0.0,-0.0,-0.0,-0.0,-0.3849,-0.5361,0.3334,-0.0,-0.0,-0.0,-0.0,-0.0,-0.0,-0.0,-0.0,-0.0,-0.0,-0.0,-0.0,-0.0,-0.0,-0.0,-0.0,-0.0,-0.0,-0.0,-0.0,-0.0,-0.0,-0.4333,-0.632,-0.6102,-0.4862,-0.4916,-0.6132,-0.6287,-0.628,-0.6277,-0.6294,-0.6261,-0.6261,-0.6261,-0.628,-0.6273,-0.6263,-0.6204,-0.5959,-0.5952,-0.5919,-0.6009,-0.6191,-0.6273,-0.6273,-0.629,-0.6261,-0.6261,-0.6261,-0.6261,-0.6261,-0.6261,-0.6261,-0.6261,-0.6261,-0.6261,-0.6261,-0.6261,-0.6261,-0.6261,-0.6261,-0.6261,-0.6261,-0.6261,-0.6261,-0.6261,-0.6271,-0.6271,-0.6268,-0.6271,-0.6268,-0.6261,-0.6261,-0.6261,-0.6261,-0.6261,-0.6261,-0.6261,-0.6261,-0.6261,-0.6261,-0.6268,-0.6268,-0.6261,-0.6268,-0.6268,-0.6261,-0.6261,-0.6261,-0.6261,-0.6261,-0.6261,-0.6261,-0.6261,-0.6261,-0.6261,-0.6261,-0.6268,-0.6035,-0.4693,-0.3597,-0.2193,-0.0,-0.0,-0.0,-0.0,-0.0,-0.0,-0.0,-0.0,-0.2906,-0.2195,-0.3773,-0.0,-0.0,-0.0,-0.0,-0.0,-0.0,-0.0,-0.0,-0.0,-0.0,-0.0,-0.0,-0.0,-0.0,-0.0,-0.0,-0.0,-0.0,-0.0,-0.0,-0.0,-0.0,-0.0808,-0.4465,-0.6303,-0.6275,-0.6214,-0.6162,-0.6251,-0.6254,-0.6251,-0.6251,-0.6247,-0.6261,-0.6261,-0.6261,-0.6261,-0.6318,-0.6314,-0.6314,-0.6254,-0.6224,-0.622,-0.6244,-0.6321,-0.6321,-0.6251,-0.6257,-0.6261,-0.6261,-0.6261,-0.6261,-0.6261,-0.6261,-0.6261,-0.6261,-0.6261,-0.6261,-0.6261,-0.6261,-0.6261,-0.6261,-0.6261,-0.6261,-0.6261,-0.6261,-0.6261,-0.6261,-0.6278,-0.6288,-0.6285,-0.6288,-0.6285,-0.6264,-0.6261,-0.6261,-0.6261,-0.6261,-0.6261,-0.6261,-0.6261,-0.6261,-0.6261,-0.6264,-0.6264,-0.6261,-0.6261,-0.6264,-0.6261,-0.6261,-0.6261,-0.6261,-0.6261,-0.6261,-0.6261,-0.6261,-0.6261,-0.6261,-0.6261,-0.6268,-0.6274,-0.5407,-0.5012,-0.3839,-0.188,-0.0,-0.0,-0.0,-0.0,-0.0706,-0.2826,-0.4169,-0.3694,-0.2982,-0.2669,-0.0,-0.0,-0.0,-0.0,-0.0,-0.0,-0.0,-0.0,-0.0,-0.0,-0.0,-0.0,-0.0,-0.0,-0.0,-0.0,-0.0,-0.0,-0.0,-0.0,-0.0,-0.1638,-0.4125,-0.564,-0.6284,-0.6263,-0.6311,-0.6312,-0.6271,-0.6261,-0.6261,-0.6261,-0.6261,-0.6261,-0.6261,-0.6261,-0.6261,-0.6261,-0.6261,-0.6261,-0.6261,-0.6261,-0.6261,-0.6261,-0.6261,-0.6261,-0.6261,-0.6261,-0.6261,-0.6261,-0.6261,-0.6261,-0.6261,-0.6261,-0.6261,-0.6261,-0.6261,-0.6261,-0.6261,-0.6261,-0.6261,-0.6261,-0.6261,-0.6261,-0.6261,-0.6261,-0.6261,-0.6261,-0.6274,-0.6291,-0.6315,-0.6305,-0.6288,-0.6274,-0.6271,-0.6268,-0.6264,-0.6261,-0.6261,-0.6261,-0.6261,-0.6261,-0.6261,-0.6264,-0.6268,-0.6264,-0.6264,-0.6268,-0.6261,-0.6261,-0.6261,-0.6261,-0.6261,-0.6261,-0.6261,-0.6261,-0.6261,-0.6264,-0.6264,-0.5948,-0.6035,-0.6278,-0.5886,-0.5176,-0.3287,-0.2426,-0.219,-0.2034,-0.1721,-0.1329,-0.2579,-0.3368,-0.3849,-0.3534,-0.2981,-0.0,-0.0,-0.0,-0.0,-0.0,-0.0,-0.0,-0.0,-0.0,-0.0,-0.0,-0.0,-0.0,-0.0,-0.0,-0.0,-0.0,-0.0,-0.0,-0.0,-0.1933,-0.3913,-0.6103,-0.632,-0.628,-0.6305,-0.6261,-0.6261,-0.6261,-0.6261,-0.6261,-0.6261,-0.6261,-0.6261,-0.6261,-0.6261,-0.6261,-0.6261,-0.6261,-0.6261,-0.6261,-0.6261,-0.6261,-0.6261,-0.6261,-0.6261,-0.6261,-0.6261,-0.6261,-0.6261,-0.6261,-0.6261,-0.6261,-0.6261,-0.6261,-0.6261,-0.6261,-0.6261,-0.6261,-0.6261,-0.6261,-0.6261,-0.6261,-0.6261,-0.6261,-0.6261,-0.6261,-0.6261,-0.6271,-0.5649,-0.4394,-0.5584,-0.5973,-0.5565,-0.596,-0.6271,-0.6261,-0.6261,-0.6261,-0.6261,-0.6261,-0.6261,-0.6261,-0.6264,-0.6268,-0.6264,-0.6268,-0.6271,-0.6264,-0.6261,-0.6261,-0.6261,-0.6261,-0.6261,-0.6261,-0.6261,-0.6264,-0.6268,-0.6268,-0.5712,-0.5398,-0.6032,-0.6112,-0.5879,-0.454,-0.4467,-0.4309,-0.4309,-0.4073,-0.3673,-0.312,-0.4148,-0.4948,-0.329,-0.0,-0.0,-0.0,-0.0,-0.0,-0.0,-0.0,-0.0,-0.0,-0.0,-0.0,-0.0,-0.0,-0.0,-0.0,-0.0,-0.0,-0.0,-0.0,-0.0,-0.0,-0.3635,-0.6054,-0.6292,-0.6296,-0.6281,-0.6285,-0.6261,-0.6261,-0.6261,-0.6261,-0.6261,-0.6261,-0.6261,-0.6261,-0.6261,-0.6261,-0.6261,-0.6261,-0.6261,-0.6261,-0.6261,-0.6261,-0.6261,-0.6261,-0.6261,-0.6261,-0.6261,-0.6261,-0.6261,-0.6261,-0.6261,-0.6261,-0.6261,-0.6261,-0.6261,-0.6261,-0.6261,-0.6261,-0.6261,-0.6261,-0.6261,-0.6261,-0.6261,-0.6261,-0.6261,-0.6261,-0.6261,-0.6261,-0.6268,-0.4927,-0.2727,-0.4064,-0.5575,-0.4857,-0.5643,-0.6197,-0.6278,-0.6285,-0.6291,-0.6274,-0.6264,-0.6295,-0.6257,-0.6254,-0.625,-0.6322,-0.6322,-0.6302,-0.6261,-0.6261,-0.6261,-0.6261,-0.6261,-0.6261,-0.6261,-0.6261,-0.6261,-0.6264,-0.6268,-0.587,-0.5395,-0.5948,-0.6264,-0.6109,-0.5957,-0.6045,-0.6048,-0.5727,-0.5649,-0.5329,-0.5407,-0.6126,-0.5494,-0.3997,-0.0,-0.0,-0.0,-0.0,-0.0,-0.0,-0.0,-0.0,-0.0,-0.0,-0.0,-0.0,-0.0,-0.0,-0.0,-0.0,-0.0,-0.0,-0.0,-0.0,-0.0,-0.435,-0.6189,-0.6288,-0.6296,-0.6258,-0.6281,-0.6261,-0.6261,-0.6261,-0.6261,-0.6261,-0.6261,-0.6261,-0.6261,-0.6261,-0.6261,-0.6261,-0.6261,-0.6261,-0.6261,-0.6261,-0.6261,-0.6261,-0.6261,-0.6261,-0.6261,-0.6261,-0.6261,-0.6261,-0.6261,-0.6261,-0.6261,-0.6261,-0.6261,-0.6261,-0.6261,-0.6261,-0.6261,-0.6261,-0.6261,-0.6261,-0.6261,-0.6261,-0.6261,-0.6261,-0.6261,-0.6261,-0.6261,-0.6271,-0.5879,-0.4927,-0.5569,-0.597,-0.5883,-0.6048,-0.625,-0.6324,-0.6275,-0.6317,-0.6308,-0.6311,-0.6241,-0.5867,-0.5927,-0.6006,-0.6075,-0.6093,-0.6222,-0.6224,-0.6288,-0.6302,-0.6271,-0.6264,-0.6261,-0.6261,-0.6261,-0.6261,-0.6261,-0.6261,-0.6264,-0.5948,-0.6183,-0.6261,-0.6183,-0.6106,-0.6193,-0.6197,-0.6112,-0.6278,-0.6285,-0.597,-0.5811,-0.6071,-0.5202,-0.3456,-0.0,-0.0,-0.0,-0.0,-0.0,-0.0,-0.0,-0.0,-0.0,-0.0,-0.0,-0.0,-0.0,-0.0,-0.0,-0.0,-0.0,-0.0,-0.0,-0.0,-0.2414,-0.4459,-0.5756,-0.6314,-0.627,-0.6274,-0.6261,-0.6261,-0.6261,-0.6261,-0.6261,-0.6261,-0.6261,-0.6261,-0.6261,-0.6261,-0.6261,-0.6261,-0.6261,-0.6261,-0.6261,-0.6261,-0.6261,-0.6261,-0.6261,-0.6261,-0.6261,-0.6261,-0.6261,-0.6261,-0.6261,-0.6261,-0.6261,-0.6261,-0.6261,-0.6261,-0.6261,-0.6261,-0.6261,-0.6261,-0.6261,-0.6261,-0.6261,-0.6261,-0.6261,-0.6264,-0.6264,-0.6268,-0.6278,-0.6281,-0.6281,-0.6285,-0.6281,-0.6203,-0.6257,-0.6251,-0.6257,-0.5401,-0.556,-0.5959,-0.6207,-0.5439,-0.0,-0.0,-0.4206,-0.4603,-0.4722,-0.5414,-0.6006,-0.6179,-0.628,-0.6277,-0.623,-0.6139,-0.6217,-0.6295,-0.6264,-0.6261,-0.6261,-0.6264,-0.6264,-0.6264,-0.6264,-0.6261,-0.6261,-0.6261,-0.6268,-0.6274,-0.6281,-0.6126,-0.5652,-0.4704,-0.4396,-0.5286,-0.3618,-0.0,-0.0,-0.0,-0.0,-0.0,-0.0,-0.0,-0.0,-0.0,-0.0,-0.0,-0.0,-0.0,-0.0,-0.0,-0.0,-0.0,-0.0,-0.0,-0.0,-0.0,-0.2459,-0.605,-0.6287,-0.6285,-0.6261,-0.6261,-0.6261,-0.6261,-0.6261,-0.6261,-0.6261,-0.6261,-0.6261,-0.6261,-0.6261,-0.6261,-0.6261,-0.6261,-0.6261,-0.6261,-0.6261,-0.6261,-0.6261,-0.6261,-0.6261,-0.6261,-0.6261,-0.6261,-0.6261,-0.6261,-0.6261,-0.6261,-0.6261,-0.6261,-0.6261,-0.6261,-0.6261,-0.6261,-0.6261,-0.6261,-0.6261,-0.6261,-0.6261,-0.6264,-0.6271,-0.6116,-0.5562,-0.597,-0.6048,-0.6278,-0.6278,-0.6295,-0.6247,-0.6284,-0.6286,-0.5997,-0.4575,-0.4044,-0.5254,-0.5515,-0.363,-0.0,-0.0,-0.0759,-0.2577,-0.2801,-0.325,-0.4489,-0.5531,-0.5866,-0.6273,-0.6201,-0.6025,-0.6182,-0.6257,-0.6291,-0.6261,-0.6261,-0.6261,-0.6264,-0.6264,-0.6264,-0.6264,-0.6264,-0.6271,-0.6278,-0.6285,-0.6288,-0.5413,-0.4626,-0.2656,-0.1093,-0.2981,-0.275,-0.0,-0.0,-0.0,-0.0,-0.0,-0.0,-0.0,-0.0,-0.0,-0.0,-0.0,-0.0,-0.0,-0.0,-0.0,-0.0,-0.0,-0.0,-0.0,-0.0,-0.0,-0.0,-0.5537,-0.626,-0.6264,-0.6261,-0.6261,-0.6261,-0.6261,-0.6261,-0.6261,-0.6261,-0.6261,-0.6261,-0.6261,-0.6261,-0.6261,-0.6261,-0.6261,-0.6261,-0.6261,-0.6261,-0.6261,-0.6261,-0.6261,-0.6261,-0.6261,-0.6261,-0.6261,-0.6261,-0.6261,-0.6261,-0.6261,-0.6261,-0.6261,-0.6261,-0.6261,-0.6261,-0.6261,-0.6261,-0.6261,-0.6261,-0.6261,-0.6264,-0.6274,-0.6278,-0.5485,-0.446,-0.4304,-0.4937,-0.6119,-0.6268,-0.6325,-0.6275,-0.626,-0.6319,-0.6163,-0.5778,-0.4171,-0.2372,-0.0,-0.0,-0.0,-0.0,-0.0,-0.0,-0.0,-0.0,-0.2459,-0.4257,-0.5306,-0.5782,-0.5941,-0.5842,-0.6198,-0.627,-0.6315,-0.6308,-0.6315,-0.6322,-0.6325,-0.5921,-0.5783,-0.5918,-0.6274,-0.6281,-0.6064,-0.6291,-0.6295,-0.4945,-0.368,-0.2033,-0.1095,-0.204,-0.0,-0.0,-0.0,-0.0,-0.0,-0.0,-0.0,-0.0,-0.0,-0.0,-0.0,-0.0,-0.0,-0.0,-0.0,-0.0,-0.0,-0.0,-0.0,-0.0,-0.0,-0.0,-0.0,-0.5609,-0.6307,-0.6261,-0.6261,-0.6261,-0.6261,-0.6261,-0.6261,-0.6261,-0.6261,-0.6261,-0.6261,-0.6261,-0.6261,-0.6261,-0.6261,-0.6261,-0.6261,-0.6261,-0.6261,-0.6261,-0.6261,-0.6261,-0.6261,-0.6261,-0.6261,-0.6261,-0.6261,-0.6261,-0.6261,-0.6261,-0.6261,-0.6261,-0.6261,-0.6261,-0.6261,-0.6261,-0.6261,-0.6261,-0.6261,-0.6264,-0.6271,-0.6285,-0.6291,-0.5902,-0.455,-0.3602,-0.313,-0.5811,-0.628,-0.6265,-0.6276,-0.6299,-0.6288,-0.6013,-0.4658,-0.2747,-0.0,-0.0,-0.0,-0.0,-0.0,-0.0,-0.0,-0.0,-0.0,-0.0,-0.2284,-0.4259,-0.5051,-0.5395,-0.5648,-0.6152,-0.628,-0.6257,-0.6284,-0.6255,-0.6278,-0.6298,-0.5642,-0.4988,-0.551,-0.6097,-0.5767,-0.5698,-0.6002,-0.598,-0.5733,-0.4465,-0.2348,-0.0,-0.0,-0.0,-0.0,-0.0,-0.0,-0.0,-0.0,-0.0,-0.0,-0.0,-0.0,-0.0,-0.0,-0.0,-0.0,-0.0,-0.0,-0.0,-0.0,-0.0,-0.0,-0.0,-0.0,-0.4704,-0.5888,-0.6324,-0.6261,-0.6261,-0.6261,-0.6261,-0.6261,-0.6261,-0.6261,-0.6261,-0.6261,-0.6261,-0.6261,-0.6261,-0.6261,-0.6261,-0.6261,-0.6261,-0.6261,-0.6261,-0.6261,-0.6261,-0.6261,-0.6261,-0.6261,-0.6261,-0.6261,-0.6261,-0.6261,-0.6261,-0.6261,-0.6261,-0.6261,-0.6261,-0.6261,-0.6261,-0.6261,-0.6261,-0.6264,-0.6261,-0.6271,-0.6281,-0.6295,-0.6308,-0.6159,-0.5283,-0.409,-0.3142,-0.5852,-0.5683,-0.586,-0.6131,-0.6251,-0.6276,-0.5539,-0.0,-0.0,-0.0,-0.0,-0.0,-0.0,-0.0,-0.0,-0.0,-0.0,-0.0,-0.0,-0.12,-0.3635,-0.4751,-0.5183,-0.5693,-0.6198,-0.6144,-0.6192,-0.6077,-0.6131,-0.5897,-0.5937,-0.5897,-0.5462,-0.5497,-0.5765,-0.543,-0.4597,-0.3851,-0.4309,-0.5488,-0.5488,-0.3679,-0.0,-0.0,-0.0,-0.0,-0.0,-0.0,-0.0,-0.0,-0.0,-0.0,-0.0,-0.0,-0.0,-0.0,-0.0,-0.0,-0.0,-0.0,-0.0,-0.0,-0.0,-0.0,-0.0,-0.0,-0.2813,-0.5924,-0.6294,-0.6268,-0.6261,-0.6261,-0.6261,-0.6261,-0.6261,-0.6261,-0.6261,-0.6261,-0.6261,-0.6261,-0.6261,-0.6261,-0.6261,-0.6261,-0.6261,-0.6261,-0.6261,-0.6261,-0.6261,-0.6261,-0.6261,-0.6261,-0.6261,-0.6261,-0.6261,-0.6261,-0.6261,-0.6261,-0.6261,-0.6261,-0.6261,-0.6261,-0.6261,-0.6261,-0.6268,-0.6271,-0.6278,-0.6122,-0.622,-0.6234,-0.6322,-0.6257,-0.6116,-0.571,-0.5398,-0.6061,-0.4558,-0.4644,-0.5447,-0.5815,-0.5813,-0.509,-0.0,-0.0,-0.0,-0.0,-0.0,-0.0,-0.0,-0.0,-0.0,-0.0,-0.0,-0.0,-0.2701,-0.4706,-0.5142,-0.5059,-0.5656,-0.6244,-0.614,-0.6006,-0.582,-0.5604,-0.4919,-0.5218,-0.599,-0.6048,-0.4931,-0.4737,-0.4676,-0.3671,-0.2437,-0.3679,-0.5649,-0.541,-0.4935,-0.0,-0.0,-0.0,-0.0,-0.0,-0.0,-0.0,-0.0,-0.0,-0.0,-0.0,-0.0,-0.0,-0.0,-0.0,-0.0,-0.0,-0.0,-0.0,-0.0,-0.0,-0.0,-0.0,-0.0,-0.2233,-0.594,-0.6301,-0.6281,-0.6261,-0.6261,-0.6261,-0.6261,-0.6261,-0.6261,-0.6261,-0.6261,-0.6261,-0.6261,-0.6261,-0.6261,-0.6261,-0.6261,-0.6261,-0.6261,-0.6261,-0.6261,-0.6261,-0.6261,-0.6261,-0.6261,-0.6261,-0.6261,-0.6261,-0.6261,-0.6261,-0.6261,-0.6261,-0.6261,-0.6261,-0.6261,-0.6261,-0.6261,-0.6264,-0.6271,-0.6119,-0.5404,-0.5335,-0.5983,-0.6315,-0.6198,-0.6201,-0.6154,-0.5359,-0.3212,-0.2242,-0.2121,-0.2681,-0.0,-0.0,-0.0,-0.0,-0.0,-0.0,-0.0,-0.0,-0.0,-0.0,-0.0,-0.0,-0.0,-0.0,-0.0,-0.397,-0.5692,-0.5681,-0.5589,-0.5791,-0.5855,-0.5022,-0.4977,-0.4939,-0.4794,-0.4097,-0.3957,-0.4459,-0.3773,-0.261,-0.2888,-0.3765,-0.3351,-0.243,-0.4155,-0.5494,-0.5266,-0.4716,-0.353,-0.0,-0.0,-0.0,-0.0,-0.0,-0.0,-0.0,-0.0,-0.0,-0.0,-0.0,-0.0,-0.0,-0.0,-0.0,-0.0,-0.0,-0.0,-0.0,-0.0,-0.0,-0.0,-0.0,-0.225,-0.5245,-0.6278,-0.6261,-0.6261,-0.6261,-0.6261,-0.6261,-0.6261,-0.6261,-0.6261,-0.6261,-0.6261,-0.6261,-0.6261,-0.6261,-0.6261,-0.6261,-0.6261,-0.6261,-0.6261,-0.6261,-0.6261,-0.6261,-0.6261,-0.6261,-0.6261,-0.6261,-0.6261,-0.6261,-0.6261,-0.6261,-0.6261,-0.6261,-0.6261,-0.6261,-0.6261,-0.6261,-0.6264,-0.6271,-0.6197,-0.4295,-0.4616,-0.5652,-0.6162,-0.5899,-0.5314,-0.4792,-0.4493,-0.2609,-0.0763,-0.0,-0.0,-0.0,-0.0,-0.0,-0.0,-0.0,-0.0,-0.0,-0.0,-0.0,-0.0,-0.0,-0.0,-0.0,-0.0,-0.1973,-0.4592,-0.6114,-0.6116,-0.6102,-0.6128,-0.5371,-0.344,-0.3291,-0.3228,-0.3065,-0.2626,-0.2562,-0.2596,-0.0,-0.0,-0.2056,-0.2808,-0.2492,-0.2354,-0.2741,-0.3526,-0.4567,-0.4891,-0.4328,-0.0,-0.0,-0.0,-0.0,-0.0,-0.0,-0.0,-0.0,-0.0,-0.0,-0.0,-0.0,-0.0,-0.0,-0.0,-0.0,-0.0,-0.0,-0.0,-0.0,-0.1439,-0.3185,-0.1853,-0.2729,-0.581,-0.6277,-0.6271,-0.6261,-0.6261,-0.6261,-0.6261,-0.6261,-0.6261,-0.6261,-0.6261,-0.6261,-0.6261,-0.6261,-0.6261,-0.6261,-0.6261,-0.6261,-0.6261,-0.6261,-0.6261,-0.6261,-0.6261,-0.6261,-0.6261,-0.6261,-0.6261,-0.6261,-0.6261,-0.6261,-0.6261,-0.6261,-0.6261,-0.6261,-0.6261,-0.6261,-0.6264,-0.6268,-0.6271,-0.5957,-0.4533,-0.454,-0.5599,-0.6077,-0.4933,-0.0898,-0.0,-0.2275,-0.3057,-0.1758,-0.0,-0.0,-0.0,-0.0,-0.0,-0.0,-0.0,-0.0,-0.0,-0.0,-0.0,-0.0,-0.0,-0.0,-0.0,-0.0,-0.1344,-0.3624,-0.6189,-0.6222,-0.5958,-0.5883,-0.4182,-0.2364,-0.2026,-0.1777,-0.1603,-0.0,-0.0,-0.0,-0.0,-0.0,-0.0,-0.0,-0.2901,-0.253,-0.1492,-0.1802,-0.3061,-0.4487,-0.5686,-0.0,-0.0,-0.0,-0.0,-0.0,-0.0,-0.0,-0.0,-0.0,-0.0,-0.0,-0.0,-0.0,-0.0,-0.0,-0.0,-0.0,-0.0,-0.2537,-0.1277,-0.0855,-0.3396,-0.3316,-0.4435,-0.5804,-0.6267,-0.6261,-0.6261,-0.6261,-0.6261,-0.6261,-0.6261,-0.6261,-0.6261,-0.6261,-0.6261,-0.6261,-0.6261,-0.6261,-0.6261,-0.6261,-0.6261,-0.6261,-0.6261,-0.6261,-0.6261,-0.6261,-0.6261,-0.6261,-0.6261,-0.6261,-0.6261,-0.6261,-0.6261,-0.6261,-0.6261,-0.6261,-0.6261,-0.6261,-0.6261,-0.6261,-0.6264,-0.6268,-0.6197,-0.5413,-0.5526,-0.6152,-0.6057,-0.4583,-0.0419,-0.0,-0.0,-0.0,-0.1091,-0.0,-0.0,-0.0,-0.0,-0.0,-0.0,-0.0,-0.0,-0.0,-0.0,-0.0,-0.0,-0.0,-0.0,-0.0,-0.0,-0.0,-0.1162,-0.378,-0.6218,-0.5746,-0.5333,-0.3057,-0.0891,-0.0975,-0.0891,-0.0804,-0.0,-0.0,-0.0,-0.0,-0.0,-0.0,-0.0,-0.0,-0.3812,-0.3771,-0.282,-0.1721,-0.2901,-0.0,-0.0,-0.0,-0.0,-0.0,-0.0,-0.0,-0.0,-0.0,-0.0,-0.0,-0.0,-0.0,-0.0,-0.0,-0.0,-0.0,-0.0,-0.2046,-0.5805,-0.2991,-0.1842,-0.2812,-0.4379,-0.5901,-0.6324,-0.6302,-0.6261,-0.6261,-0.6261,-0.6261,-0.6261,-0.6261,-0.6261,-0.6261,-0.6261,-0.6261,-0.6261,-0.6261,-0.6261,-0.6261,-0.6261,-0.6261,-0.6261,-0.6261,-0.6261,-0.6261,-0.6261,-0.6261,-0.6261,-0.6261,-0.6261,-0.6261,-0.6261,-0.6261,-0.6261,-0.6261,-0.6261,-0.6261,-0.6261,-0.6261,-0.6261,-0.6261,-0.6264,-0.6278,-0.6257,-0.6099,-0.6163,-0.6167,-0.4525,-0.0,-0.0,-0.0,-0.0,-0.0,-0.0,-0.0,-0.0,-0.0,-0.0,-0.0,-0.0,-0.0,-0.0,-0.0,-0.0,-0.0,-0.0,-0.0,-0.0,-0.0,-0.0,-0.0,-0.2653,-0.5656,-0.5975,-0.5261,-0.3025,-0.1143,-0.0706,-0.0534,-0.0535,-0.0,-0.0,-0.0,-0.0,-0.0,-0.0,-0.0,-0.0,-0.0,-0.6227,-0.4875,-0.3454,-0.1645,-0.0,-0.0,-0.0,-0.0,-0.0,-0.0,-0.0,-0.0,-0.0,-0.0,-0.0,-0.0,-0.0,-0.0,-0.0,-0.0,-0.0,-0.0,-0.2275,-0.6219,-0.5997,-0.5339,-0.5416,-0.6202,-0.6254,-0.627,-0.6281,-0.6261,-0.6261,-0.6261,-0.6261,-0.6261,-0.6261,-0.6261,-0.6261,-0.6261,-0.6261,-0.6261,-0.6261,-0.6261,-0.6261,-0.6261,-0.6261,-0.6261,-0.6261,-0.6261,-0.6261,-0.6261,-0.6261,-0.6261,-0.6261,-0.6261,-0.6261,-0.6261,-0.6261,-0.6261,-0.6261,-0.6261,-0.6261,-0.6261,-0.6261,-0.6261,-0.6261,-0.6268,-0.6308,-0.6261,-0.6254,-0.6309,-0.6152,-0.4046,-0.0,-0.0,-0.0,-0.0,-0.0,-0.0,-0.0,-0.0,-0.0,-0.0,-0.0,-0.0,-0.0,-0.0,-0.0,-0.0,-0.0,-0.0,-0.0,-0.0,-0.0,-0.0,-0.0983,-0.3006,-0.5157,-0.5987,-0.532,-0.3619,-0.2546,-0.2412,-0.2358,-0.2289,-0.1143,-0.0,-0.0,-0.0,-0.0,-0.0,-0.0,-0.0,-0.0,-0.4484,-0.5764,-0.5048,-0.2196,-0.0,-0.0,-0.0,-0.0,-0.0,-0.0,-0.0,-0.0,-0.0,-0.0,-0.0,-0.0,-0.0,-0.0,-0.0,-0.0,-0.0,-0.0,-0.2298,-0.5914,-0.6304,-0.6251,-0.6312,-0.6237,-0.6294,-0.627,-0.6261,-0.6261,-0.6261,-0.6261,-0.6261,-0.6261,-0.6261,-0.6261,-0.6261,-0.6261,-0.6261,-0.6261,-0.6261,-0.6261,-0.6261,-0.6261,-0.6261,-0.6261,-0.6261,-0.6261,-0.6261,-0.6261,-0.6261,-0.6261,-0.6261,-0.6261,-0.6261,-0.6261,-0.6261,-0.6261,-0.6261,-0.6261,-0.6261,-0.6261,-0.6261,-0.6261,-0.6268,-0.6302,-0.6294,-0.6305,-0.6138,-0.5769,-0.4167,-0.2253,-0.0,-0.0,-0.0,-0.0,-0.0,-0.0,-0.0,-0.0,-0.0,-0.0,-0.0,-0.0,-0.0,-0.0,-0.0,-0.0,-0.0,-0.0,-0.0,-0.0,-0.0,-0.0,-0.1863,-0.4037,-0.5129,-0.5946,-0.6317,-0.4691,-0.4283,-0.4057,-0.377,-0.3653,-0.244,-0.096,-0.0,-0.0,-0.0,-0.0,-0.0,-0.0,-0.0,-0.0,-0.0,-0.0,-0.1412,-0.0,-0.0,-0.0,-0.0,-0.0,-0.0,-0.0,-0.0,-0.0,-0.0,-0.0,-0.0,-0.0,-0.0,-0.0,-0.0,-0.0,-0.168,-0.3153,-0.5752,-0.6276,-0.6263,-0.6301,-0.6251,-0.6261,-0.6322,-0.6261,-0.6261,-0.6261,-0.6261,-0.6261,-0.6261,-0.6261,-0.6261,-0.6261,-0.6261,-0.6261,-0.6261,-0.6261,-0.6261,-0.6261,-0.6261,-0.6261,-0.6261,-0.6261,-0.6261,-0.6261,-0.6261,-0.6261,-0.6261,-0.6261,-0.6261,-0.6261,-0.6261,-0.6261,-0.6261,-0.6261,-0.6261,-0.6261,-0.6261,-0.6261,-0.6261,-0.6271,-0.6307,-0.6312,-0.6325,-0.5615,-0.0,-0.0,-0.0,-0.0,-0.0,-0.0,-0.0,-0.0,-0.0,-0.0,-0.0,-0.0,-0.0,-0.0,-0.0,-0.0,-0.0,-0.0,-0.0,-0.0,-0.0,-0.0,-0.0,-0.0,-0.0,-0.2388,-0.5216,-0.594,-0.6135,-0.6328,-0.6182,-0.5358,-0.4453,-0.3223,-0.3183,-0.3391,-0.2277,-0.1242,-0.1404,-0.0,-0.0,-0.0,-0.0,-0.0,-0.0,-0.0,-0.0,-0.0,-0.0,-0.0,-0.0,-0.0,-0.0,-0.0,-0.0,-0.0,-0.0,-0.0,-0.0,-0.0,-0.0,-0.0,-0.0,-0.0,-0.1316,-0.4164,-0.557,-0.5924,-0.6294,-0.6308,-0.6312,-0.6312,-0.6285,-0.6271,-0.6261,-0.6261,-0.6261,-0.6261,-0.6261,-0.6261,-0.6261,-0.6261,-0.6261,-0.6261,-0.6261,-0.6261,-0.6261,-0.6261,-0.6261,-0.6261,-0.6261,-0.6261,-0.6261,-0.6261,-0.6261,-0.6261,-0.6261,-0.6261,-0.6261,-0.6261,-0.6261,-0.6261,-0.6261,-0.6261,-0.6261,-0.6261,-0.6261,-0.6261,-0.6264,-0.6268,-0.6264,-0.6311,-0.602,-0.5729,-0.4056,-0.0,-0.0,-0.0,-0.0,-0.0,-0.0,-0.0,-0.0,-0.0,-0.0,-0.0,-0.0,-0.0,-0.0,-0.0,-0.0,-0.0,-0.0,-0.0,-0.0,-0.0,-0.0,-0.0,-0.0448,-0.1338,-0.2964,-0.5884,-0.6325,-0.6255,-0.6302,-0.6175,-0.5812,-0.4843,-0.3456,-0.265,-0.2869,-0.3312,-0.2884,-0.3509,-0.4951,-0.0,-0.0,-0.0,-0.0,-0.0,-0.0,-0.0,-0.0,-0.0,-0.0,-0.0,-0.0,-0.0,-0.0,-0.0,-0.0,-0.0,-0.0,-0.0,-0.0,-0.0,-0.0,-0.0,-0.0,-0.4687,-0.5462,-0.6309,-0.6284,-0.6291,-0.6261,-0.6261,-0.6261,-0.6261,-0.6261,-0.6261,-0.6261,-0.6261,-0.6261,-0.6261,-0.6261,-0.6261,-0.6261,-0.6261,-0.6261,-0.6261,-0.6261,-0.6261,-0.6261,-0.6261,-0.6261,-0.6261,-0.6261,-0.6261,-0.6261,-0.6261,-0.6261,-0.6261,-0.6261,-0.6261,-0.6261,-0.6261,-0.6261,-0.6261,-0.6261,-0.6261,-0.6261,-0.6261,-0.6261,-0.6318,-0.6267,-0.6297,-0.6281,-0.5521,-0.3766,-0.0,-0.0,-0.0,-0.0,-0.0,-0.0,-0.0,-0.0,-0.0,-0.0,-0.0,-0.0,-0.0,-0.0,-0.0,-0.0,-0.0,-0.0,-0.0,-0.3008,-0.2726,-0.2543,-0.2615,-0.2615,-0.3335,-0.4118,-0.4578,-0.6273,-0.6306,-0.625,-0.6318,-0.6009,-0.4772,-0.4598,-0.3873,-0.2785,-0.2291,-0.2813,-0.3556,-0.4744,-0.5758,-0.4988,-0.4178,-0.3459,-0.3059,-0.3919,-0.0,-0.2349,-0.0,-0.0,-0.0,-0.0,-0.0,-0.0,-0.0,-0.0,-0.0,-0.0,-0.0678,-0.1922,-0.2181,-0.1864,-0.0,-0.0,-0.3816,-0.6323,-0.6702,-0.6306,-0.6281,-0.6261,-0.6261,-0.6261,-0.6261,-0.6261,-0.6261,-0.6261,-0.6261,-0.6261,-0.6261,-0.6261,-0.6261,-0.6261,-0.6261,-0.6261,-0.6261,-0.6261,-0.6261,-0.6261,-0.6261,-0.6261,-0.6261,-0.6261,-0.6261,-0.6261,-0.6261,-0.6261,-0.6261,-0.6261,-0.6261,-0.6261,-0.6261,-0.6261,-0.6261,-0.6261,-0.6261,-0.6261,-0.6261,-0.6261,-0.6271,-0.6318,-0.6264,-0.626,-0.5956,-0.4936,-0.1784,-0.0,-0.0,-0.0,-0.0,-0.0,-0.0,-0.0,-0.0,-0.0,-0.0,-0.0,-0.0,-0.0,-0.0,-0.0,-0.0,-0.0,-0.0,-0.0,-0.5402,-0.5443,-0.515,-0.5196,-0.5247,-0.589,-0.6272,-0.6249,-0.6257,-0.6247,-0.6183,-0.6072,-0.4853,-0.2855,-0.2979,-0.3959,-0.0,-0.0,-0.2705,-0.3519,-0.5035,-0.6247,-0.5556,-0.5305,-0.5836,-0.6058,-0.573,-0.5251,-0.4309,-0.0,-0.0,-0.0,-0.0,-0.0,-0.0,-0.0,-0.0,-0.0,-0.0,-0.2722,-0.6029,-0.6107,-0.4915,-0.3291,-0.5144,-0.6055,-0.6222,-0.6338,-0.6267,-0.6308,-0.6264,-0.6261,-0.6261,-0.6261,-0.6261,-0.6261,-0.6261,-0.6261,-0.6261,-0.6261,-0.6261,-0.6261,-0.6261,-0.6261,-0.6261,-0.6261,-0.6261,-0.6261,-0.6261,-0.6261,-0.6261,-0.6261,-0.6261,-0.6261,-0.6261,-0.6261,-0.6261,-0.6261,-0.6261,-0.6261,-0.6261,-0.6261,-0.6261,-0.6261,-0.6261,-0.6261,-0.6261,-0.6261,-0.6261,-0.6261,-0.6278,-0.6318,-0.6315,-0.5607,-0.4387,-0.1586,-0.0,-0.0,-0.0,-0.0,-0.0,-0.0,-0.0,-0.0,-0.0,-0.0,-0.0,-0.0,-0.0,-0.0,-0.0,-0.0,-0.0,-0.0,-0.5271,-0.5832,-0.6123,-0.6117,-0.604,-0.5837,-0.593,-0.6286,-0.6251,-0.6231,-0.6147,-0.6025,-0.5874,-0.4207,-0.193,-0.0,-0.0,-0.0,-0.0,-0.0,-0.3514,-0.5265,-0.6261,-0.607,-0.6123,-0.6237,-0.6291,-0.62,-0.5724,-0.5179,-0.0,-0.0,-0.0,-0.2749,-0.0,-0.0,-0.0,-0.0,-0.0,-0.3148,-0.5265,-0.6219,-0.63,-0.5817,-0.5432,-0.6019,-0.6273,-0.6321,-0.6307,-0.6254,-0.6291,-0.6261,-0.6261,-0.6261,-0.6261,-0.6261,-0.6261,-0.6261,-0.6261,-0.6261,-0.6261,-0.6261,-0.6261,-0.6261,-0.6261,-0.6261,-0.6261,-0.6261,-0.6261,-0.6261,-0.6261,-0.6261,-0.6261,-0.6261,-0.6261,-0.6261,-0.6261,-0.6261,-0.6261,-0.6261,-0.6261,-0.6261,-0.6261,-0.6261,-0.6261,-0.6261,-0.6261,-0.6261,-0.6261,-0.6261,-0.6271,-0.6302,-0.6311,-0.6267,-0.5905,-0.458,-0.1972,-0.0,-0.0,-0.0,-0.0,-0.0,-0.0,-0.0,-0.0,-0.0,-0.2813,-0.3068,-0.2446,-0.2932,-0.5447,-0.5895,-0.4699,-0.4746,-0.545,-0.5333,-0.5966,-0.6305,-0.6209,-0.6275,-0.6311,-0.6324,-0.6248,-0.6311,-0.6275,-0.6196,-0.5547,-0.5288,-0.3672,-0.0,-0.0,-0.0,-0.0,-0.0,-0.0,-0.2948,-0.5263,-0.6083,-0.5866,-0.5905,-0.6149,-0.621,-0.6274,-0.621,-0.5743,-0.4392,-0.3366,-0.3376,-0.2982,-0.0995,-0.2373,-0.2506,-0.2029,-0.1743,-0.3929,-0.5423,-0.6179,-0.6271,-0.6312,-0.6258,-0.6255,-0.627,-0.6288,-0.6278,-0.6268,-0.6264,-0.6261,-0.6261,-0.6261,-0.6261,-0.6261,-0.6261,-0.6261,-0.6261,-0.6261,-0.6261,-0.6261,-0.6261,-0.6261,-0.6261,-0.6261,-0.6261,-0.6261,-0.6261,-0.6261,-0.6261,-0.6261,-0.6261,-0.6261,-0.6261,-0.6261,-0.6261,-0.6261,-0.6261,-0.6261,-0.6261,-0.6261,-0.6261,-0.6261,-0.6261,-0.6261,-0.6261,-0.6261,-0.6261,-0.6271,-0.6267,-0.6274,-0.6304,-0.6258,-0.6301,-0.5283,-0.0,-0.0,-0.0,-0.0,-0.0,-0.0,-0.0,-0.0,-0.0,-0.3913,-0.5013,-0.6023,-0.4927,-0.3859,-0.4964,-0.6037,-0.6075,-0.5982,-0.59,-0.5618,-0.5807,-0.6058,-0.6314,-0.626,-0.6308,-0.6312,-0.6318,-0.6312,-0.6297,-0.6231,-0.535,-0.4518,-0.2726,-0.0,-0.0,-0.0,-0.0,-0.0,-0.0,-0.2718,-0.5494,-0.5852,-0.5473,-0.5775,-0.6224,-0.621,-0.62,-0.5892,-0.574,-0.5419,-0.4865,-0.5115,-0.4477,-0.216,-0.551,-0.6174,-0.492,-0.3524,-0.3611,-0.4629,-0.617,-0.625,-0.6324,-0.6285,-0.6264,-0.6274,-0.6261,-0.6261,-0.6261,-0.6261,-0.6261,-0.6261,-0.6261,-0.6261,-0.6261,-0.6261,-0.6261,-0.6261,-0.6261,-0.6261,-0.6261,-0.6261,-0.6261,-0.6261,-0.6261,-0.6261,-0.6261,-0.6261,-0.6261,-0.6261,-0.6261,-0.6261,-0.6261,-0.6261,-0.6261,-0.6261,-0.6261,-0.6261,-0.6261,-0.6261,-0.6261,-0.6261,-0.6261,-0.6261,-0.6261,-0.6261,-0.6261,-0.6261,-0.6298,-0.6301,-0.5388,-0.5465,-0.5648,-0.6257,-0.5133,-0.0,-0.0,-0.0,-0.0,-0.0,-0.0,-0.0,-0.4394,-0.4986,-0.4751,-0.5382,-0.6016,-0.5624,-0.5151,-0.558,-0.6248,-0.6258,-0.616,-0.6167,-0.5891,-0.5968,-0.6297,-0.626,-0.6274,-0.6302,-0.6308,-0.6318,-0.6318,-0.6208,-0.6227,-0.5679,-0.4608,-0.3056,-0.0,-0.0,-0.0,-0.0,-0.0,-0.0,-0.4224,-0.5815,-0.5913,-0.5725,-0.5984,-0.6302,-0.597,-0.5165,-0.3826,-0.4144,-0.5808,-0.6217,-0.6227,-0.5824,-0.0539,-0.1795,-0.4925,-0.5999,-0.5587,-0.5533,-0.5758,-0.6247,-0.6287,-0.6302,-0.6264,-0.6261,-0.6261,-0.6261,-0.6261,-0.6261,-0.6261,-0.6261,-0.6261,-0.6261,-0.6261,-0.6261,-0.6261,-0.6261,-0.6261,-0.6261,-0.6261,-0.6261,-0.6261,-0.6261,-0.6261,-0.6261,-0.6261,-0.6261,-0.6261,-0.6261,-0.6261,-0.6261,-0.6261,-0.6261,-0.6261,-0.6261,-0.6261,-0.6261,-0.6261,-0.6261,-0.6261,-0.6261,-0.6261,-0.6261,-0.6261,-0.6261,-0.6261,-0.6261,-0.6325,-0.6245,-0.5988,-0.4362,-0.3496,-0.4295,-0.558,-0.6173,-0.4942,-0.3881,-0.0,-0.0999,-0.1265,-0.3736,-0.5355,-0.5933,-0.6161,-0.5723,-0.5557,-0.5922,-0.6288,-0.6311,-0.6254,-0.6315,-0.6295,-0.6308,-0.625,-0.6257,-0.626,-0.6318,-0.6278,-0.6315,-0.6251,-0.6291,-0.6314,-0.6241,-0.6058,-0.6053,-0.6217,-0.5215,-0.3733,-0.0,-0.0,-0.0,-0.0,-0.0,-0.4401,-0.4937,-0.5537,-0.6015,-0.6208,-0.6325,-0.598,-0.5171,-0.4137,-0.3196,-0.3746,-0.5883,-0.6281,-0.621,-0.6285,-0.0539,-0.1791,-0.487,-0.6282,-0.6312,-0.6308,-0.6317,-0.6297,-0.6298,-0.6261,-0.6261,-0.6261,-0.6261,-0.6261,-0.6261,-0.6261,-0.6261,-0.6261,-0.6261,-0.6261,-0.6261,-0.6261,-0.6261,-0.6261,-0.6261,-0.6261,-0.6261,-0.6261,-0.6261,-0.6261,-0.6261,-0.6261,-0.6261,-0.6261,-0.6261,-0.6261,-0.6261,-0.6261,-0.6261,-0.6261,-0.6261,-0.6261,-0.6261,-0.6261,-0.6261,-0.6261,-0.6261,-0.6261,-0.6261,-0.6261,-0.6261,-0.6261,-0.6285,-0.626,-0.6291,-0.5604,-0.4499,-0.2513,-0.1631,-0.2435,-0.4883,-0.5618,-0.6244,-0.4856,-0.4887,-0.3481,-0.2684,-0.4801,-0.5644,-0.6254,-0.6312,-0.6006,-0.5934,-0.6198,-0.6264,-0.6308,-0.6291,-0.6281,-0.6274,-0.6278,-0.6291,-0.6291,-0.6295,-0.6295,-0.6264,-0.6291,-0.6321,-0.6195,-0.6167,-0.627,-0.6015,-0.5837,-0.5973,-0.6163,-0.5341,-0.4555,-0.0,-0.0,-0.4651,-0.5055,-0.5349,-0.4959,-0.5078,-0.5848,-0.6247,-0.6322,-0.5817,-0.5246,-0.5085,-0.4691,-0.5243,-0.62,-0.6278,-0.6271,-0.6271,-0.1786,-0.3371,-0.5379,-0.6316,-0.6312,-0.6271,-0.6268,-0.6264,-0.6261,-0.6261,-0.6261,-0.6261,-0.6261,-0.6261,-0.6261,-0.6261,-0.6261,-0.6261,-0.6261,-0.6261,-0.6261,-0.6261,-0.6261,-0.6261,-0.6261,-0.6261,-0.6261,-0.6261,-0.6261,-0.6261,-0.6261,-0.6261,-0.6261,-0.6261,-0.6261,-0.6261,-0.6261,-0.6261,-0.6261,-0.6261,-0.6261,-0.6261,-0.6261,-0.6261,-0.6261,-0.6261,-0.6261,-0.6261,-0.6261,-0.6261,-0.6261,-0.6261,-0.6285,-0.6267,-0.6314,-0.5613,-0.274,-0.1611,-0.1284,-0.2088,-0.3976,-0.5249,-0.5965,-0.625,-0.6112,-0.5737,-0.4889,-0.5083,-0.5887,-0.6234,-0.6294,-0.6307,-0.6315,-0.6271,-0.6264,-0.6261,-0.6261,-0.6261,-0.6261,-0.6261,-0.6261,-0.6261,-0.6261,-0.6261,-0.6274,-0.6298,-0.6254,-0.6028,-0.6007,-0.6153,-0.6065,-0.5843,-0.5737,-0.5918,-0.6263,-0.5812,-0.4967,-0.527,-0.5573,-0.5975,-0.6167,-0.5761,-0.5556,-0.594,-0.6278,-0.6288,-0.6288,-0.5954,-0.5876,-0.5718,-0.5954,-0.6271,-0.6268,-0.6264,-0.6261,-0.4331,-0.3305,-0.5372,-0.626,-0.6271,-0.6318,-0.6261,-0.6261,-0.6261,-0.6261,-0.6261,-0.6261,-0.6261,-0.6261,-0.6261,-0.6261,-0.6261,-0.6261,-0.6261,-0.6261,-0.6261,-0.6261,-0.6261,-0.6261,-0.6261,-0.6261,-0.6261,-0.6261,-0.6261,-0.6261,-0.6261,-0.6261,-0.6261,-0.6261,-0.6261,-0.6261,-0.6261,-0.6261,-0.6261,-0.6261,-0.6261,-0.6261,-0.6261,-0.6261,-0.6261,-0.6261,-0.6261,-0.6261,-0.6261,-0.6261,-0.6274,-0.6281,-0.5999,-0.5883,-0.5683,-0.5701,-0.2664,-0.2737,-0.3207,-0.3905,-0.5701,-0.5743,-0.627,-0.627,-0.6202,-0.6195,-0.5756,-0.5756,-0.6271,-0.6271,-0.6308,-0.6308,-0.6264,-0.6264,-0.6261,-0.6261,-0.6261,-0.6261,-0.6261,-0.6261,-0.6261,-0.6261,-0.6261,-0.6261,-0.6261,-0.6308,-0.6321,-0.6016,-0.5135,-0.5569,-0.6175,-0.5924,-0.5594,-0.5885,-0.6247,-0.6296,-0.5861,-0.6166,-0.6277,-0.6249,-0.626,-0.6288,-0.6325,-0.6274,-0.6261,-0.6268,-0.6264,-0.6268,-0.6264,-0.6106,-0.6183,-0.6261,-0.6261,-0.6261,-0.6261]},{"header":{"parameterUnit":"m.s-1","parameterCategory":1,"la1":31.0,"la2":29.5877,"lo1":-88.7671,"lo2":-86.6584,"dy":0.0162,"dx":0.0185,"nx":115,"ny":88,"refTime":"2024-07-14T00:00:00:Z","depth":0,"parameterNumber":3,"parameterNumberName":"V-component_of_WINDS"},"data":[0.0,0.0,0.0,0.0,0.0,0.0,0.0,0.0,0.0,0.0,0.0,0.0,0.0,0.0,0.0,0.0,0.0,0.0,0.0,0.0,0.0,0.0,0.0,0.0,0.0,0.0,0.0,0.0,0.0,0.0,0.0,0.0,0.0,0.0,0.0,0.0,0.0,0.0,0.0,0.0,0.0,0.0,0.0,0.0,0.0,0.0,0.0,0.0,0.0,0.0,0.0,0.0,0.0,0.0,0.0,0.0,0.0,0.0,0.0,0.0,0.0,0.0,0.0,0.0,0.0,0.0,0.0,0.0,0.0,0.0,0.0,0.0,0.0,0.0,0.0,0.0,0.0,0.0,0.0,0.0,0.0,0.0,0.0,0.0,0.0,0.0,0.0,0.0,0.0,0.0,0.0,0.0,0.0,0.0,0.0,0.0,0.0,0.0,0.0,0.0,0.0,0.0,0.0,0.0,0.0,0.0,0.0,0.0,0.0,0.0,0.0,0.0,0.0,0.0,0.0,0.0,0.0,0.0,0.0,0.0,0.0,0.0,0.0,0.0,0.0,0.0,0.0,0.0,0.0,0.0,0.0,0.0,0.0,0.0,0.0,0.0,0.0,0.0,0.0,0.0,0.0,0.0,0.0,0.0,0.0,0.0,0.0,0.0,0.0,0.0,0.0,0.0,0.0,0.0,0.0,0.0,0.0,0.0,0.0,0.0,0.0,0.0,0.0,0.0,0.0,0.0,0.0,0.0,0.0,0.0,0.0,0.0,0.0,0.0,0.0,0.0,0.0,0.0,0.0,0.0,0.0,0.0,0.0,0.0,0.0,0.0,0.0,0.0,0.0,0.0,0.0,0.0,0.0,0.0,0.0,0.0,0.0,0.0,0.0,0.0,0.0,0.0,0.0,0.0,0.0,0.0,0.0,0.0,0.0,0.0,0.0,0.0,0.0,0.0,0.0,0.0,0.0,0.0,0.0,0.0,0.0,0.0,0.0,0.0,0.0,0.0,0.0,0.0,0.0,0.0,0.0,0.0,0.0,0.0,0.0,0.0,0.0,0.0,0.0,0.0,0.0,0.0,0.0,0.0,0.0,0.0,0.0,0.0,0.0,0.0,0.0,0.0,0.0,0.0,0.0,0.0,0.0,0.0,0.0,0.0,0.0,0.0,0.0,0.0,0.0,0.0,0.0,0.0,0.0,0.0,0.0,0.0,0.0,0.0,0.0,0.0,0.0,0.0,0.0,0.0,0.0,0.0,0.0,0.0,0.0,0.0,0.0,0.0,0.0,0.0,0.0,0.0,0.0,0.0,0.0,0.0,0.0,0.0,0.0,0.0,0.0,0.0,0.0,0.0,0.0,0.0,0.0,0.0,0.0,0.0,0.0,0.0,0.0,0.0,0.0,0.0,0.0,0.0,0.0,0.0,0.0,0.0,0.0,0.0,0.0,0.0,0.0,0.0,0.0,0.0,0.0,0.0,0.0,0.0,0.0,0.0,0.0,0.0,0.0,0.0,0.0,0.0,0.0,0.0,0.0,0.0,0.0,0.0,0.0,0.0,0.0,0.0,0.0,0.0,0.0,0.0,0.0,0.0,0.0,0.0,0.0,0.0,0.0,0.0,0.0,0.0,0.0,0.0,0.0,0.0,0.0,0.0,0.0,0.0,0.0,0.0,0.0,0.0,0.0,0.0,0.0,0.0,0.0,0.0,0.0,0.0,0.0,0.0,0.0,0.0,0.0,0.0,0.0,0.0,0.0,0.0,0.0,0.0,0.0,0.0,0.0,0.0,0.0,0.0,0.0,0.0,0.0,0.0,0.0,0.0,0.0,0.0,0.0,0.0,0.0,0.0,0.0,0.0,0.0,0.0,0.0,0.0,0.0,0.0,0.0,0.0,0.0,0.0,0.0,0.0,0.0,0.0,0.0,0.0,0.0,0.0,0.0,0.0,0.0,0.0,0.0,0.0,0.0,0.0,0.0,0.0,0.0,0.0,0.0,0.0,0.0,0.0,0.0,0.0,0.0,0.0,0.0,0.0,0.0,0.0,0.0,0.0,0.0,0.0,0.0,0.0,0.0,0.0,0.0,0.0,0.0,0.0,0.0,0.0,0.0,0.0,0.0,0.0,0.0,0.0,0.0,0.0,0.0,0.0,0.0,0.0,0.0,0.0,0.0,0.0,0.0,0.0,0.0,0.0,0.0,0.0,0.0,0.0,0.0,0.0,0.0,0.0,0.0,0.0,0.0,0.0,0.0,0.0,0.0,0.0,0.0,0.0,0.0,0.0,0.0,0.0,0.0,0.0,0.0,0.0,0.0,0.0,0.0,0.0,0.0,0.0,0.0,0.0,0.0,0.0,0.0,0.0,0.0,0.0,0.0,0.0,0.0,0.0,0.0,0.0,0.0,0.0,0.0,0.0,0.0,0.0,0.0,0.0,0.0,0.0,0.0,0.0,0.0,0.0,0.0,0.0,0.0,0.0,0.0,0.0,0.0,0.0,0.0,0.0,0.0,0.0,0.0,0.0,0.0,0.0,0.0,0.0,0.0,0.0,0.0,0.0,0.0,0.0,0.0,0.0,0.0,0.0,0.0,0.0,0.0,0.0,0.0,0.0,0.0,0.0,0.0,0.0,0.0,0.0,0.0,0.0,0.0,0.0,0.0,0.0,0.0,0.0,0.0,0.0,0.0,0.0,0.0,0.0,0.0,0.0,0.0,0.0,0.0,0.0,0.0,0.0,0.0,0.0,0.0,0.0,0.0,0.0,0.0,0.0,0.0,0.0,0.0,0.0,0.0,0.0,0.0,0.0,0.0,0.0,0.0,0.0,0.0,0.0,0.0,0.0,0.0,0.0,0.0,0.0,0.0,0.0,0.0,0.0,0.0,0.0,0.0,0.0,0.0,0.0,0.0,0.0,0.0,0.0,0.0,0.0,0.0,0.0,0.0,0.0,0.0,0.0,0.0,0.0,0.0,0.0,0.0,0.0,0.0,0.0,0.0,0.0,0.0,0.0,0.0,0.0,0.0,0.0,0.0,0.0,0.0,0.0,0.0,0.0,0.0,0.0,0.0,0.0,0.0,0.0,0.0,0.0,0.0,0.0,0.0,0.0,0.0,0.0,0.0,0.0,0.0,0.0,0.0,0.0,0.0,0.0,0.0,0.0,0.0,0.0,0.0,0.0,0.0,0.0,0.0,0.0,0.0,0.0,0.0,0.0,0.0,0.0,0.0,0.0,0.0,0.0,0.0,0.0,0.0,0.0,0.0,0.0,0.0,0.0,0.0,0.0,0.0,0.0,0.0,0.0,0.0,0.0,0.0,0.0,0.0,0.0,0.0,0.0,0.0,0.0,0.0,0.0,0.0,0.0,0.0,0.0,0.0,0.0,0.0,0.0,0.0,0.0,0.0,0.0,0.0,0.0,0.0,0.0,0.0,0.0,0.0,0.0,0.0,0.0,0.0,0.0,0.0,0.0,0.0,0.0,0.0,0.0,0.0,0.0,0.0,0.0,0.0,0.0,0.0,0.0,0.0,0.0,0.0,0.0,0.0,0.0,0.0,0.0,0.0,0.0,0.0,0.0,0.0,0.0,0.0,0.0,0.0,0.0,0.0,0.0,0.0,0.0,0.0,0.0,0.0,0.0,0.0,0.0,0.0,0.0,0.0,0.0,0.0,0.0,0.0,0.0,0.0,0.0,0.0,0.0,0.0,0.0,0.0,0.0,0.0,0.0,0.0,0.0,0.0,0.0,0.0,0.0,0.0,0.0,0.0,0.0,0.0,0.0,0.0,0.0,0.0,0.0,0.0,0.0,0.0,0.0,0.0,0.0,0.0,0.0,0.0,0.0,0.0,0.0,0.0,0.0,0.0,0.0,0.0,0.0,0.0,0.0,0.0,0.0,0.0,0.0,0.0,0.0,0.0,0.0,0.0,0.0,0.0,0.0,0.0,0.0,0.0,0.0,0.0,0.0,0.0,0.0,0.0,0.0,0.0,0.0,0.0,0.0,0.0,0.0,0.0,0.0,0.0,0.0,0.0,0.0,0.0,0.0,0.0,0.0,0.0,0.0,0.0,0.0,0.0,0.0,0.0,0.0,0.0,0.0,0.0,0.0,0.0,0.0,0.0,0.0,0.0,0.0,0.0,0.0,0.0,0.0,0.0,0.0,0.0,0.0,0.0,0.0,0.0,0.0,0.0,0.0,0.0,0.0,0.0,0.0,0.0,0.0,0.0,0.0,0.0,0.0,0.0,0.0,0.0,0.0,0.0,0.0,0.0,0.0,0.0,0.0,-0.4202,0.0,0.0,0.0,0.0,0.0,0.0,0.0,0.0,0.0,0.0,0.0,0.0,0.0,0.0,0.0,0.0,0.0,0.0,0.0,0.0,0.0,0.0,0.0,0.0,0.0,0.0,0.0,0.0,0.0,0.0,0.0,0.0,0.0,0.0,0.0,0.0,0.0,0.0,0.0,0.0,0.0,0.0,0.0,0.0,0.0,0.0,0.0,0.0,0.0,0.0,0.0,0.0,0.0,0.0,0.0,0.0,0.0,0.0,0.0,0.0,0.0,0.0,0.0,0.0,0.0,0.0,0.0,0.0,0.0,0.0,0.0,0.0,0.0,0.0,0.0,0.0,0.0,0.0,0.0,0.0,0.0,0.0,0.0,0.0,0.0,0.0,0.0,0.0,0.0,0.0,0.0,0.0,0.0,0.0,0.0,0.0,0.0,0.0,0.0,0.0,0.0,0.0,0.0,0.0,0.0,0.0,0.0,0.0,0.0,0.0,-0.4757,-0.4612,-0.4439,-0.4318,-0.4275,0.0,0.0,0.0,0.0,0.0,0.0,0.0,0.0,0.0,0.0,0.0,0.0,0.0,0.0,0.0,0.0,0.0,0.0,0.0,0.0,0.0,0.0,0.0,0.0,0.0,0.0,0.0,0.0,0.0,0.0,0.0,0.0,0.0,0.0,0.0,0.0,0.0,0.0,0.0,0.0,0.0,0.0,0.0,0.0,0.0,0.0,0.0,0.0,0.0,0.0,0.0,0.0,0.0,0.0,0.0,0.0,0.0,0.0,0.0,0.0,0.0,0.0,0.0,0.0,0.0,0.0,0.0,0.0,0.0,0.0,0.0,0.0,0.0,0.0,0.0,0.0,0.0,0.0,0.0,0.0,0.0,0.0,0.0,0.0,0.0,0.0,0.0,0.0,0.0,0.0,0.0,0.0,0.0,0.0,0.0,0.0,0.0,0.0,0.0,0.0,0.0,0.0,0.0,0.0,0.0,0.0,0.0,0.0,0.0,0.0,0.0,0.0,-0.4784,-0.4679,-0.4645,0.0,0.0,0.0,0.0,0.0,0.0,0.0,0.0,0.0,0.0,0.0,0.0,0.0,0.0,0.0,0.0,0.0,0.0,0.0,0.0,0.0,0.0,0.0,0.0,0.0,0.0,0.0,0.0,0.0,0.0,0.0,0.0,0.0,0.0,0.0,0.0,0.0,0.0,0.0,0.0,0.0,0.0,0.0,0.0,0.0,0.0,0.0,0.0,0.0,0.0,0.0,0.0,0.0,0.0,0.0,0.0,0.0,0.0,0.0,0.0,0.0,0.0,0.0,0.0,0.0,0.0,0.0,0.0,0.0,0.0,0.0,0.0,0.0,0.0,0.0,0.0,0.0,0.0,0.0,0.0,0.0,0.0,0.0,0.0,0.0,0.0,0.0,0.0,0.0,0.0,0.0,0.0,0.0,0.0,0.0,0.0,0.0,0.0,0.0,0.0,0.0,0.0,0.0,0.0,0.0,0.0,0.0,0.0,0.0,0.0,-0.5266,-0.5861,-0.5738,0.0,-0.5623,0.0,0.0,0.0,0.0,0.0,0.0,0.0,0.0,0.0,0.0,0.0,0.0,0.0,0.0,0.0,0.0,0.0,0.0,0.0,0.0,0.0,0.0,0.0,0.0,0.0,0.0,0.0,0.0,0.0,0.0,0.0,0.0,0.0,0.0,0.0,0.0,0.0,0.0,0.0,0.0,0.0,0.0,0.0,0.0,0.0,0.0,0.0,0.0,0.0,0.0,0.0,0.0,0.0,0.0,0.0,0.0,0.0,0.0,0.0,0.0,0.0,0.0,0.0,0.0,0.0,0.0,0.0,0.0,0.0,0.0,0.0,0.0,0.0,0.0,0.0,0.0,0.0,0.0,0.0,0.0,0.0,0.0,0.0,0.0,0.0,0.0,0.0,0.0,0.0,0.0,0.0,0.0,0.0,0.0,0.0,0.0,0.0,0.0,0.0,0.0,0.0,0.0,0.0,0.0,0.0,0.0,0.0,0.0,0.0,0.0,-0.5797,-0.6003,-0.5902,-0.5852,0.0,0.0,0.0,0.0,0.0,0.0,0.0,0.0,0.0,0.0,0.0,0.0,0.0,0.0,0.0,0.0,0.0,0.0,0.0,0.0,0.0,0.0,0.0,0.0,0.0,0.0,0.0,0.0,0.0,0.0,0.0,0.0,0.0,0.0,0.0,0.0,0.0,0.0,0.0,0.0,0.0,0.0,0.0,0.0,0.0,0.0,0.0,0.0,0.0,0.0,0.0,0.0,0.0,0.0,0.0,0.0,0.0,0.0,0.0,0.0,0.0,0.0,0.0,0.0,0.0,0.0,0.0,0.0,0.0,0.0,0.0,0.0,0.0,0.0,0.0,0.0,0.0,0.0,0.0,0.0,0.0,0.0,0.0,0.0,0.0,0.0,0.0,0.0,0.0,0.0,0.0,0.0,0.0,0.0,0.0,0.0,0.0,0.0,0.0,0.0,0.0,0.0,0.0,0.0,0.0,0.0,0.0,0.0,0.0,0.0,-0.6042,0.0,-0.638,-0.6331,-0.6186,-0.5969,0.0,0.0,0.0,0.0,0.0,0.0,0.0,0.0,0.0,0.0,0.0,0.0,0.0,0.0,0.0,0.0,0.0,0.0,0.0,0.0,0.0,0.0,0.0,0.0,0.0,0.0,0.0,0.0,0.0,0.0,0.0,0.0,0.0,0.0,0.0,0.0,0.0,0.0,0.0,0.0,0.0,0.0,0.0,0.0,0.0,0.0,0.0,0.0,0.0,0.0,0.0,0.0,0.0,0.0,0.0,0.0,0.0,0.0,0.0,0.0,0.0,0.0,0.0,0.0,0.0,0.0,0.0,0.0,0.0,0.0,0.0,0.0,0.0,0.0,0.0,0.0,0.0,0.0,0.0,0.0,0.0,0.0,0.0,0.0,0.0,0.0,0.0,0.0,0.0,0.0,0.0,0.0,0.0,0.0,0.0,0.0,0.0,0.0,0.0,0.0,0.0,0.0,0.0,0.0,0.0,0.0,0.0,0.0,0.0,-0.6658,-0.6637,-0.7307,-0.734,-0.6945,0.0,0.0,0.0,0.0,0.0,0.0,0.0,0.0,0.0,0.0,0.0,0.0,0.0,0.0,0.0,0.0,0.0,0.0,0.0,0.0,0.0,0.0,0.0,0.0,0.0,0.0,0.0,0.0,0.0,0.0,0.0,0.0,0.0,0.0,0.0,0.0,0.0,0.0,0.0,0.0,0.0,0.0,0.0,0.0,0.0,0.0,0.0,0.0,0.0,0.0,0.0,0.0,0.0,0.0,0.0,0.0,0.0,0.0,0.0,0.0,0.0,0.0,0.0,0.0,0.0,0.0,0.0,0.0,0.0,0.0,0.0,0.0,0.0,0.0,0.0,0.0,0.0,0.0,0.0,0.0,0.0,0.0,0.0,0.0,0.0,0.0,0.0,0.0,0.0,0.0,0.0,0.0,0.0,0.0,0.0,0.0,0.0,0.0,0.0,0.0,0.0,0.0,0.0,0.0,0.0,0.0,0.0,0.0,0.0,-0.5931,-0.6133,-0.686,-0.8078,-0.7185,-0.6731,0.0,0.0,0.0,0.0,0.0,0.0,0.0,0.0,0.0,0.0,0.0,0.0,0.0,0.0,0.0,0.0,0.0,0.0,0.0,0.0,0.0,0.0,0.0,0.0,0.0,0.0,0.0,0.0,0.0,0.0,0.0,0.0,0.0,0.0,0.0,0.0,0.0,0.0,0.0,0.0,0.0,0.0,0.0,0.0,0.0,0.0,0.0,0.0,0.0,0.0,0.0,0.0,0.0,0.0,0.0,0.0,0.0,0.0,0.0,0.0,0.0,0.0,0.0,0.0,0.0,0.0,0.0,0.0,0.0,0.0,0.0,0.0,0.0,0.0,0.0,0.0,0.0,0.0,0.0,0.0,0.0,0.0,0.0,0.0,0.0,0.0,0.0,0.0,0.0,0.0,0.0,0.0,0.0,0.0,0.0,0.0,0.0,0.0,0.0,0.0,0.0,0.0,0.0,0.0,0.0,0.0,0.0,0.0,0.0,-0.5907,0.0,-0.7471,0.0,-0.7241,-0.6653,0.0,0.0,0.0,0.0,0.0,0.0,0.0,0.0,0.0,0.0,0.0,0.0,0.0,0.0,0.0,0.0,0.0,0.0,0.0,0.0,0.0,0.0,0.0,0.0,0.0,0.0,0.0,0.0,0.0,0.0,0.0,0.0,0.0,0.0,0.0,0.0,0.0,0.0,0.0,0.0,0.0,0.0,0.0,0.0,0.0,0.0,0.0,0.0,0.0,0.0,0.0,0.0,0.0,0.0,0.0,0.0,0.0,0.0,0.0,0.0,0.0,0.0,0.0,0.0,0.0,0.0,0.0,0.0,0.0,0.0,0.0,0.0,0.0,0.0,0.0,0.0,0.0,0.0,0.0,0.0,0.0,0.0,0.0,0.0,0.0,0.0,0.0,0.0,0.0,0.0,0.0,0.0,0.0,0.0,0.0,0.0,0.0,0.0,0.0,0.0,0.0,0.0,0.0,0.0,0.0,0.0,0.0,0.0,-0.5929,-0.7491,-0.8356,-0.8414,-0.768,-0.7611,-0.6811,0.0,0.0,0.0,0.0,0.0,0.0,0.0,0.0,0.0,0.0,0.0,0.0,0.0,0.0,0.0,0.0,0.0,0.0,0.0,0.0,0.0,0.0,0.0,0.0,0.0,0.0,0.0,0.0,0.0,0.0,0.0,0.0,0.0,0.0,0.0,0.0,0.0,0.0,0.0,0.0,0.0,0.0,0.0,0.0,0.0,0.0,0.0,0.0,0.0,0.0,0.0,0.0,0.0,0.0,0.0,0.0,0.0,0.0,0.0,0.0,0.0,0.0,0.0,0.0,0.0,0.0,0.0,0.0,0.0,0.0,0.0,0.0,0.0,0.0,0.0,0.0,0.0,0.0,0.0,0.0,0.0,0.0,0.0,0.0,0.0,0.0,0.0,0.0,0.0,0.0,0.0,0.0,0.0,0.0,0.0,0.0,0.0,0.0,0.0,0.0,0.0,0.0,0.0,0.0,0.0,0.0,0.0,0.0,0.0,-0.6715,-0.7554,-0.8433,-0.9245,-0.8212,-0.7618,0.0,0.0,0.0,0.0,0.0,0.0,0.0,0.0,0.0,0.0,0.0,0.0,0.0,0.0,0.0,0.0,0.0,0.0,0.0,0.0,0.0,0.0,0.0,0.0,0.0,0.0,0.0,0.0,0.0,0.0,0.0,0.0,0.0,0.0,0.0,0.0,0.0,0.0,0.0,0.0,0.0,0.0,0.0,0.0,0.0,0.0,0.0,0.0,0.0,0.0,0.0,0.0,0.0,0.0,0.0,0.0,0.0,0.0,0.0,0.0,0.0,0.0,0.0,0.0,0.0,0.0,0.0,0.0,0.0,0.0,0.0,0.0,0.0,0.0,0.0,0.0,0.0,0.0,0.0,0.0,0.0,0.0,0.0,0.0,0.0,0.0,0.0,0.0,0.0,0.0,0.0,0.0,0.0,0.0,0.0,0.0,0.0,0.0,0.0,0.0,0.0,0.0,0.0,0.0,0.0,0.0,0.0,0.0,0.0,-0.8736,-0.9514,-1.0302,-1.105,-1.0057,-0.9141,-0.8425,0.0,0.0,0.0,0.0,0.0,0.0,0.0,0.0,0.0,0.0,0.0,0.0,0.0,0.0,0.0,0.0,0.0,0.0,0.0,0.0,0.0,0.0,0.0,0.0,0.0,0.0,0.0,0.0,0.0,0.0,0.0,0.0,0.0,0.0,0.0,0.0,0.0,0.0,0.0,0.0,0.0,0.0,0.0,0.0,0.0,0.0,0.0,0.0,0.0,0.0,0.0,0.0,0.0,0.0,0.0,0.0,0.0,0.0,0.0,0.0,0.0,0.0,0.0,0.0,0.0,0.0,0.0,0.0,0.0,0.0,0.0,0.0,0.0,0.0,0.0,0.0,0.0,0.0,0.0,0.0,0.0,0.0,0.0,0.0,0.0,0.0,0.0,0.0,0.0,0.0,0.0,0.0,0.0,0.0,0.0,0.0,0.0,0.0,0.0,0.0,0.0,0.0,0.0,0.0,0.0,0.0,0.0,0.0,-1.2969,-1.3859,-1.3953,-1.3124,-1.2853,-1.1244,0.0,0.0,0.0,0.0,0.0,0.0,0.0,0.0,0.0,0.0,0.0,0.0,0.0,0.0,0.0,0.0,0.0,0.0,0.0,0.0,0.0,0.0,0.0,0.0,0.0,0.0,0.0,0.0,0.0,0.0,0.0,0.0,0.0,0.0,0.0,0.0,0.0,0.0,0.0,0.0,0.0,0.0,0.0,0.0,0.0,0.0,0.0,0.0,0.0,0.0,0.0,0.0,0.0,0.0,0.0,0.0,0.0,0.0,0.0,0.0,0.0,0.0,0.0,0.0,0.0,0.0,0.0,0.0,0.0,0.0,0.0,0.0,0.0,0.0,0.0,0.0,0.0,0.0,0.0,0.0,0.0,0.0,0.0,0.0,0.0,0.0,0.0,0.0,0.0,0.0,0.0,0.0,0.0,0.0,0.0,0.0,0.0,0.0,0.0,0.0,0.0,0.0,0.0,0.0,0.0,0.0,0.0,0.0,0.0,-1.6349,-1.8422,-1.8821,-1.7362,-1.4903,-1.3173,0.0,0.0,0.0,0.0,0.0,0.0,0.0,0.0,0.0,0.0,0.0,0.0,0.0,0.0,0.0,0.0,0.0,0.0,0.0,0.0,0.0,0.0,0.0,0.0,0.0,0.0,0.0,0.0,0.0,0.0,0.0,0.0,0.0,0.0,0.0,0.0,0.0,0.0,0.0,0.0,0.0,0.0,0.0,0.0,0.0,0.0,0.0,0.0,0.0,0.0,0.0,0.0,0.0,0.0,0.0,0.0,0.0,0.0,0.0,0.0,0.0,0.0,0.0,0.0,0.0,0.0,0.0,0.0,0.0,0.0,0.0,0.0,0.0,0.0,0.0,0.0,0.0,0.0,0.0,0.0,0.0,0.0,0.0,0.0,0.0,0.0,0.0,0.0,0.0,0.0,0.0,0.0,0.0,0.0,0.0,0.0,0.0,0.0,0.0,0.0,0.0,0.0,0.0,0.0,0.0,0.0,0.0,0.0,-1.5764,-1.7715,-2.1251,-2.2637,-2.1683,-1.8016,-1.5362,0.0,0.0,0.0,0.0,0.0,0.0,0.0,0.0,0.0,0.0,0.0,0.0,0.0,0.0,0.0,0.0,0.0,0.0,0.0,0.0,0.0,0.0,0.0,0.0,0.0,0.0,0.0,0.0,0.0,0.0,0.0,0.0,0.0,0.0,0.0,0.0,0.0,0.0,0.0,0.0,0.0,0.0,0.0,0.0,0.0,0.0,0.0,0.0,0.0,0.0,0.0,0.0,0.0,0.0,0.0,0.0,0.0,0.0,0.0,0.0,0.0,0.0,0.0,0.0,0.0,0.0,0.0,0.0,0.0,0.0,0.0,0.0,0.0,0.0,0.0,0.0,0.0,0.0,0.0,0.0,0.0,0.0,0.0,0.0,0.0,0.0,0.0,0.0,0.0,0.0,0.0,0.0,0.0,0.0,0.0,0.0,0.0,0.0,0.0,0.0,0.0,0.0,0.0,0.0,0.0,0.0,0.0,0.0,-1.7895,-1.8138,-2.2793,-2.5293,-2.5187,-2.1206,-1.7527,0.0,0.0,0.0,0.0,0.0,0.0,0.0,0.0,0.0,0.0,0.0,0.0,0.0,0.0,0.0,0.0,0.0,0.0,0.0,0.0,0.0,0.0,0.0,0.0,0.0,0.0,0.0,0.0,0.0,0.0,0.0,0.0,0.0,0.0,0.0,0.0,0.0,0.0,0.0,0.0,0.0,0.0,0.0,0.0,0.0,0.0,0.0,0.0,0.0,0.0,0.0,0.0,0.0,0.0,0.0,0.0,0.0,0.0,0.0,0.0,0.0,0.0,0.0,0.0,0.0,0.0,0.0,0.0,0.0,0.0,0.0,0.0,0.0,0.0,0.0,0.0,0.0,0.0,0.0,0.0,0.0,0.0,0.0,0.0,0.0,0.0,0.0,0.0,0.0,0.0,0.0,0.0,0.0,0.0,0.0,0.0,0.0,0.0,0.0,0.0,0.0,0.0,0.0,0.0,0.0,0.0,0.0,0.0,-1.8689,-2.0696,-2.3707,-2.5313,-2.5284,-2.1206,-1.8349,0.0,0.0,0.0,0.0,0.0,0.0,0.0,0.0,0.0,0.0,0.0,0.0,0.0,0.0,0.0,0.0,0.0,0.0,0.0,0.0,0.0,0.0,0.0,0.0,0.0,0.0,0.0,0.0,0.0,0.0,0.0,0.0,0.0,0.0,0.0,0.0,0.0,0.0,0.0,0.0,0.0,0.0,0.0,0.0,0.0,0.0,0.0,0.0,-0.8554,0.0,0.0,0.0,0.0,0.0,0.0,0.0,0.0,0.0,0.0,0.0,0.0,0.0,0.0,0.0,0.0,0.0,0.0,0.0,0.0,0.0,0.0,0.0,0.0,0.0,0.0,0.0,0.0,0.0,0.0,0.0,0.0,0.0,0.0,0.0,0.0,0.0,0.0,0.0,0.0,0.0,0.0,0.0,0.0,0.0,0.0,0.0,0.0,0.0,0.0,0.0,0.0,0.0,0.0,0.0,0.0,0.0,0.0,0.0,-1.8943,-2.1446,-2.3985,-2.5313,-2.5187,-2.2364,-1.9826,0.0,0.0,0.0,0.0,0.0,0.0,0.0,0.0,0.0,0.0,0.0,0.0,0.0,0.0,0.0,0.0,0.0,0.0,0.0,0.0,0.0,0.0,0.0,0.0,0.0,0.0,0.0,0.0,0.0,0.0,0.0,0.0,0.0,0.0,0.0,0.0,0.0,0.0,0.0,0.0,0.0,0.0,0.0,0.0,0.0,0.0,0.0,0.0,0.0,0.0,0.0,0.0,0.0,0.0,0.0,0.0,0.0,0.0,0.0,0.0,0.0,0.0,0.0,0.0,0.0,0.0,0.0,0.0,0.0,0.0,0.0,0.0,0.0,0.0,0.0,0.0,0.0,0.0,0.0,0.0,0.0,0.0,0.0,0.0,0.0,0.0,0.0,0.0,0.0,0.0,0.0,0.0,0.0,0.0,0.0,0.0,0.0,0.0,0.0,0.0,0.0,0.0,0.0,0.0,0.0,0.0,0.0,-1.6258,-1.9126,-2.2015,-2.4188,-2.5313,-2.5264,-2.3659,-2.1184,-1.7831,0.0,0.0,0.0,0.0,0.0,0.0,0.0,0.0,0.0,0.0,0.0,0.0,0.0,0.0,0.0,0.0,0.0,0.0,0.0,0.0,0.0,0.0,0.0,0.0,0.0,0.0,0.0,0.0,0.0,0.0,0.0,0.0,0.0,0.0,0.0,0.0,0.0,0.0,-0.8328,-0.9528,0.0,0.0,0.0,0.0,0.0,0.0,0.0,0.0,-1.0527,0.0,0.0,0.0,0.0,0.0,0.0,0.0,0.0,0.0,0.0,0.0,0.0,0.0,0.0,0.0,0.0,0.0,0.0,0.0,0.0,0.0,0.0,0.0,0.0,0.0,0.0,0.0,0.0,0.0,0.0,0.0,0.0,0.0,0.0,0.0,0.0,0.0,0.0,0.0,0.0,0.0,0.0,0.0,0.0,0.0,0.0,0.0,0.0,0.0,0.0,0.0,0.0,0.0,0.0,0.0,0.0,-1.6773,-1.7417,-1.9974,-2.4534,-2.5072,-2.5313,-2.5245,-2.3679,-2.1187,-1.7842,0.0,0.0,0.0,0.0,0.0,0.0,0.0,0.0,0.0,0.0,0.0,0.0,0.0,0.0,0.0,0.0,0.0,0.0,0.0,0.0,0.0,0.0,0.0,0.0,0.0,0.0,0.0,0.0,0.0,0.0,0.0,0.0,0.0,0.0,0.0,0.0,0.0,0.0,0.0,-1.0931,-1.1133,0.0,0.0,0.0,0.0,0.0,0.0,0.0,0.0,-1.2636,0.0,0.0,0.0,0.0,0.0,0.0,0.0,0.0,0.0,0.0,0.0,0.0,0.0,0.0,0.0,0.0,0.0,0.0,0.0,0.0,0.0,0.0,0.0,0.0,0.0,0.0,0.0,0.0,0.0,0.0,0.0,0.0,0.0,0.0,0.0,0.0,0.0,0.0,0.0,0.0,0.0,0.0,0.0,0.0,0.0,0.0,0.0,0.0,0.0,0.0,0.0,0.0,0.0,0.0,0.0,-1.746,-1.8994,-2.1512,-2.513,-2.5313,-2.5313,-2.5245,-2.3228,-2.0747,0.0,0.0,0.0,0.0,0.0,0.0,0.0,0.0,0.0,0.0,0.0,0.0,0.0,0.0,0.0,0.0,0.0,0.0,0.0,0.0,0.0,0.0,0.0,0.0,0.0,0.0,0.0,0.0,0.0,0.0,0.0,0.0,0.0,0.0,0.0,0.0,0.0,0.0,0.0,0.0,-1.2741,-1.3144,-1.5721,0.0,0.0,0.0,0.0,0.0,0.0,-1.3578,-1.3167,0.0,0.0,0.0,0.0,0.0,0.0,0.0,0.0,0.0,0.0,0.0,0.0,0.0,0.0,0.0,0.0,0.0,0.0,0.0,0.0,0.0,0.0,0.0,0.0,0.0,0.0,0.0,0.0,0.0,0.0,0.0,0.0,0.0,0.0,0.0,0.0,0.0,0.0,0.0,0.0,0.0,0.0,0.0,0.0,0.0,0.0,0.0,0.0,0.0,0.0,0.0,0.0,0.0,0.0,0.0,-1.7596,-2.0211,-2.2748,-2.5168,-2.5313,-2.5313,-2.5245,-2.269,-2.0159,0.0,0.0,0.0,0.0,0.0,0.0,0.0,0.0,0.0,0.0,0.0,0.0,0.0,0.0,0.0,0.0,0.0,0.0,0.0,0.0,0.0,0.0,0.0,0.0,0.0,0.0,0.0,0.0,0.0,0.0,0.0,0.0,0.0,0.0,0.0,0.0,0.0,0.0,0.0,0.0,0.0,-1.4914,-1.7126,-1.5679,0.0,0.0,0.0,0.0,-1.6293,-1.5991,0.0,0.0,0.0,0.0,0.0,0.0,0.0,0.0,0.0,0.0,0.0,0.0,0.0,0.0,0.0,0.0,0.0,0.0,0.0,0.0,0.0,0.0,0.0,0.0,0.0,0.0,0.0,0.0,0.0,0.0,0.0,0.0,0.0,0.0,0.0,0.0,0.0,0.0,0.0,0.0,0.0,0.0,0.0,0.0,0.0,0.0,0.0,0.0,0.0,0.0,0.0,0.0,0.0,0.0,0.0,0.0,-1.7596,-2.0222,-2.2729,-2.5149,-2.5313,-2.5313,-2.5245,-2.2144,-1.9619,0.0,0.0,0.0,0.0,0.0,0.0,0.0,0.0,0.0,0.0,0.0,0.0,0.0,0.0,0.0,0.0,0.0,0.0,0.0,0.0,0.0,0.0,0.0,0.0,0.0,0.0,0.0,0.0,0.0,0.0,0.0,0.0,0.0,0.0,0.0,0.0,0.0,0.0,0.0,0.0,0.0,-1.4459,-1.5481,-1.5396,-1.4531,0.0,0.0,-1.8975,-1.9795,-2.0471,0.0,0.0,0.0,0.0,0.0,0.0,0.0,0.0,0.0,0.0,0.0,0.0,0.0,0.0,0.0,0.0,0.0,0.0,0.0,0.0,0.0,0.0,0.0,0.0,0.0,0.0,0.0,0.0,0.0,0.0,0.0,0.0,0.0,0.0,0.0,0.0,0.0,0.0,0.0,0.0,0.0,0.0,0.0,0.0,0.0,0.0,0.0,0.0,0.0,0.0,0.0,0.0,0.0,0.0,0.0,-1.4912,-1.7719,-2.1627,-2.4178,-2.5245,-2.5332,-2.5332,-2.5293,-2.1608,-1.906,0.0,0.0,0.0,0.0,0.0,0.0,0.0,0.0,0.0,0.0,0.0,0.0,0.0,0.0,0.0,0.0,0.0,0.0,0.0,0.0,0.0,0.0,0.0,0.0,0.0,0.0,0.0,0.0,0.0,0.0,0.0,0.0,0.0,0.0,0.0,0.0,0.0,0.0,0.0,0.0,0.0,0.0,-1.6324,-1.707,0.0,0.0,0.0,-1.8886,-1.7779,0.0,0.0,0.0,0.0,0.0,0.0,0.0,0.0,0.0,0.0,0.0,0.0,0.0,0.0,0.0,0.0,0.0,0.0,0.0,0.0,0.0,0.0,0.0,0.0,0.0,0.0,0.0,0.0,0.0,0.0,0.0,0.0,0.0,0.0,0.0,0.0,0.0,0.0,0.0,0.0,0.0,0.0,0.0,0.0,0.0,0.0,0.0,0.0,0.0,0.0,0.0,0.0,0.0,0.0,0.0,0.0,0.0,-1.7757,-2.2729,-2.5332,-2.5332,-2.539,-2.539,-2.5293,-2.1905,0.0,0.0,0.0,0.0,0.0,0.0,0.0,0.0,0.0,0.0,0.0,0.0,0.0,0.0,0.0,0.0,0.0,0.0,0.0,0.0,0.0,0.0,0.0,0.0,0.0,0.0,0.0,-0.6147,0.0,0.0,0.0,0.0,0.0,0.0,0.0,0.0,0.0,0.0,0.0,0.0,0.0,0.0,-1.7832,-1.7383,-1.8828,-1.9805,0.0,0.0,-1.9336,-1.7617,-2.0381,-2.0999,0.0,0.0,0.0,0.0,0.0,0.0,0.0,0.0,0.0,0.0,0.0,0.0,0.0,0.0,0.0,0.0,0.0,0.0,0.0,0.0,0.0,0.0,0.0,0.0,0.0,0.0,0.0,0.0,0.0,0.0,0.0,0.0,0.0,0.0,0.0,0.0,0.0,0.0,0.0,0.0,0.0,0.0,0.0,0.0,0.0,0.0,0.0,0.0,0.0,0.0,0.0,0.0,0.0,0.0,0.0,-1.7805,-2.2767,-2.539,-2.539,-2.5466,-2.5486,-2.5466,-2.364,-2.1144,0.0,0.0,0.0,0.0,0.0,0.0,0.0,0.0,0.0,0.0,0.0,0.0,0.0,0.0,0.0,0.0,0.0,0.0,0.0,0.0,0.0,0.0,0.0,0.0,0.0,0.0,0.0,0.0,0.0,0.0,0.0,0.0,0.0,0.0,0.0,0.0,0.0,0.0,0.0,0.0,0.0,-1.7988,-1.7949,-2.0098,-2.1426,0.0,-2.1191,-2.1914,-2.248,-2.4083,-2.3593,-1.8468,0.0,0.0,0.0,0.0,0.0,0.0,0.0,0.0,0.0,0.0,0.0,0.0,0.0,0.0,0.0,0.0,0.0,0.0,0.0,0.0,0.0,0.0,0.0,0.0,0.0,0.0,0.0,0.0,0.0,0.0,0.0,0.0,0.0,0.0,0.0,0.0,0.0,0.0,0.0,0.0,0.0,0.0,0.0,0.0,0.0,0.0,0.0,0.0,0.0,0.0,0.0,0.0,0.0,-1.6043,-1.7728,-2.2786,-2.539,-2.539,-2.5505,-2.5543,-2.5486,-2.3899,-2.1407,0.0,0.0,0.0,0.0,0.0,0.0,0.0,0.0,0.0,0.0,0.0,0.0,0.0,0.0,0.0,0.0,0.0,0.0,0.0,0.0,0.0,0.0,0.0,0.0,0.0,0.0,0.0,0.0,-1.3124,-1.3825,-1.2771,0.0,0.0,0.0,0.0,0.0,0.0,0.0,0.0,0.0,0.0,-1.8984,-1.9531,-2.1348,0.0,0.0,-2.25,-2.2611,-2.2332,-2.3302,-2.2643,-1.8508,-1.7408,0.0,0.0,0.0,0.0,0.0,0.0,0.0,0.0,0.0,0.0,0.0,0.0,0.0,0.0,0.0,0.0,0.0,0.0,0.0,0.0,0.0,0.0,0.0,0.0,0.0,0.0,0.0,0.0,0.0,0.0,0.0,0.0,0.0,0.0,0.0,0.0,0.0,0.0,0.0,0.0,0.0,0.0,0.0,0.0,0.0,0.0,0.0,0.0,0.0,0.0,0.0,0.0,-1.6294,-1.7747,-2.2825,-2.5428,-2.5428,-2.5561,-2.5608,-2.5543,-2.4444,-2.2358,0.0,0.0,0.0,0.0,0.0,0.0,0.0,0.0,0.0,0.0,0.0,0.0,0.0,0.0,0.0,0.0,0.0,0.0,0.0,0.0,0.0,0.0,0.0,0.0,0.0,0.0,0.0,0.0,-1.4547,-1.5151,-1.4194,0.0,0.0,0.0,0.0,0.0,0.0,0.0,0.0,0.0,0.0,-2.0195,-2.0566,-2.2022,-2.3101,-2.314,-2.2917,-2.2628,-2.221,-2.2649,-2.2023,-1.9059,0.0,0.0,0.0,0.0,0.0,0.0,0.0,0.0,0.0,0.0,0.0,0.0,0.0,0.0,0.0,0.0,0.0,0.0,0.0,0.0,0.0,0.0,0.0,0.0,0.0,0.0,0.0,-0.7628,0.0,0.0,-0.7662,0.0,0.0,0.0,0.0,0.0,0.0,0.0,0.0,0.0,0.0,0.0,0.0,0.0,0.0,0.0,0.0,0.0,0.0,0.0,0.0,0.0,0.0,-1.6904,-1.7852,-2.2882,-2.5505,-2.5495,-2.5613,-2.5684,-2.5684,-2.5586,-2.4355,-2.1816,0.0,0.0,0.0,0.0,0.0,0.0,0.0,0.0,0.0,0.0,0.0,0.0,0.0,0.0,0.0,0.0,0.0,0.0,0.0,0.0,0.0,0.0,0.0,0.0,0.0,0.0,-0.8359,-1.0928,-1.3264,0.0,0.0,0.0,0.0,0.0,0.0,0.0,0.0,0.0,0.0,-1.9648,-2.1543,-2.0762,-2.206,-2.311,-2.3025,-2.2322,-2.2057,-2.2831,-2.2888,-2.2307,0.0,0.0,0.0,0.0,0.0,0.0,0.0,0.0,0.0,0.0,0.0,0.0,0.0,0.0,0.0,0.0,0.0,0.0,0.0,0.0,0.0,0.0,0.0,0.0,0.0,0.0,0.0,-1.1766,-1.1007,0.0,0.0,0.0,0.0,0.0,0.0,0.0,0.0,0.0,0.0,0.0,-1.7988,-1.9453,0.0,0.0,0.0,0.0,0.0,0.0,0.0,0.0,0.0,0.0,0.0,0.0,-1.6988,-1.8061,-2.2968,-2.5563,-2.5572,-2.5636,-2.5703,-2.5703,-2.5664,-2.4492,-2.1973,0.0,0.0,0.0,0.0,0.0,0.0,0.0,0.0,0.0,0.0,0.0,0.0,0.0,0.0,0.0,0.0,0.0,0.0,0.0,0.0,0.0,0.0,0.0,0.0,0.0,-1.1947,0.0,0.0,0.0,0.0,0.0,0.0,0.0,0.0,0.0,0.0,0.0,-1.7217,-1.8935,-2.018,-2.1352,-2.2606,-2.3426,-2.3799,0.0,0.0,0.0,0.0,0.0,0.0,0.0,0.0,0.0,0.0,0.0,0.0,0.0,0.0,-1.919,-1.5995,-1.5142,-1.5403,-1.7091,0.0,0.0,0.0,0.0,0.0,0.0,0.0,0.0,0.0,0.0,0.0,0.0,0.0,0.0,-1.5268,0.0,-1.4709,0.0,0.0,0.0,0.0,0.0,0.0,0.0,0.0,-2.0089,-2.1478,-2.1523,-2.2969,-2.291,0.0,-2.1523,-1.9043,0.0,0.0,0.0,0.0,0.0,0.0,0.0,0.0,-1.7786,-1.8532,-2.3134,-2.5615,-2.5602,-2.5664,-2.5703,-2.5703,-2.5703,-2.4922,-2.3281,-2.0195,-1.7852,0.0,0.0,0.0,0.0,0.0,0.0,0.0,0.0,0.0,0.0,0.0,0.0,0.0,0.0,0.0,0.0,0.0,0.0,0.0,0.0,0.0,0.0,0.0,-1.3829,0.0,0.0,0.0,0.0,0.0,0.0,0.0,0.0,0.0,-1.7811,-1.8425,-1.9345,-2.1058,-2.1554,-2.2278,-2.3667,0.0,0.0,0.0,0.0,0.0,0.0,0.0,-2.1571,-2.1238,-2.1701,-2.2247,-2.2746,-2.4619,-2.6025,-2.5847,0.0,0.0,-1.9106,-1.7943,-1.8355,-2.0279,-1.965,-1.8707,-1.8388,-1.8403,-1.7633,0.0,0.0,0.0,0.0,0.0,0.0,0.0,0.0,-1.8068,-1.8924,0.0,-1.8641,0.0,0.0,0.0,0.0,0.0,-1.9648,0.0,0.0,-2.5623,-2.7239,-2.5898,-2.668,-2.666,-2.584,-2.5781,-2.4473,-2.1934,-1.8691,0.0,0.0,0.0,0.0,0.0,0.0,-1.9238,-1.9434,-2.3457,-2.5605,-2.5605,-2.5664,-2.5703,-2.5703,-2.5703,-2.5684,-2.5586,-2.3281,-2.1562,-2.0586,-1.5859,0.0,0.0,0.0,0.0,0.0,0.0,0.0,0.0,0.0,0.0,0.0,0.0,0.0,0.0,0.0,0.0,0.0,0.0,0.0,0.0,-1.401,0.0,0.0,0.0,0.0,0.0,0.0,0.0,0.0,0.0,0.0,-1.8916,-1.9799,-2.1097,-2.2705,0.0,0.0,0.0,0.0,-2.411,-2.3735,-2.3274,-2.2975,-2.2975,-2.3636,-2.4416,-2.5168,0.0,0.0,-2.5851,-2.6967,-2.8037,-2.7556,-2.856,-2.7802,-2.2836,-2.0346,-1.9595,-2.1621,-2.2121,-2.1625,-2.0658,-2.1336,-2.1089,-2.6621,0.0,0.0,0.0,0.0,-2.2158,-2.309,-2.4947,-2.4312,-2.3639,-2.2975,-2.2489,0.0,0.0,0.0,0.0,0.0,0.0,-2.2605,-2.4199,-2.6295,-2.7643,-2.8437,-2.9355,-2.9316,-2.8496,-2.8476,-2.7793,-2.6465,-2.5469,-2.1914,-1.6055,0.0,0.0,0.0,0.0,-2.0488,-2.125,-2.4141,-2.5664,-2.5664,-2.5703,-2.5703,-2.5703,-2.5703,-2.5703,-2.5703,-2.5,-2.3652,-2.1602,-1.9531,0.0,0.0,0.0,0.0,0.0,0.0,0.0,0.0,0.0,0.0,0.0,0.0,0.0,0.0,0.0,0.0,0.0,0.0,0.0,-1.3779,-1.5617,-1.605,0.0,0.0,0.0,0.0,0.0,0.0,0.0,0.0,0.0,-2.2441,-2.2297,-2.2526,0.0,0.0,-2.3127,-2.259,-2.4002,-2.508,-2.4964,-2.5351,0.0,-2.5669,-2.5829,-2.6032,-2.6263,-2.871,-3.0614,-3.0698,-3.1679,-3.2422,-3.2247,-3.2164,-3.1529,-3.0144,-2.7646,-2.6147,-2.6584,-2.6702,-2.6924,-2.7318,-2.7517,-2.6893,-3.1834,-2.8448,-2.624,-2.5868,-2.6736,-2.6304,-2.7169,-2.8863,-2.8332,-2.7909,-2.7544,-2.6875,-2.5734,-2.4232,-2.2943,0.0,0.0,0.0,-2.5359,-2.7218,-2.8023,-2.8984,-3.0059,-3.0625,-3.0625,-3.0117,-3.0117,-2.9844,-2.9316,-2.8633,-2.5781,-2.0918,0.0,0.0,-1.8594,-2.125,-2.2871,-2.3477,-2.5605,-2.6562,-2.6211,-2.5879,-2.5703,-2.5703,-2.5703,-2.5703,-2.5703,-2.5703,-2.5,-2.3457,-2.1953,-1.9687,0.0,0.0,0.0,0.0,0.0,0.0,0.0,0.0,0.0,0.0,0.0,-0.975,-0.7349,0.0,0.0,0.0,-1.123,-1.5525,-1.643,-1.7283,0.0,0.0,0.0,0.0,0.0,0.0,0.0,-1.9367,-2.1629,-2.354,-2.4609,-2.4647,-2.4861,-2.5592,-2.4974,-2.4342,-2.4094,0.0,-2.6618,-2.6854,-2.7144,-2.7226,-2.7005,-2.7713,-2.8608,-2.966,-3.1399,-3.3,-3.3814,-3.4449,-3.4858,-3.4893,-3.4589,-3.4294,-3.4303,-3.2855,-3.169,-3.162,-3.1516,-3.1338,-3.074,-3.0669,-3.0312,-3.5507,-3.5166,-3.123,-2.9615,-2.9602,-2.9602,-3.0083,-3.0782,-3.0802,-3.1626,-3.2856,-3.138,-3.0641,-3.0311,-2.7286,0.0,-2.6172,-2.7715,-2.8828,-2.9726,-3.041,-3.0781,-3.0898,-3.0918,-3.0918,-3.0918,-3.0918,-3.0918,-3.0801,-2.9277,-2.8066,-2.7207,-2.6406,-2.5098,-2.3477,-2.4883,-2.5723,-2.582,-2.7363,-2.7832,-2.7109,-2.625,-2.5801,-2.582,-2.5723,-2.5703,-2.5703,-2.5703,-2.5703,-2.5625,-2.3457,-2.3281,-2.5293,0.0,0.0,0.0,0.0,0.0,0.0,0.0,0.0,0.0,0.0,0.0,0.0,0.0,0.0,0.0,-1.4302,0.0,-2.0387,-1.9025,0.0,0.0,0.0,-1.8063,-2.0726,-2.243,-2.3184,-2.2579,0.0,0.0,-2.5985,-2.6934,-2.7835,-2.8425,-2.7594,-2.7005,-2.7229,-2.7748,-2.8462,-2.9255,-2.8855,-2.8266,-2.8126,-2.9629,-3.166,-3.3763,-3.4583,-3.475,-3.529,-3.5545,-3.5756,-3.5896,-3.5927,-3.5867,-3.5966,-3.5746,-3.5996,-3.5755,-3.5671,-3.468,-3.2077,-3.185,-3.2017,-3.5507,-3.5397,-3.4408,-3.3967,-3.3987,-3.3987,-3.4103,-3.4282,-3.4295,-3.4147,-3.3859,-3.3449,-3.2634,-3.1403,-3.0067,-2.9472,-2.9551,-3.0019,-3.0371,-3.0586,-3.0781,-3.0879,-3.0898,-3.0918,-3.0918,-3.0918,-3.0918,-3.0918,-3.0879,-3.0488,-2.9824,-2.9004,-2.8769,-2.7148,-2.4277,-2.5156,-2.6016,-2.668,-2.7109,-2.7539,-2.7949,-2.7129,-2.6699,-2.6699,-2.6055,-2.5703,-2.5703,-2.5703,-2.5703,-2.5684,-2.5117,-2.5078,-2.5586,-1.9414,0.0,0.0,0.0,0.0,0.0,0.0,0.0,0.0,0.0,-1.1081,-0.7582,0.0,-1.4629,0.0,-1.3991,-1.926,-2.1166,-2.1003,0.0,0.0,-2.0893,-2.1848,-2.5009,-2.6272,-2.6661,-2.6052,-2.7268,-2.8501,-2.9375,-2.982,-3.057,-3.1868,-2.966,-2.7875,-2.792,-2.8666,-3.0005,-3.1758,-3.1641,-3.1265,-3.1309,-3.2471,-3.3848,-3.5204,-3.5424,-3.5469,-3.5635,-3.5747,-3.5862,-3.591,-3.595,-3.5974,-3.5996,-3.6013,-3.6016,-3.6015,-3.5947,-3.5685,-3.4688,-3.465,-3.4523,-3.5507,-3.5507,-3.5507,-3.5295,-3.4949,-3.5334,-3.5507,-3.5507,-3.5507,-3.5224,-3.4787,-3.4801,-3.4386,-3.3602,-3.2789,-3.2058,-3.1387,-3.1445,-3.1269,-3.0918,-3.0918,-3.0918,-3.0918,-3.0918,-3.0918,-3.0918,-3.0918,-3.0918,-3.0918,-3.0918,-3.0664,-3.0176,-3.0176,-2.9023,-2.6836,-2.6797,-2.7109,-2.7559,-2.7578,-2.7988,-2.8809,-2.7637,-2.6816,-2.6406,-2.5586,-2.4766,-2.4043,-2.4004,-2.3828,-2.3437,-2.3437,-2.3418,-2.334,-1.918,-1.6035,0.0,0.0,0.0,0.0,0.0,0.0,0.0,0.0,0.0,0.0,0.0,-1.7484,-1.3186,-1.9402,-2.3469,-2.2903,-2.3558,-2.4321,-2.5085,-2.521,-2.6439,-2.9472,-3.0183,-3.0614,-3.1079,-3.1703,-3.2366,-3.2975,-3.2632,-3.2561,-3.3259,-3.168,-3.016,-2.9606,-3.0433,-3.1836,-3.3144,-3.3027,-3.293,-3.3437,-3.4394,-3.5215,-3.5703,-3.5827,-3.5838,-3.5838,-3.5878,-3.5947,-3.5962,-3.5981,-3.6016,-3.6016,-3.6016,-3.6016,-3.6016,-3.6016,-3.5957,-3.5848,-3.5831,-3.5662,-3.5507,-3.5507,-3.5507,-3.5045,-3.443,-3.518,-3.5378,-3.5161,-3.518,-3.5315,-3.5526,-3.5714,-3.585,-3.5838,-3.5005,-3.3786,-3.2383,-3.2266,-3.1797,-3.1074,-3.0957,-3.0918,-3.0918,-3.0918,-3.0918,-3.0918,-3.0918,-3.0918,-3.0918,-3.0918,-3.084,-3.0723,-3.0723,-3.0293,-2.9453,-2.8672,-2.8281,-2.8281,-2.8398,-2.8828,-2.9551,-2.7891,-2.6582,-2.5723,-2.4844,-2.3613,-2.1992,-2.2012,-2.166,-2.082,-2.0859,-2.0977,-2.1035,-1.8633,-1.6875,0.0,-1.3769,0.0,0.0,0.0,0.0,0.0,0.0,0.0,0.0,-1.792,-1.8485,-1.988,-2.6816,-2.9525,-2.5488,-2.648,-2.8023,-2.9606,-2.9911,-3.0938,-3.3203,-3.3652,-3.4316,-3.582,-3.5996,-3.5976,-3.5801,-3.4964,-3.4101,-3.3782,-3.3558,-3.2953,-3.1931,-3.2512,-3.3301,-3.3613,-3.373,-3.4082,-3.4726,-3.5449,-3.5957,-3.5996,-3.5996,-3.6016,-3.5996,-3.5996,-3.6016,-3.6016,-3.5996,-3.6016,-3.6016,-3.6016,-3.6016,-3.6016,-3.6016,-3.5996,-3.5996,-3.5976,-3.6016,-3.5507,-3.5507,-3.5507,-3.5411,-3.5276,-3.5416,-3.4699,-3.3391,-3.3391,-3.4218,-3.5624,-3.6501,-3.6534,-3.584,-3.5048,-3.4132,-3.3144,-3.25,-3.2129,-3.1934,-3.123,-3.0918,-3.0918,-3.0918,-3.0918,-3.0918,-3.0918,-3.0918,-3.0918,-3.0918,-3.0547,-2.9863,-2.9844,-2.9414,-2.8594,0.0,0.0,0.0,-2.9004,-2.9434,-2.9531,-2.791,-2.6582,-2.5723,-2.4844,0.0,-2.2031,-2.2578,-2.2539,-2.1738,-2.2285,0.0,0.0,0.0,0.0,0.0,0.0,0.0,0.0,0.0,0.0,0.0,-1.8518,-1.7935,-1.7966,-1.7974,-1.9723,-2.3983,-2.946,-3.1875,-2.9724,-2.9734,-3.0335,-3.1399,-3.2117,-3.2985,-3.4174,-3.4945,-3.5605,-3.5918,-3.5898,-3.584,-3.5801,-3.5516,-3.5295,-3.5166,-3.5239,-3.509,-3.4685,-3.3845,-3.3813,-3.5019,-3.5293,-3.5508,-3.5723,-3.5898,-3.6016,-3.6016,-3.6016,-3.6016,-3.6016,-3.6016,-3.6016,-3.6016,-3.6016,-3.6016,-3.6016,-3.6016,-3.6016,-3.6016,-3.6016,-3.6016,-3.6016,-3.6016,-3.6016,-3.6733,-3.668,-3.5834,-3.5257,0.0,-3.4853,-3.4404,-3.3686,-3.4533,-3.59,-3.7623,-3.7726,-3.7812,-3.7773,-3.6113,-3.4863,-3.3965,-3.2754,-3.2187,-3.2168,-3.1738,-3.1758,-3.2129,-3.1738,-3.1543,-3.1523,-3.1094,-3.0859,-3.0801,-3.0786,-3.0567,-3.01,-3.0104,-2.9869,-2.9453,-2.9434,-2.9277,-2.8945,-2.9375,-2.9805,-3.0176,-2.8965,-2.7871,-2.6992,-2.5723,0.0,0.0,0.0,0.0,0.0,0.0,0.0,0.0,0.0,0.0,-2.0488,-1.9668,-1.937,-1.9773,-2.0543,-2.1742,-2.3427,-2.4301,-2.3902,-2.1879,-2.2554,-2.4625,-2.832,-3.2155,-3.3863,-3.2737,-3.2914,-3.3303,-3.3776,-3.4176,-3.4622,-3.5049,-3.5507,-3.5807,-3.5898,-3.5801,-3.5735,-3.5704,-3.5658,-3.5617,-3.5641,-3.5622,-3.5603,-3.552,-3.494,-3.4866,-3.5703,-3.5918,-3.5996,-3.6016,-3.6016,-3.5996,-3.6016,-3.6016,-3.6016,-3.6016,-3.6016,-3.6016,-3.6016,-3.6016,-3.5996,-3.5967,-3.5985,-3.5976,-3.5957,-3.5976,-3.6016,-3.6016,-3.6016,-3.6016,-3.844,-3.8315,-3.6949,-3.5968,-3.5315,-3.5347,-3.5432,-3.5644,0.0,0.0,0.0,-3.908,-3.9258,-3.9726,-3.7656,-3.6211,-3.5312,-3.3789,-3.3027,-3.2871,-3.2715,-3.291,-3.3359,-3.2734,-3.2344,-3.2148,-3.1445,-3.0957,-3.0703,-3.0684,-3.0641,-3.0606,-3.0613,-3.0603,-3.0606,-3.0611,-3.0337,-2.9808,-2.9632,-2.9912,-3.0563,-2.9784,-2.8926,-2.8066,-2.668,-2.5137,-2.3477,-2.2715,-2.1952,-2.1097,-2.099,-2.102,-2.1128,-2.1083,-2.1152,-2.1288,-2.1294,-2.1932,-2.3333,-2.4323,-2.5685,-2.7545,-2.9876,-2.9939,-2.6865,-2.8203,-3.0041,-3.2151,-3.4264,-3.5282,-3.4749,-3.5271,-3.565,-3.5688,-3.568,-3.5641,-3.5641,-3.568,-3.5716,-3.5756,-3.5723,-3.5666,-3.5604,-3.5597,-3.5584,-3.5584,-3.5545,-3.5507,-3.5526,-3.5559,-3.5607,-3.5801,-3.5937,-3.6016,-3.6016,-3.5957,-3.5942,-3.5957,-3.5957,-3.5934,-3.5976,-3.5996,-3.6016,-3.6016,-3.6016,-3.5976,-3.5939,-3.5931,-3.5966,-3.5918,-3.5957,-3.6016,-3.6016,-3.6016,-3.6016,-4.0158,-4.0123,-3.9892,-3.9719,-3.9638,-3.9745,-3.9904,-3.9959,-3.88,-3.8438,-3.8744,-4.018,-4.0469,-3.9883,-3.9512,-3.8867,-3.8008,-3.7051,-3.6191,-3.543,-3.4687,-3.4023,-3.3398,-3.3281,-3.2871,-3.2226,-3.1953,-3.1445,-3.0762,-3.0637,-3.0621,-3.0602,-3.0609,-3.0614,-3.0607,-3.0607,-3.0549,-3.0452,-2.9718,-2.9414,-2.9499,-2.8777,-2.7988,-2.7129,-2.6953,-2.6016,-2.4297,-2.4141,-2.3662,-2.2805,-2.2748,-2.3026,-2.3645,-2.3666,-2.4013,-2.472,-2.4778,-2.4868,-2.5091,-2.6557,-2.8495,-3.0833,-3.2667,-3.2904,-3.1232,-3.1929,-3.294,-3.3917,-3.4905,-3.5488,-3.5449,-3.5502,-3.5554,-3.5617,-3.5565,-3.5545,-3.5526,-3.5584,-3.5605,-3.5612,-3.5608,-3.5601,-3.5605,-3.5565,-3.5526,-3.5526,-3.5526,-3.5507,-3.5507,-3.5603,-3.5688,-3.5742,-3.5885,-3.5996,-3.5976,-3.5852,-3.5804,-3.5879,-3.5818,-3.5792,-3.5918,-3.5976,-3.5996,-3.6016,-3.6016,-3.5996,-3.5976,-3.5893,-3.5898,-3.5937,-3.5976,-3.6016,-3.6016,-3.6016,-3.6016,-4.1893,-4.1777,-4.0893,-4.0543,-4.065,-4.1287,-4.1619,-4.1691,-4.1442,-4.0801,-4.0067,-4.0834,-4.0976,-4.0547,-3.9629,-3.8984,-3.8535,-3.7207,-3.6367,-3.5996,-3.5586,-3.5195,-3.4785,-3.4296,-3.3873,-3.3457,-3.2422,-3.1741,-3.1288,-3.08,-3.0525,-3.0487,-3.0506,-3.0487,-3.0487,-3.0487,-3.0487,-3.0487,-3.0167,-3.0012,-2.9979,-2.971,-2.9366,-2.8965,-2.8613,-2.8066,-2.7266,-2.6732,-2.6281,-2.5885,-2.5789,-2.5917,-2.6237,-2.6217,-2.639,-2.6776,-2.721,-2.7431,-2.7412,-2.9036,-3.0898,-3.2872,-3.3763,-3.4134,-3.3895,-3.4216,-3.4576,-3.4922,-3.5301,-3.5507,-3.5545,-3.5526,-3.5526,-3.5565,-3.5526,-3.5507,-3.5507,-3.5526,-3.5545,-3.5565,-3.5545,-3.5545,-3.5545,-3.5526,-3.5507,-3.5507,-3.5507,-3.5507,-3.5507,-3.5584,-3.565,-3.5688,-3.5771,-3.5855,-3.5909,-3.5803,-3.5746,-3.5776,-3.5751,-3.5728,-3.5845,-3.5908,-3.5996,-3.6016,-3.6016,-3.5996,-3.5957,-3.5918,-3.5928,-3.5918,-3.5974,-3.5996,-3.6016,-3.6016,-3.6016,-4.3662,-4.3566,-4.2274,-4.1771,-4.1994,-4.2806,-4.3062,-4.2988,-4.3668,-4.3156,-4.1855,-4.1562,-4.1367,-4.1055,-3.9766,-3.9199,-3.9004,-3.7793,-3.707,-3.6875,-3.668,-3.6484,-3.6211,-3.5321,-3.4797,-3.4468,-3.3113,-3.2221,-3.1769,-3.1114,-3.0737,-3.0667,-3.0494,-3.0583,-3.096,-3.0775,-3.0679,-3.0698,-3.0794,-3.0756,-3.0583,-3.0641,-3.0679,-3.0632,-3.0137,-2.9863,-2.9805,-2.8931,-2.8514,-2.8687,-2.8441,-2.8352,-2.853,-2.848,-2.8469,-2.852,-2.9042,-2.9573,-2.9995,-3.1184,-3.2699,-3.4353,-3.448,-3.4787,-3.5378,-3.5507,-3.5507,-3.5507,-3.5488,-3.5507,-3.5507,-3.5507,-3.5507,-3.5507,-3.5507,-3.5507,-3.5507,-3.5507,-3.5507,-3.5507,-3.5507,-3.5507,-3.5507,-3.5507,-3.5507,-3.5507,-3.5507,-3.5507,-3.5507,-3.5565,-3.5635,-3.5669,-3.5728,-3.5799,-3.5851,-3.5725,-3.5669,-3.5661,-3.5655,-3.5663,-3.5743,-3.5853,-3.5937,-3.5957,-3.5996,-3.5976,-3.5937,-3.5957,-3.5957,-3.593,-3.5974,-3.6016,-3.6016,-3.6016,-3.6016,-4.543,-4.5526,-4.5238,-4.543,-4.5486,-4.5637,-4.5306,-4.4776,-4.486,-4.4355,-4.3398,-4.2637,-4.1914,-4.125,-4.1016,-4.0879,-4.0879,-4.0781,-4.0195,-3.9375,-3.873,-3.7949,-3.7129,-3.6202,-3.538,-3.4692,-3.4191,-3.3226,-3.1985,-3.1684,-3.1576,-3.1487,-3.0794,-3.1191,-3.2382,-3.1927,-3.1569,-3.1569,-3.1588,-3.1229,-3.0487,-3.0544,-3.0617,-3.0617,-3.0614,-3.0586,-3.0605,-2.9683,-2.9555,-3.0145,-2.9574,-2.9437,-3.0062,-3.0163,-3.016,-3.0179,-3.0263,-3.0906,-3.2359,-3.2697,-3.3569,-3.5147,-3.532,-3.5359,-3.5507,-3.5507,-3.5507,-3.5507,-3.5507,-3.5507,-3.5507,-3.5507,-3.5507,-3.5507,-3.5507,-3.5507,-3.5507,-3.5507,-3.5507,-3.5507,-3.5507,-3.5507,-3.5507,-3.5507,-3.5507,-3.5507,-3.5507,-3.5507,-3.5507,-3.5545,-3.5603,-3.5639,-3.5799,-3.586,-3.5751,-3.5621,-3.5573,-3.5603,-3.5565,-3.5584,-3.5637,-3.5699,-3.5783,-3.5937,-3.5976,-3.5996,-3.5996,-3.6016,-3.5996,-3.5976,-3.5996,-3.6016,-3.6016,-3.5996,-3.5996,-4.5757,-4.5794,-4.5866,-4.594,-4.6092,-4.6192,-4.6053,-4.5777,-4.5774,-4.5273,-4.4492,-4.4082,-4.3183,-4.1894,-4.1426,-4.1191,-4.1191,-4.1191,-4.0723,-3.9922,-3.9512,-3.8926,-3.8047,-3.7113,-3.6468,-3.6028,-3.4903,-3.3961,-3.3301,-3.2699,-3.216,-3.1782,-3.1775,-3.2242,-3.2837,-3.2564,-3.2193,-3.1725,-3.1723,-3.128,-3.0544,-3.0544,-3.0871,-3.137,-3.1448,-3.1465,-3.1488,-3.1446,-3.1628,-3.1922,-3.159,-3.1537,-3.1865,-3.1877,-3.1866,-3.1898,-3.2378,-3.3167,-3.4351,-3.4428,-3.4749,-3.5468,-3.5507,-3.5507,-3.5507,-3.5507,-3.5507,-3.5507,-3.5507,-3.5507,-3.5507,-3.5507,-3.5507,-3.5507,-3.5507,-3.5507,-3.5507,-3.5507,-3.5507,-3.5507,-3.5507,-3.5507,-3.5507,-3.5507,-3.5507,-3.5507,-3.5507,-3.5507,-3.5507,-3.5526,-3.5545,-3.5553,-3.5649,-3.5685,-3.5635,-3.556,-3.552,-3.5526,-3.5526,-3.5526,-3.563,-3.5605,-3.5659,-3.5904,-3.5985,-3.6016,-3.6016,-3.6016,-3.6016,-3.6016,-3.5996,-3.5991,-3.5956,-3.5924,-3.5911,-4.5853,-4.5899,-4.5988,-4.6074,-4.6162,-4.6257,-4.6289,-4.6289,-4.6289,-4.5918,-4.5371,-4.5098,-4.4336,-4.3086,-4.2012,-4.1426,-4.1211,-4.1191,-4.0859,-4.0254,-4.0019,-3.9551,-3.8887,-3.7969,-3.7532,-3.7257,-3.5853,-3.4768,-3.4236,-3.3359,-3.2718,-3.2474,-3.2737,-3.3134,-3.3544,-3.3429,-3.2979,-3.2449,-3.2384,-3.2069,-3.1557,-3.1345,-3.1488,-3.1894,-3.1953,-3.204,-3.2274,-3.2718,-3.3077,-3.3313,-3.3269,-3.3365,-3.3583,-3.3615,-3.3615,-3.3665,-3.4216,-3.4826,-3.5468,-3.5507,-3.5507,-3.5507,-3.5507,-3.5507,-3.5507,-3.5507,-3.5507,-3.5507,-3.5507,-3.5507,-3.5507,-3.5507,-3.5507,-3.5507,-3.5507,-3.5507,-3.5507,-3.5507,-3.5507,-3.5507,-3.5507,-3.5507,-3.5507,-3.5507,-3.5507,-3.5507,-3.5507,-3.5507,-3.5507,-3.5507,-3.5507,-3.5507,-3.5507,-3.552,-3.5565,-3.554,-3.5507,-3.5507,-3.5507,-3.5545,-3.5649,-3.5579,-3.5586,-3.5873,-3.5966,-3.6016,-3.6016,-3.6016,-3.6016,-3.6016,-3.5996,-3.5976,-3.5927,-3.5849,-3.5839,-4.5969,-4.6082,-4.6211,-4.6269,-4.6289,-4.6289,-4.6289,-4.6289,-4.6289,-4.625,-4.6074,-4.5391,-4.4961,-4.4668,-4.3105,-4.1953,-4.1289,-4.1211,-4.1152,-4.0996,-4.0312,-3.9902,-3.9766,-3.8828,-3.8312,-3.8138,-3.6993,-3.5707,-3.4236,-3.3417,-3.3314,-3.3968,-3.3391,-3.3795,-3.493,-3.4499,-3.412,-3.3928,-3.391,-3.3968,-3.3884,-3.3185,-3.2482,-3.2018,-3.1858,-3.2268,-3.2865,-3.2942,-3.332,-3.412,-3.4147,-3.4487,-3.5238,-3.5315,-3.5262,-3.5301,-3.5359,-3.5416,-3.5488,-3.5507,-3.5507,-3.5507,-3.5507,-3.5507,-3.5507,-3.5507,-3.5507,-3.5507,-3.5507,-3.5507,-3.5507,-3.5507,-3.5507,-3.5507,-3.5507,-3.5507,-3.5507,-3.5507,-3.5507,-3.5507,-3.5507,-3.5507,-3.5507,-3.5507,-3.5507,-3.5507,-3.5507,-3.5507,-3.5507,-3.5507,-3.5507,-3.5507,-3.5507,-3.5507,-3.5507,-3.5507,-3.5507,-3.5507,-3.5507,-3.5526,-3.5604,-3.5673,-3.5767,-3.5853,-3.5942,-3.5996,-3.6016,-3.6016,-3.6016,-3.6016,-3.6016,-3.5976,-3.5918,-3.5849,-3.5867,-4.61,-4.6228,-4.6282,-4.6289,-4.6289,-4.6289,-4.6289,-4.6289,-4.6289,-4.6289,-4.6269,-4.5957,-4.5527,-4.4961,-4.4355,-4.3301,-4.1992,-4.1445,-4.1191,-4.1152,-4.0859,-4.0723,-4.0566,-3.9168,-3.8394,-3.8164,-3.6801,-3.5433,-3.4384,-3.4416,-3.4416,-3.4288,-3.4493,-3.493,-3.5353,-3.5205,-3.4787,-3.4274,-3.4211,-3.3968,-3.3513,-3.3096,-3.3041,-3.3334,-3.336,-3.3511,-3.3819,-3.4288,-3.4705,-3.5032,-3.5032,-3.518,-3.5449,-3.5507,-3.5507,-3.5507,-3.5507,-3.5507,-3.5507,-3.5507,-3.5507,-3.5507,-3.5507,-3.5507,-3.5507,-3.5507,-3.5507,-3.5507,-3.5507,-3.5507,-3.5507,-3.5507,-3.5507,-3.5507,-3.5507,-3.5507,-3.5507,-3.5507,-3.5507,-3.5507,-3.5507,-3.5507,-3.5507,-3.5545,-3.5545,-3.5507,-3.5545,-3.5545,-3.5507,-3.5507,-3.5507,-3.5507,-3.5507,-3.5507,-3.5507,-3.5507,-3.5507,-3.5507,-3.5507,-3.5526,-3.5573,-3.564,-3.5737,-3.5857,-3.5957,-3.5996,-3.6016,-3.6016,-3.6016,-3.6016,-3.6016,-3.5976,-3.5918,-3.5868,-3.5871,-4.6227,-4.6289,-4.6289,-4.6289,-4.6289,-4.6289,-4.6289,-4.6289,-4.6289,-4.6289,-4.6289,-4.6289,-4.5976,-4.543,-4.5137,-4.4414,-4.3183,-4.2129,-4.1445,-4.123,-4.1191,-4.1191,-4.0957,-3.9568,-3.8805,-3.8524,-3.6927,-3.554,-3.4776,-3.5205,-3.5166,-3.471,-3.5243,-3.5507,-3.5507,-3.5507,-3.5166,-3.4691,-3.4634,-3.4307,-3.3795,-3.3757,-3.4,-3.452,-3.4666,-3.4691,-3.4691,-3.5224,-3.5507,-3.5507,-3.5507,-3.5507,-3.5507,-3.5507,-3.5507,-3.5507,-3.5507,-3.5507,-3.5507,-3.5507,-3.5507,-3.5507,-3.5507,-3.5507,-3.5507,-3.5507,-3.5507,-3.5507,-3.5565,-3.5565,-3.5545,-3.5565,-3.5545,-3.5507,-3.5507,-3.5507,-3.5507,-3.5507,-3.5507,-3.5507,-3.5507,-3.5507,-3.5507,-3.5545,-3.5545,-3.5507,-3.5545,-3.5545,-3.5507,-3.5507,-3.5507,-3.5507,-3.5507,-3.5507,-3.5507,-3.5507,-3.5507,-3.5507,-3.5507,-3.5545,-3.5586,-3.5649,-3.5718,-3.5851,-3.5937,-3.5996,-3.6016,-3.6016,-3.6016,-3.5996,-3.5976,-3.5937,-3.5918,-3.589,-3.5896,-4.6289,-4.6289,-4.6289,-4.6289,-4.6289,-4.6289,-4.6289,-4.6289,-4.6289,-4.6289,-4.6289,-4.6289,-4.625,-4.6074,-4.5449,-4.5,-4.4512,-4.3223,-4.209,-4.1387,-4.1308,-4.125,-4.1125,-3.9966,-3.9243,-3.9069,-3.7635,-3.6337,-3.5449,-3.5468,-3.5449,-3.5449,-3.543,-3.5507,-3.5507,-3.5507,-3.5507,-3.5378,-3.5359,-3.5359,-3.5468,-3.5295,-3.5276,-3.5411,-3.5397,-3.5397,-3.5449,-3.5488,-3.5507,-3.5507,-3.5507,-3.5507,-3.5507,-3.5507,-3.5507,-3.5507,-3.5507,-3.5507,-3.5507,-3.5507,-3.5507,-3.5507,-3.5507,-3.5507,-3.5507,-3.5507,-3.5507,-3.5507,-3.5603,-3.5661,-3.5641,-3.5661,-3.5641,-3.5526,-3.5507,-3.5507,-3.5507,-3.5507,-3.5507,-3.5507,-3.5507,-3.5507,-3.5507,-3.5526,-3.5526,-3.5507,-3.5507,-3.5526,-3.5507,-3.5507,-3.5507,-3.5507,-3.5507,-3.5507,-3.5507,-3.5507,-3.5507,-3.5507,-3.5507,-3.5545,-3.5584,-3.5647,-3.5665,-3.5771,-3.5869,-3.5918,-3.5918,-3.5918,-3.5937,-3.593,-3.5905,-3.5891,-3.5904,-3.5892,-3.5917,-4.6289,-4.6289,-4.6289,-4.6289,-4.6289,-4.6289,-4.6289,-4.6289,-4.6289,-4.6289,-4.6289,-4.6289,-4.6289,-4.625,-4.5976,-4.5547,-4.498,-4.4355,-4.3418,-4.2246,-4.2012,-4.1686,-4.0965,-3.9502,-3.8059,-3.6934,-3.6252,-3.5795,-3.5565,-3.5507,-3.5507,-3.5507,-3.5507,-3.5507,-3.5507,-3.5507,-3.5507,-3.5507,-3.5507,-3.5507,-3.5507,-3.5507,-3.5507,-3.5507,-3.5507,-3.5507,-3.5507,-3.5507,-3.5507,-3.5507,-3.5507,-3.5507,-3.5507,-3.5507,-3.5507,-3.5507,-3.5507,-3.5507,-3.5507,-3.5507,-3.5507,-3.5507,-3.5507,-3.5507,-3.5507,-3.5507,-3.5507,-3.5507,-3.5584,-3.568,-3.5815,-3.5757,-3.5661,-3.5584,-3.5565,-3.5545,-3.5526,-3.5507,-3.5507,-3.5507,-3.5507,-3.5507,-3.5507,-3.5526,-3.5545,-3.5526,-3.5526,-3.5545,-3.5507,-3.5507,-3.5507,-3.5507,-3.5507,-3.5507,-3.5507,-3.5507,-3.5507,-3.5526,-3.5526,-3.5541,-3.5586,-3.5603,-3.565,-3.5701,-3.5767,-3.5816,-3.5812,-3.5821,-3.5838,-3.5815,-3.5766,-3.5799,-3.5868,-3.5881,-3.5872,-4.6289,-4.6289,-4.6289,-4.6289,-4.6289,-4.6289,-4.6289,-4.6289,-4.6289,-4.6289,-4.6289,-4.6289,-4.6289,-4.6289,-4.6289,-4.6016,-4.5508,-4.5488,-4.4707,-4.3281,-4.2163,-4.1594,-4.0835,-3.8805,-3.703,-3.5757,-3.5507,-3.5507,-3.5507,-3.5507,-3.5507,-3.5507,-3.5507,-3.5507,-3.5507,-3.5507,-3.5507,-3.5507,-3.5507,-3.5507,-3.5507,-3.5507,-3.5507,-3.5507,-3.5507,-3.5507,-3.5507,-3.5507,-3.5507,-3.5507,-3.5507,-3.5507,-3.5507,-3.5507,-3.5507,-3.5507,-3.5507,-3.5507,-3.5507,-3.5507,-3.5507,-3.5507,-3.5507,-3.5507,-3.5507,-3.5507,-3.5507,-3.5507,-3.5565,-3.5669,-3.5786,-3.5758,-3.5695,-3.5642,-3.5618,-3.5565,-3.5507,-3.5507,-3.5507,-3.5507,-3.5507,-3.5507,-3.5507,-3.5526,-3.5545,-3.5526,-3.5545,-3.5565,-3.5526,-3.5507,-3.5507,-3.5507,-3.5507,-3.5507,-3.5507,-3.5507,-3.5526,-3.5545,-3.5545,-3.556,-3.5589,-3.5566,-3.5572,-3.5612,-3.5689,-3.5737,-3.5737,-3.5737,-3.5745,-3.569,-3.5664,-3.5717,-3.5773,-3.5806,-3.582,-4.6289,-4.6289,-4.6289,-4.6289,-4.6289,-4.6289,-4.6289,-4.6289,-4.6289,-4.6289,-4.6289,-4.6289,-4.6289,-4.6289,-4.6289,-4.623,-4.6269,-4.6191,-4.5762,-4.4433,-4.2619,-4.1119,-4.0293,-3.8136,-3.6554,-3.5641,-3.5507,-3.5507,-3.5507,-3.5507,-3.5507,-3.5507,-3.5507,-3.5507,-3.5507,-3.5507,-3.5507,-3.5507,-3.5507,-3.5507,-3.5507,-3.5507,-3.5507,-3.5507,-3.5507,-3.5507,-3.5507,-3.5507,-3.5507,-3.5507,-3.5507,-3.5507,-3.5507,-3.5507,-3.5507,-3.5507,-3.5507,-3.5507,-3.5507,-3.5507,-3.5507,-3.5507,-3.5507,-3.5507,-3.5507,-3.5507,-3.5507,-3.5507,-3.5545,-3.5618,-3.5638,-3.5668,-3.57,-3.5687,-3.563,-3.5597,-3.5603,-3.5641,-3.568,-3.5584,-3.5526,-3.5699,-3.5944,-3.5925,-3.5905,-3.5853,-3.5853,-3.5738,-3.5507,-3.5507,-3.5507,-3.5507,-3.5507,-3.5507,-3.5507,-3.5507,-3.5507,-3.5526,-3.5545,-3.5554,-3.557,-3.5541,-3.5526,-3.5553,-3.5599,-3.5643,-3.5663,-3.5656,-3.5669,-3.5659,-3.5647,-3.5649,-3.5693,-3.5773,-3.582,-4.6289,-4.6289,-4.6289,-4.6289,-4.6289,-4.6289,-4.6289,-4.6289,-4.6289,-4.6289,-4.6289,-4.6289,-4.6289,-4.6289,-4.6289,-4.6289,-4.6289,-4.6289,-4.623,-4.5566,-4.3199,-4.0803,-3.9147,-3.7621,-3.6419,-3.5622,-3.5507,-3.5507,-3.5507,-3.5507,-3.5507,-3.5507,-3.5507,-3.5507,-3.5507,-3.5507,-3.5507,-3.5507,-3.5507,-3.5507,-3.5507,-3.5507,-3.5507,-3.5507,-3.5507,-3.5507,-3.5507,-3.5507,-3.5507,-3.5507,-3.5507,-3.5507,-3.5507,-3.5507,-3.5507,-3.5507,-3.5507,-3.5507,-3.5507,-3.5507,-3.5507,-3.5507,-3.5507,-3.5507,-3.5507,-3.5507,-3.5507,-3.5507,-3.5565,-3.5612,-3.5618,-3.5662,-3.5676,-3.5631,-3.5663,-3.5905,-3.6329,-3.6516,-3.629,-3.5776,-3.6727,-3.7294,-3.7572,-3.7424,-3.7392,-3.7301,-3.6903,-3.6208,-3.5751,-3.5661,-3.5738,-3.5565,-3.5526,-3.5507,-3.5507,-3.5507,-3.5507,-3.5507,-3.5507,-3.5526,-3.5541,-3.552,-3.5507,-3.552,-3.5534,-3.5578,-3.5597,-3.5572,-3.5603,-3.5641,-3.5676,-3.5682,-3.5797,-3.5875,-3.5889,-4.6289,-4.6289,-4.6289,-4.6289,-4.6289,-4.6289,-4.6289,-4.6289,-4.6289,-4.6289,-4.6289,-4.6289,-4.6289,-4.6289,-4.6289,-4.6289,-4.6289,-4.6289,-4.6094,-4.5215,-4.251,-3.9908,-3.7945,-3.6747,-3.6021,-3.5584,-3.5507,-3.5507,-3.5507,-3.5507,-3.5507,-3.5507,-3.5507,-3.5507,-3.5507,-3.5507,-3.5507,-3.5507,-3.5507,-3.5507,-3.5507,-3.5507,-3.5507,-3.5507,-3.5507,-3.5507,-3.5507,-3.5507,-3.5507,-3.5507,-3.5507,-3.5507,-3.5507,-3.5507,-3.5507,-3.5507,-3.5507,-3.5507,-3.5507,-3.5507,-3.5507,-3.5507,-3.5507,-3.5507,-3.5507,-3.5526,-3.5526,-3.5545,-3.5603,-3.5622,-3.5622,-3.5641,-3.5622,-3.5636,-3.5944,-3.6381,-3.6895,-3.7247,-3.7204,-3.7102,-3.7596,-3.8702,-3.9258,-3.8848,-3.8403,-3.818,-3.7772,-3.6772,-3.5888,-3.5957,-3.6078,-3.6059,-3.579,-3.5726,-3.5713,-3.5699,-3.5526,-3.5507,-3.5507,-3.5526,-3.5526,-3.5526,-3.5526,-3.5507,-3.5507,-3.5507,-3.5545,-3.5584,-3.5622,-3.5649,-3.5688,-3.5727,-3.5805,-3.5902,-3.5931,-4.6289,-4.6289,-4.6289,-4.6289,-4.6289,-4.6289,-4.6289,-4.6289,-4.6289,-4.6289,-4.6289,-4.6289,-4.6289,-4.6289,-4.6289,-4.6289,-4.6289,-4.6289,-4.5488,-4.3965,-4.1426,-3.8809,-3.7147,-3.6117,-3.5641,-3.5507,-3.5507,-3.5507,-3.5507,-3.5507,-3.5507,-3.5507,-3.5507,-3.5507,-3.5507,-3.5507,-3.5507,-3.5507,-3.5507,-3.5507,-3.5507,-3.5507,-3.5507,-3.5507,-3.5507,-3.5507,-3.5507,-3.5507,-3.5507,-3.5507,-3.5507,-3.5507,-3.5507,-3.5507,-3.5507,-3.5507,-3.5507,-3.5507,-3.5507,-3.5507,-3.5507,-3.5507,-3.5507,-3.5507,-3.5526,-3.5565,-3.5592,-3.5623,-3.5676,-3.5663,-3.5603,-3.5603,-3.5699,-3.5886,-3.6573,-3.7068,-3.7334,-3.7948,-3.8479,-3.8609,-3.8632,-3.9501,-4.0059,-3.9844,-3.8664,-3.931,-3.8844,-3.8104,-3.723,-3.7011,-3.7038,-3.6991,-3.6568,-3.6003,-3.5977,-3.5944,-3.568,-3.5507,-3.5507,-3.5507,-3.5526,-3.5526,-3.5526,-3.5526,-3.5526,-3.5565,-3.5603,-3.5641,-3.5661,-3.5685,-3.5737,-3.5741,-3.5764,-3.5872,-3.595,-4.6289,-4.6289,-4.6289,-4.6289,-4.6289,-4.6289,-4.6289,-4.6289,-4.6289,-4.6289,-4.6289,-4.6289,-4.6289,-4.6289,-4.6289,-4.6289,-4.6289,-4.6133,-4.5156,-4.2676,-4.0723,-3.8652,-3.7049,-3.5963,-3.5526,-3.5507,-3.5507,-3.5507,-3.5507,-3.5507,-3.5507,-3.5507,-3.5507,-3.5507,-3.5507,-3.5507,-3.5507,-3.5507,-3.5507,-3.5507,-3.5507,-3.5507,-3.5507,-3.5507,-3.5507,-3.5507,-3.5507,-3.5507,-3.5507,-3.5507,-3.5507,-3.5507,-3.5507,-3.5507,-3.5507,-3.5507,-3.5507,-3.5507,-3.5507,-3.5507,-3.5507,-3.5507,-3.5507,-3.5526,-3.5584,-3.5603,-3.5635,-3.5679,-3.5698,-3.5695,-3.5611,-3.5545,-3.5872,-3.6516,-3.7409,-3.8271,-3.8909,-3.9245,-3.9684,-4.0223,-4.0449,-4.0723,-4.1113,-4.0918,-4.0351,-4.041,-4.0,-3.9492,-3.8809,-3.8103,-3.7754,-3.7565,-3.6987,-3.637,-3.6073,-3.6021,-3.5815,-3.5776,-3.5815,-3.5853,-3.5872,-3.5862,-3.6003,-3.5843,-3.5584,-3.5622,-3.5759,-3.568,-3.5699,-3.5753,-3.5768,-3.5802,-3.5843,-3.5919,-3.5957,-4.6289,-4.6289,-4.6289,-4.6289,-4.6289,-4.6289,-4.6289,-4.6289,-4.6289,-4.6289,-4.6289,-4.6289,-4.6289,-4.6289,-4.6289,-4.6289,-4.6172,-4.582,-4.4746,-4.2754,-4.0742,-3.8906,-3.7532,-3.6232,-3.5507,-3.5507,-3.5507,-3.5507,-3.5507,-3.5507,-3.5507,-3.5507,-3.5507,-3.5507,-3.5507,-3.5507,-3.5507,-3.5507,-3.5507,-3.5507,-3.5507,-3.5507,-3.5507,-3.5507,-3.5507,-3.5507,-3.5507,-3.5507,-3.5507,-3.5507,-3.5507,-3.5507,-3.5507,-3.5507,-3.5507,-3.5507,-3.5507,-3.5507,-3.5507,-3.5507,-3.5507,-3.5507,-3.5526,-3.5565,-3.5641,-3.568,-3.5746,-3.5766,-3.5776,-3.5781,-3.5682,-3.6078,-3.6458,-3.7011,-3.8155,-3.9147,-3.9644,-4.0101,-4.0552,-4.1074,-4.1074,-4.1094,-4.1191,-4.1191,-4.1152,-4.0781,-4.0742,-4.0254,-3.9414,-3.8722,-3.8122,-3.773,-3.7208,-3.6697,-3.6279,-3.6078,-3.5944,-3.6098,-3.64,-3.6535,-3.665,-3.6658,-3.6654,-3.6323,-3.5951,-3.5907,-3.5977,-3.5868,-3.5734,-3.5695,-3.5718,-3.5821,-3.5898,-3.5937,-3.5976,-4.6289,-4.6289,-4.6289,-4.6289,-4.6289,-4.6289,-4.6289,-4.6289,-4.6289,-4.6289,-4.6289,-4.6289,-4.6289,-4.6289,-4.6289,-4.6289,-4.6074,-4.5391,-4.4394,-4.2969,-4.0703,-3.9014,-3.7707,-3.6329,-3.5507,-3.5507,-3.5507,-3.5507,-3.5507,-3.5507,-3.5507,-3.5507,-3.5507,-3.5507,-3.5507,-3.5507,-3.5507,-3.5507,-3.5507,-3.5507,-3.5507,-3.5507,-3.5507,-3.5507,-3.5507,-3.5507,-3.5507,-3.5507,-3.5507,-3.5507,-3.5507,-3.5507,-3.5507,-3.5507,-3.5507,-3.5507,-3.5507,-3.5507,-3.5507,-3.5507,-3.5526,-3.5507,-3.5565,-3.5622,-3.5699,-3.5776,-3.5842,-3.5883,-3.59,-3.5917,-3.5933,-3.6395,-3.7,-3.7648,-3.8915,-3.9623,-4.0048,-4.0723,-4.1074,-4.1172,-4.1191,-4.1191,-4.1191,-4.1191,-4.1191,-4.1191,-4.1172,-4.0937,-4.0098,-3.9278,-3.8638,-3.8005,-3.7475,-3.6986,-3.6548,-3.6716,-3.651,-3.6806,-3.7134,-3.7231,-3.7482,-3.7765,-3.7672,-3.6779,-3.6402,-3.6335,-3.6134,-3.5888,-3.5737,-3.5654,-3.5654,-3.5749,-3.584,-3.5937,-3.5976,-4.6289,-4.6289,-4.6289,-4.6289,-4.6289,-4.6289,-4.6289,-4.6289,-4.6289,-4.6289,-4.6289,-4.6289,-4.6289,-4.6289,-4.6289,-4.6289,-4.6094,-4.5469,-4.4258,-4.2676,-4.0605,-3.9,-3.7405,-3.6155,-3.5545,-3.5507,-3.5507,-3.5507,-3.5507,-3.5507,-3.5507,-3.5507,-3.5507,-3.5507,-3.5507,-3.5507,-3.5507,-3.5507,-3.5507,-3.5507,-3.5507,-3.5507,-3.5507,-3.5507,-3.5507,-3.5507,-3.5507,-3.5507,-3.5507,-3.5507,-3.5507,-3.5507,-3.5507,-3.5507,-3.5507,-3.5507,-3.5507,-3.5507,-3.5507,-3.5545,-3.5565,-3.5603,-3.563,-3.5732,-3.5809,-3.5853,-3.5944,-3.6067,-3.6054,-3.6122,-3.671,-3.7123,-3.7821,-3.876,-3.9496,-4.0089,-4.0718,-4.1055,-4.1191,-4.1191,-4.1191,-4.1191,-4.1191,-4.1191,-4.1191,-4.1191,-4.1191,-4.1172,-4.0762,-3.9869,-3.9034,-3.8407,-3.7788,-3.7288,-3.6818,-3.7192,-3.7392,-3.7816,-3.8066,-3.8003,-3.8338,-3.8917,-3.873,-3.81,-3.7239,-3.6754,-3.6456,-3.5972,-3.5749,-3.5669,-3.5666,-3.5676,-3.5801,-3.5918,-3.5976,-4.6289,-4.6289,-4.6289,-4.6289,-4.6289,-4.6289,-4.6289,-4.6289,-4.6289,-4.6289,-4.6289,-4.6289,-4.6289,-4.6289,-4.6289,-4.6289,-4.6133,-4.5918,-4.4648,-4.293,-4.1113,-3.9331,-3.7501,-3.6194,-3.5622,-3.5507,-3.5507,-3.5507,-3.5507,-3.5507,-3.5507,-3.5507,-3.5507,-3.5507,-3.5507,-3.5507,-3.5507,-3.5507,-3.5507,-3.5507,-3.5507,-3.5507,-3.5507,-3.5507,-3.5507,-3.5507,-3.5507,-3.5507,-3.5507,-3.5507,-3.5507,-3.5507,-3.5507,-3.5507,-3.5507,-3.5507,-3.5507,-3.5507,-3.5507,-3.5526,-3.5565,-3.5611,-3.5628,-3.5697,-3.5753,-3.5815,-3.6073,-3.6568,-3.6774,-3.6957,-3.7656,-3.802,-3.8848,-3.9577,-4.0137,-4.0605,-4.1016,-4.1152,-4.1191,-4.1191,-4.1191,-4.1191,-4.1191,-4.1191,-4.1191,-4.1191,-4.1191,-4.1191,-4.1191,-4.0313,-3.9257,-3.8015,-3.7397,-3.7623,-3.7495,-3.8147,-3.8449,-3.8828,-3.9043,-3.8984,-3.9293,-3.9908,-4.0096,-3.9817,-3.8858,-3.7389,-3.6467,-3.5875,-3.5775,-3.5693,-3.5767,-3.5824,-3.5842,-3.5898,-3.5976,-4.6289,-4.6289,-4.6289,-4.6289,-4.6289,-4.6289,-4.6289,-4.6289,-4.6289,-4.6289,-4.6289,-4.6289,-4.6289,-4.6289,-4.6269,-4.623,-4.6094,-4.5957,-4.4766,-4.2851,-4.123,-3.9624,-3.792,-3.6535,-3.5507,-3.5507,-3.5507,-3.5507,-3.5507,-3.5507,-3.5507,-3.5507,-3.5507,-3.5507,-3.5507,-3.5507,-3.5507,-3.5507,-3.5507,-3.5507,-3.5507,-3.5507,-3.5507,-3.5507,-3.5507,-3.5507,-3.5507,-3.5507,-3.5507,-3.5507,-3.5507,-3.5507,-3.5507,-3.5507,-3.5507,-3.5507,-3.5507,-3.5507,-3.5507,-3.5526,-3.5565,-3.5597,-3.5621,-3.5659,-3.5688,-3.5861,-3.6222,-3.722,-3.7665,-3.7958,-3.8525,-3.8879,-3.9336,-3.9922,-4.043,-4.0918,-4.0898,-4.0996,-4.1191,-4.1191,-4.1191,-4.1191,-4.1191,-4.1191,-4.1191,-4.1191,-4.1191,-4.1191,-4.1085,-4.0306,-3.9154,-3.7552,-3.696,-3.7629,-3.8218,-3.9322,-3.9609,-3.9909,-4.0059,-4.007,-4.0446,-4.0972,-4.0801,-4.0293,-3.9223,-3.7786,-3.6791,-3.5919,-3.5833,-3.5803,-3.5902,-3.5938,-3.5892,-3.5918,-3.5996,-4.6289,-4.6289,-4.6289,-4.6289,-4.6289,-4.6289,-4.6289,-4.6289,-4.6289,-4.6289,-4.6289,-4.6289,-4.6289,-4.6289,-4.6289,-4.5859,-4.5351,-4.5234,-4.3961,-4.1636,-4.0426,-3.9026,-3.7205,-3.6059,-3.5565,-3.5507,-3.5507,-3.5507,-3.5507,-3.5507,-3.5507,-3.5507,-3.5507,-3.5507,-3.5507,-3.5507,-3.5507,-3.5507,-3.5507,-3.5507,-3.5507,-3.5507,-3.5507,-3.5507,-3.5507,-3.5507,-3.5507,-3.5507,-3.5507,-3.5507,-3.5507,-3.5507,-3.5507,-3.5507,-3.5507,-3.5507,-3.5507,-3.5507,-3.5526,-3.5545,-3.5565,-3.5599,-3.5631,-3.5689,-3.5854,-3.5836,-3.6248,-3.7391,-3.8027,-3.8585,-3.8845,-3.8339,-3.8652,-3.9316,-4.0078,-4.0254,-4.0293,-4.0996,-4.1172,-4.1191,-4.1191,-4.1191,-4.1191,-4.1191,-4.1191,-4.1191,-4.1191,-4.1191,-4.1052,-4.0404,-3.9637,-3.8207,-3.7617,-3.8222,-3.8975,-4.0087,-4.034,-4.0703,-4.0789,-4.0859,-4.1035,-4.1094,-4.0508,-3.9883,-3.8926,-3.7988,-3.6859,-3.6181,-3.5965,-3.5873,-3.5885,-3.5892,-3.59,-3.5937,-3.5996,-4.6289,-4.6289,-4.6289,-4.6289,-4.6289,-4.6289,-4.6289,-4.6289,-4.6289,-4.6289,-4.6289,-4.6289,-4.6289,-4.6289,-4.6289,-4.5508,-4.4674,-4.5001,-4.3527,-4.0875,-3.9901,-3.8928,-3.7167,-3.6001,-3.5507,-3.5507,-3.5507,-3.5507,-3.5507,-3.5507,-3.5507,-3.5507,-3.5507,-3.5507,-3.5507,-3.5507,-3.5507,-3.5507,-3.5507,-3.5507,-3.5507,-3.5507,-3.5507,-3.5507,-3.5507,-3.5507,-3.5507,-3.5507,-3.5507,-3.5507,-3.5507,-3.5507,-3.5507,-3.5507,-3.5507,-3.5507,-3.5507,-3.5507,-3.5507,-3.5526,-3.5545,-3.5597,-3.5685,-3.5905,-3.6279,-3.6196,-3.6668,-3.8455,-3.8555,-3.8809,-3.9023,-3.8461,-3.8906,-3.9453,-3.9863,-4.0195,-4.041,-4.0801,-4.1191,-4.1191,-4.1191,-4.1191,-4.1191,-4.1191,-4.1191,-4.1191,-4.1191,-4.1191,-4.1191,-4.096,-4.0174,-3.9257,-3.9032,-3.9189,-3.9961,-4.085,-4.0633,-4.083,-4.093,-4.1016,-4.1113,-4.0957,-4.0449,-3.9609,-3.8633,-3.7695,-3.6777,-3.6265,-3.5877,-3.5827,-3.5838,-3.5859,-3.5898,-3.5937,-3.5996,-4.6289,-4.6289,-4.6289,-4.6289,-4.6289,-4.6289,-4.6289,-4.6289,-4.6289,-4.6289,-4.6289,-4.6289,-4.6289,-4.6094,-4.5703,-4.4621,-4.3363,-4.4157,-4.2186,-4.0214,-3.919,-3.8338,-3.6804,-3.5738,-3.5507,-3.5507,-3.5507,-3.5507,-3.5507,-3.5507,-3.5507,-3.5507,-3.5507,-3.5507,-3.5507,-3.5507,-3.5507,-3.5507,-3.5507,-3.5507,-3.5507,-3.5507,-3.5507,-3.5507,-3.5507,-3.5507,-3.5507,-3.5507,-3.5507,-3.5507,-3.5507,-3.5507,-3.5507,-3.5507,-3.5507,-3.5507,-3.5507,-3.5507,-3.5507,-3.5507,-3.5526,-3.5603,-3.5944,-3.6446,-3.7327,-3.6851,-3.6852,-3.8887,-3.8769,-3.873,-3.8828,-3.8789,-3.9043,-3.9492,-3.9902,-4.0351,-4.0762,-4.1016,-4.1191,-4.1191,-4.1191,-4.1191,-4.1191,-4.1191,-4.1191,-4.1191,-4.1191,-4.1191,-4.1152,-4.1113,-4.0479,-3.9618,-3.9393,-3.9298,-3.9533,-4.0277,-4.0443,-4.0797,-4.0895,-4.0879,-4.0801,-4.0801,-4.0547,-3.957,-3.8359,-3.748,-3.6601,-3.6152,-3.5771,-3.5822,-3.5869,-3.588,-3.5898,-3.5957,-3.5996,-4.6289,-4.6289,-4.6289,-4.6289,-4.6289,-4.6289,-4.6289,-4.6289,-4.6289,-4.6289,-4.6289,-4.6289,-4.6269,-4.584,-4.4609,-4.3417,-4.224,-4.0733,-3.9228,-3.7936,-3.7063,-3.6876,-3.6021,-3.5622,-3.5507,-3.5507,-3.5507,-3.5507,-3.5507,-3.5507,-3.5507,-3.5507,-3.5507,-3.5507,-3.5507,-3.5507,-3.5507,-3.5507,-3.5507,-3.5507,-3.5507,-3.5507,-3.5507,-3.5507,-3.5507,-3.5507,-3.5507,-3.5507,-3.5507,-3.5507,-3.5507,-3.5507,-3.5507,-3.5507,-3.5507,-3.5507,-3.5507,-3.5507,-3.5507,-3.5507,-3.5545,-3.5776,-3.6439,-3.7371,-3.8213,-3.8298,-3.8499,-3.8789,-3.875,-3.8926,-3.9121,-3.9258,-3.9121,-3.9551,-3.9902,-4.0137,-4.0566,-4.0996,-4.1152,-4.1191,-4.1191,-4.1191,-4.1191,-4.1191,-4.1191,-4.1191,-4.1191,-4.1191,-4.1055,-4.0945,-4.0455,-3.9843,-3.947,-3.9093,-3.8463,-3.8842,-3.9438,-3.9989,-4.0306,-4.0277,-4.0195,-4.0234,-4.0684,-3.9219,-3.8008,-3.7207,-3.6523,-3.6113,-3.5873,-3.5888,-3.5916,-3.5909,-3.5937,-3.5976,-3.5996,-4.6289,-4.6289,-4.6289,-4.6289,-4.6289,-4.6289,-4.6289,-4.6289,-4.6289,-4.6289,-4.6289,-4.625,-4.5664,-4.4687,-4.3965,-4.2086,-4.0172,-4.037,-3.8381,-3.7222,-3.6779,-3.6631,-3.6021,-3.5507,-3.5507,-3.5507,-3.5507,-3.5507,-3.5507,-3.5507,-3.5507,-3.5507,-3.5507,-3.5507,-3.5507,-3.5507,-3.5507,-3.5507,-3.5507,-3.5507,-3.5507,-3.5507,-3.5507,-3.5507,-3.5507,-3.5507,-3.5507,-3.5507,-3.5507,-3.5507,-3.5507,-3.5507,-3.5507,-3.5507,-3.5507,-3.5507,-3.5507,-3.5507,-3.5507,-3.5545,-3.5738,-3.6631,-3.7679,-3.8755,-3.9187,-3.9645,-3.9682,-3.9512,-3.8945,-3.9141,-3.8887,-3.8848,-3.8906,-3.9531,-3.9941,-4.0137,-4.0469,-4.0976,-4.1133,-4.1191,-4.1191,-4.1191,-4.1191,-4.1191,-4.1191,-4.1191,-4.1191,-4.1172,-4.1035,-4.0641,-4.009,-3.963,-3.92,-3.8786,-3.8209,-3.8336,-3.8596,-3.9155,-3.9754,-3.9886,-4.0008,-4.0664,-4.0684,-3.9121,-3.7656,-3.6777,-3.6211,-3.6035,-3.5937,-3.5918,-3.5918,-3.5949,-3.5976,-3.6016,-3.6016,-4.6289,-4.6289,-4.6289,-4.6289,-4.6289,-4.6289,-4.6289,-4.6289,-4.6289,-4.6289,-4.6289,-4.6211,-4.5254,-4.3887,-4.276,-4.1208,-3.9071,-3.8535,-3.7429,-3.667,-3.6381,-3.6439,-3.5853,-3.5507,-3.5507,-3.5507,-3.5507,-3.5507,-3.5507,-3.5507,-3.5507,-3.5507,-3.5507,-3.5507,-3.5507,-3.5507,-3.5507,-3.5507,-3.5507,-3.5507,-3.5507,-3.5507,-3.5507,-3.5507,-3.5507,-3.5507,-3.5507,-3.5507,-3.5507,-3.5507,-3.5507,-3.5507,-3.5507,-3.5507,-3.5507,-3.5507,-3.5507,-3.5507,-3.5507,-3.5565,-3.6232,-3.7718,-3.8309,-3.9328,-4.0156,-4.0781,-4.0566,-3.9922,-3.9492,-3.9277,-3.9141,-3.9355,-3.9726,-4.043,-4.0391,-4.0547,-4.0801,-4.1172,-4.1172,-4.1191,-4.1191,-4.1191,-4.1172,-4.1152,-4.1074,-4.1113,-4.1191,-4.1152,-4.1055,-4.0496,-3.9619,-3.9161,-3.8736,-3.8329,-3.7957,-3.8121,-3.8336,-3.8792,-3.9344,-3.9758,-4.0092,-4.0665,-4.021,-3.8418,-3.7129,-3.6289,-3.5996,-3.5976,-3.5937,-3.5898,-3.5918,-3.5957,-3.5976,-3.6016,-3.6016,-4.623,-4.6289,-4.623,-4.6211,-4.6113,-4.6269,-4.623,-4.6133,-4.6074,-4.6016,-4.584,-4.5801,-4.4766,-4.3085,-4.1353,-3.963,-3.7939,-3.6631,-3.5776,-3.5795,-3.5795,-3.5641,-3.5565,-3.5507,-3.5507,-3.5507,-3.5507,-3.5507,-3.5507,-3.5507,-3.5507,-3.5507,-3.5507,-3.5507,-3.5507,-3.5507,-3.5507,-3.5507,-3.5507,-3.5507,-3.5507,-3.5507,-3.5507,-3.5507,-3.5507,-3.5507,-3.5507,-3.5507,-3.5507,-3.5507,-3.5507,-3.5507,-3.5507,-3.5507,-3.5507,-3.5507,-3.5507,-3.5526,-3.5545,-3.5526,-3.6727,-3.8556,-3.8916,-3.9421,-4.0644,-4.1133,-4.0957,-4.0293,-4.043,-4.0449,-4.0469,-4.0488,-4.0781,-4.0898,-4.0859,-4.0879,-4.1094,-4.1191,-4.1191,-4.1191,-4.1191,-4.1191,-4.1152,-4.1094,-4.0976,-4.0996,-4.1152,-4.1091,-4.0857,-3.989,-3.8794,-3.8309,-3.7885,-3.766,-3.7404,-3.7758,-3.8072,-3.8537,-3.9129,-3.9779,-3.9863,-3.9994,-3.912,-3.7605,-3.6777,-3.6094,-3.5996,-3.5976,-3.5898,-3.582,-3.5937,-3.5976,-3.5996,-3.5996,-3.5996,-4.4902,-4.5391,-4.4824,-4.457,-4.4648,-4.5215,-4.5449,-4.5332,-4.4844,-4.4238,-4.3711,-4.3594,-4.2168,-4.0354,-3.9487,-3.8213,-3.6573,-3.6136,-3.5507,-3.5507,-3.5507,-3.5507,-3.5507,-3.5507,-3.5507,-3.5507,-3.5507,-3.5507,-3.5507,-3.5507,-3.5507,-3.5507,-3.5507,-3.5507,-3.5507,-3.5507,-3.5507,-3.5507,-3.5507,-3.5507,-3.5507,-3.5507,-3.5507,-3.5507,-3.5507,-3.5507,-3.5507,-3.5507,-3.5507,-3.5507,-3.5507,-3.5507,-3.5507,-3.5507,-3.5507,-3.5507,-3.5507,-3.5834,-3.6001,-3.6175,-3.6554,-3.8078,-3.9116,-3.9629,-4.0996,-4.1172,-4.0996,-4.084,-4.0957,-4.0957,-4.0957,-4.0937,-4.1094,-4.1113,-4.1094,-4.1094,-4.1191,-4.1191,-4.1191,-4.1191,-4.1191,-4.0684,-4.0474,-4.024,-4.0134,-3.9895,-3.9895,-4.0135,-4.0023,-3.8675,-3.7486,-3.7184,-3.6856,-3.6766,-3.6897,-3.8179,-3.885,-3.9321,-3.9825,-4.0345,-4.0234,-3.9645,-3.8636,-3.7411,-3.6654,-3.5969,-3.5927,-3.5866,-3.5782,-3.5762,-3.5841,-3.5918,-3.5937,-3.5937,-3.5937,-4.4023,-4.4453,-4.3926,-4.3711,-4.3789,-4.4316,-4.4409,-4.402,-4.3422,-4.2694,-4.1992,-4.1758,-4.0563,-3.8824,-3.8007,-3.7184,-3.5622,-3.5507,-3.5507,-3.5507,-3.5507,-3.5507,-3.5507,-3.5507,-3.5507,-3.5507,-3.5507,-3.5507,-3.5507,-3.5507,-3.5507,-3.5507,-3.5507,-3.5507,-3.5507,-3.5507,-3.5507,-3.5507,-3.5507,-3.5507,-3.5507,-3.5507,-3.5507,-3.5507,-3.5507,-3.5507,-3.5507,-3.5507,-3.5507,-3.5507,-3.5507,-3.5507,-3.5507,-3.5507,-3.5507,-3.5507,-3.5565,-3.5834,-3.5982,-3.5963,-3.6569,-3.8139,-3.8904,-3.9687,-4.0605,-4.0957,-4.1152,-4.1152,-4.1191,-4.1191,-4.1191,-4.1191,-4.1094,-4.1094,-4.1094,-4.1074,-4.0586,-4.0547,-4.0488,-4.0566,-4.0605,-4.0137,-3.9693,-3.9352,-3.9116,-3.8814,-3.8551,-3.8833,-3.905,-3.7847,-3.6895,-3.6837,-3.6947,-3.7282,-3.8149,-3.9585,-4.0085,-4.0196,-4.0469,-4.0781,-3.9928,-3.9237,-3.8244,-3.7332,-3.6632,-3.6037,-3.5836,-3.572,-3.5675,-3.567,-3.5737,-3.5801,-3.5879,-3.5898,-3.5918,-4.3633,-4.3652,-4.3613,-4.3555,-4.3594,-4.3398,-4.2961,-4.2228,-4.2118,-4.1526,-4.0687,-4.0436,-3.9341,-3.8207,-3.7872,-3.6953,-3.5776,-3.5526,-3.5507,-3.5507,-3.5507,-3.5507,-3.5507,-3.5507,-3.5507,-3.5507,-3.5507,-3.5507,-3.5507,-3.5507,-3.5507,-3.5507,-3.5507,-3.5507,-3.5507,-3.5507,-3.5507,-3.5507,-3.5507,-3.5507,-3.5507,-3.5507,-3.5507,-3.5507,-3.5507,-3.5507,-3.5507,-3.5507,-3.5507,-3.5507,-3.5507,-3.5507,-3.5507,-3.5507,-3.5507,-3.5507,-3.5507,-3.5603,-3.5834,-3.5815,-3.6426,-3.7773,-3.8229,-3.8945,-3.9863,-4.0723,-4.1016,-4.1055,-4.1035,-4.1133,-4.1191,-4.1035,-4.0879,-4.0879,-4.0879,-4.0469,-3.9766,-3.9531,-3.9473,-3.9512,-3.9629,-3.9375,-3.902,-3.8659,-3.8086,-3.7604,-3.7379,-3.7443,-3.7564,-3.7352,-3.6741,-3.723,-3.7507,-3.8164,-3.9208,-4.0188,-4.0742,-4.0684,-4.0762,-4.0859,-3.9883,-3.9179,-3.8686,-3.7924,-3.6768,-3.6105,-3.5828,-3.568,-3.5617,-3.5637,-3.572,-3.5742,-3.582,-3.5918,-3.593,-4.2246,-4.2715,-4.2148,-4.1914,-4.1816,-4.1149,-4.0676,-4.0403,-3.9778,-3.8923,-3.8052,-3.8003,-3.7486,-3.6309,-3.6232,-3.5925,-3.568,-3.5507,-3.5507,-3.5507,-3.5507,-3.5507,-3.5507,-3.5507,-3.5507,-3.5507,-3.5507,-3.5507,-3.5507,-3.5507,-3.5507,-3.5507,-3.5507,-3.5507,-3.5507,-3.5507,-3.5507,-3.5507,-3.5507,-3.5507,-3.5507,-3.5507,-3.5507,-3.5507,-3.5507,-3.5507,-3.5507,-3.5507,-3.5507,-3.5507,-3.5507,-3.5507,-3.5507,-3.5507,-3.5507,-3.5507,-3.5565,-3.5738,-3.6252,-3.6001,-3.626,-3.7298,-3.7624,-3.8535,-3.957,-4.041,-4.0781,-4.084,-4.0684,-4.0664,-4.0586,-4.0449,-4.0234,-4.0098,-3.9984,-3.9461,-3.876,-3.8299,-3.8267,-3.8655,-3.8779,-3.8559,-3.8209,-3.7679,-3.7101,-3.6516,-3.6252,-3.6329,-3.6362,-3.6252,-3.6516,-3.7024,-3.768,-3.823,-3.9027,-3.9961,-4.0664,-4.1152,-4.1133,-4.0957,-4.0273,-3.9676,-3.9317,-3.8408,-3.7038,-3.626,-3.5784,-3.5674,-3.5584,-3.5674,-3.5753,-3.5766,-3.5779,-3.5877,-3.5892,-4.1472,-4.1788,-4.0978,-4.0398,-3.9923,-3.9021,-3.8586,-3.8472,-3.7982,-3.7222,-3.6419,-3.64,-3.6021,-3.5661,-3.5603,-3.5545,-3.5526,-3.5507,-3.5507,-3.5507,-3.5507,-3.5507,-3.5507,-3.5507,-3.5507,-3.5507,-3.5507,-3.5507,-3.5507,-3.5507,-3.5507,-3.5507,-3.5507,-3.5507,-3.5507,-3.5507,-3.5507,-3.5507,-3.5507,-3.5507,-3.5507,-3.5507,-3.5507,-3.5507,-3.5507,-3.5507,-3.5507,-3.5507,-3.5507,-3.5507,-3.5507,-3.5507,-3.5507,-3.5507,-3.5507,-3.5565,-3.6001,-3.604,-3.6213,-3.6419,-3.667,-3.7007,-3.7266,-3.8047,-3.8848,-3.9629,-4.0156,-4.0488,-4.0215,-4.0,-3.9883,-3.973,-3.9409,-3.9129,-3.8731,-3.8322,-3.7702,-3.707,-3.7301,-3.7771,-3.7784,-3.759,-3.7186,-3.6691,-3.6271,-3.5963,-3.5776,-3.5795,-3.5834,-3.5795,-3.6175,-3.6741,-3.7472,-3.8171,-3.8987,-3.9707,-4.0371,-4.0937,-4.1191,-4.0937,-4.0469,-4.0123,-3.9719,-3.8582,-3.7177,-3.646,-3.5751,-3.5674,-3.5617,-3.5689,-3.5733,-3.5724,-3.5745,-3.5828,-3.5815,-4.1213,-4.1156,-4.0113,-3.9362,-3.8354,-3.7502,-3.7036,-3.687,-3.6856,-3.6329,-3.5641,-3.5526,-3.5584,-3.5507,-3.5507,-3.5507,-3.5507,-3.5507,-3.5507,-3.5507,-3.5507,-3.5507,-3.5507,-3.5507,-3.5507,-3.5507,-3.5507,-3.5507,-3.5507,-3.5507,-3.5507,-3.5507,-3.5507,-3.5507,-3.5507,-3.5507,-3.5507,-3.5507,-3.5507,-3.5507,-3.5507,-3.5507,-3.5507,-3.5507,-3.5507,-3.5507,-3.5507,-3.5507,-3.5507,-3.5507,-3.5507,-3.5507,-3.5507,-3.5507,-3.5507,-3.5718,-3.6194,-3.6598,-3.6566,-3.6697,-3.6895,-3.7108,-3.7226,-3.7598,-3.8144,-3.8906,-3.9512,-3.9746,-3.9492,-3.9326,-3.9196,-3.8694,-3.8295,-3.7983,-3.7629,-3.7243,-3.6786,-3.6362,-3.6419,-3.6812,-3.6851,-3.6678,-3.6646,-3.6175,-3.5963,-3.5584,-3.5738,-3.5776,-3.5834,-3.5834,-3.6131,-3.6722,-3.7443,-3.8219,-3.8825,-3.9512,-4.0078,-4.0566,-4.0937,-4.0879,-4.0371,-4.0189,-4.0108,-3.8415,-3.6665,-3.6247,-3.5738,-3.5676,-3.5623,-3.5655,-3.5678,-3.5663,-3.5713,-3.5771,-3.5759,-4.1207,-4.1113,-4.0109,-3.9548,-3.9134,-3.7583,-3.6877,-3.6837,-3.6117,-3.5738,-3.5526,-3.5507,-3.5507,-3.5507,-3.5507,-3.5507,-3.5507,-3.5507,-3.5507,-3.5507,-3.5507,-3.5507,-3.5507,-3.5507,-3.5507,-3.5507,-3.5507,-3.5507,-3.5507,-3.5507,-3.5507,-3.5507,-3.5507,-3.5507,-3.5507,-3.5507,-3.5507,-3.5507,-3.5507,-3.5507,-3.5507,-3.5507,-3.5507,-3.5507,-3.5507,-3.5507,-3.5507,-3.5507,-3.5507,-3.5507,-3.5507,-3.5507,-3.5507,-3.5507,-3.5872,-3.6342,-3.6267,-3.6852,-3.716,-3.6978,-3.6786,-3.6889,-3.6917,-3.6925,-3.7324,-3.8131,-3.8651,-3.8805,-3.8713,-3.855,-3.8356,-3.7732,-3.7185,-3.6871,-3.6593,-3.6252,-3.5925,-3.5815,-3.5699,-3.5776,-3.5905,-3.5944,-3.5963,-3.5834,-3.5603,-3.5815,-3.6381,-3.6612,-3.6747,-3.6799,-3.6691,-3.7166,-3.7654,-3.8319,-3.8766,-3.916,-3.9648,-4.0156,-4.0547,-4.0449,-4.0189,-3.9497,-3.8786,-3.745,-3.6131,-3.5872,-3.5734,-3.5662,-3.562,-3.5638,-3.5643,-3.5631,-3.5622,-3.5674,-3.5641,-4.1207,-4.1016,-3.9663,-3.8574,-3.7718,-3.6708,-3.629,-3.6175,-3.5718,-3.5507,-3.5507,-3.5507,-3.5507,-3.5507,-3.5507,-3.5507,-3.5507,-3.5507,-3.5507,-3.5507,-3.5507,-3.5507,-3.5507,-3.5507,-3.5507,-3.5507,-3.5507,-3.5507,-3.5507,-3.5507,-3.5507,-3.5507,-3.5507,-3.5507,-3.5507,-3.5507,-3.5507,-3.5507,-3.5507,-3.5507,-3.5507,-3.5507,-3.5507,-3.5507,-3.5507,-3.5507,-3.5507,-3.5507,-3.5507,-3.5507,-3.5507,-3.5507,-3.5641,-3.5963,-3.6136,-3.6407,-3.6639,-3.7102,-3.7367,-3.7147,-3.6471,-3.6504,-3.6818,-3.6889,-3.7121,-3.7887,-3.8383,-3.8412,-3.7211,-3.6876,-3.7222,-3.6877,-3.6434,-3.6073,-3.5982,-3.5776,-3.568,-3.5622,-3.5584,-3.5603,-3.568,-3.568,-3.5699,-3.5699,-3.5526,-3.568,-3.6309,-3.6529,-3.6851,-3.7467,-3.745,-3.7379,-3.7713,-3.7841,-3.8005,-3.8481,-3.9082,-3.959,-4.0043,-3.9738,-3.9306,-3.8313,-3.7312,-3.6408,-3.5886,-3.5853,-3.5721,-3.5631,-3.5615,-3.563,-3.5612,-3.5617,-3.5603,-3.5565,-3.5565,-4.0898,-4.0563,-3.8887,-3.7242,-3.5795,-3.5565,-3.5545,-3.5526,-3.5507,-3.5507,-3.5507,-3.5507,-3.5507,-3.5507,-3.5507,-3.5507,-3.5507,-3.5507,-3.5507,-3.5507,-3.5507,-3.5507,-3.5507,-3.5507,-3.5507,-3.5507,-3.5507,-3.5507,-3.5507,-3.5507,-3.5507,-3.5507,-3.5507,-3.5507,-3.5507,-3.5507,-3.5507,-3.5507,-3.5507,-3.5507,-3.5507,-3.5507,-3.5507,-3.5507,-3.5507,-3.5507,-3.5507,-3.5507,-3.5507,-3.5507,-3.5507,-3.5507,-3.5641,-3.6001,-3.6271,-3.6465,-3.6871,-3.6898,-3.6774,-3.6777,-3.6306,-3.6203,-3.6627,-3.6856,-3.7018,-3.7276,-3.7771,-3.7351,-3.6145,-3.5809,-3.6155,-3.6232,-3.5815,-3.5565,-3.5526,-3.5507,-3.5507,-3.5507,-3.5507,-3.5507,-3.5507,-3.5507,-3.5507,-3.5507,-3.5584,-3.5718,-3.5925,-3.6022,-3.6382,-3.7269,-3.7758,-3.7418,-3.7276,-3.7366,-3.7429,-3.7758,-3.8371,-3.8725,-3.9038,-3.882,-3.8395,-3.743,-3.6632,-3.5978,-3.5603,-3.5661,-3.5661,-3.5579,-3.5592,-3.5598,-3.5579,-3.5565,-3.5545,-3.5526,-3.5507,-3.9549,-3.8746,-3.7626,-3.6914,-3.6496,-3.5834,-3.5507,-3.5507,-3.5507,-3.5507,-3.5507,-3.5507,-3.5507,-3.5507,-3.5507,-3.5507,-3.5507,-3.5507,-3.5507,-3.5507,-3.5507,-3.5507,-3.5507,-3.5507,-3.5507,-3.5507,-3.5507,-3.5507,-3.5507,-3.5507,-3.5507,-3.5507,-3.5507,-3.5507,-3.5507,-3.5507,-3.5507,-3.5507,-3.5507,-3.5507,-3.5507,-3.5507,-3.5507,-3.5507,-3.5507,-3.5507,-3.5507,-3.5507,-3.5507,-3.5507,-3.5584,-3.5622,-3.5849,-3.6126,-3.6395,-3.6511,-3.6935,-3.6832,-3.6657,-3.6393,-3.5997,-3.5753,-3.6021,-3.6021,-3.6092,-3.6054,-3.6344,-3.6344,-3.5565,-3.5565,-3.5776,-3.5776,-3.5526,-3.5526,-3.5507,-3.5507,-3.5507,-3.5507,-3.5507,-3.5507,-3.5507,-3.5507,-3.5507,-3.5507,-3.5507,-3.5776,-3.6309,-3.644,-3.6535,-3.7262,-3.7918,-3.7405,-3.6883,-3.7154,-3.7332,-3.7126,-3.7533,-3.786,-3.802,-3.7847,-3.7409,-3.6593,-3.5872,-3.5584,-3.5507,-3.5545,-3.5526,-3.5545,-3.5526,-3.5534,-3.552,-3.5507,-3.5507,-3.5507,-3.5507]}]]